GFSSE_925_thetae_000.txt.gz
Theta_e
331 338 338 339 340 339 340 341 341 338 336 335 336 337 338 338 337 334 332 332 332 332 332 331 329 329 331 331 332 325 327 330 326 322 323 324 327 329 330 330 333 335 336
330 338 339 339 342 341 340 341 341 339 336 334 332 332 336 335 333 330 329 329 328 327 324 324 325 327 327 328 329 328 323 322 324 321 319 321 324 329 330 329 330 333 335
327 333 336 338 340 341 340 341 341 340 338 336 333 331 329 332 330 329 327 325 327 328 327 326 325 326 329 328 328 329 327 325 325 323 321 322 324 328 330 330 331 332 334
324 329 332 333 336 338 339 341 340 339 336 333 334 334 333 329 327 326 327 330 330 328 325 323 325 333 333 333 332 330 330 329 329 327 325 324 327 327 330 328 331 331 332
322 322 323 328 330 330 331 334 334 333 331 330 330 330 333 334 333 332 331 329 327 323 321 323 327 330 328 326 326 329 330 330 331 330 329 329 331 333 332 330 327 334 332
324 322 321 320 320 320 321 321 323 325 326 325 326 326 330 332 331 329 326 323 325 326 325 328 330 330 329 328 327 326 327 327 329 330 331 331 332 332 332 333 330 329 333
325 323 322 322 321 321 321 320 320 321 322 323 323 324 325 326 325 325 324 324 325 328 327 326 325 325 328 330 329 327 326 328 329 329 330 331 331 332 334 333 331 330 327
325 325 323 322 321 322 322 321 320 320 322 323 325 325 325 326 325 325 325 326 328 326 326 325 325 325 324 325 325 324 324 325 328 325 326 328 331 330 331 332 330 331 327
327 327 326 325 323 323 322 321 322 322 322 323 324 324 324 323 323 323 323 324 324 323 323 323 324 326 328 328 327 327 328 328 328 328 327 327 327 329 330 331 331 331 329
330 330 331 329 329 326 323 323 322 321 322 323 324 324 323 323 322 322 320 319 319 319 320 321 321 323 325 325 325 325 325 325 326 326 326 326 326 328 330 329 331 330 330
332 332 332 331 331 328 326 326 324 324 324 323 324 323 324 323 322 319 319 318 317 317 318 317 317 317 319 322 322 320 319 320 322 323 324 324 325 327 330 331 330 330 331
335 334 333 333 332 330 329 328 327 327 327 327 326 325 325 325 322 320 319 318 315 314 314 313 313 312 315 316 317 317 316 316 317 318 320 322 323 323 325 328 330 330 330
336 335 333 332 333 332 332 329 328 328 328 327 327 326 325 324 324 322 319 318 318 315 315 312 313 314 313 314 314 313 312 314 316 318 318 318 319 321 323 326 328 328 328
336 334 333 326 324 324 329 331 330 328 328 328 327 326 324 323 323 318 316 316 318 317 317 314 315 316 315 314 313 311 311 311 313 315 317 319 320 320 319 321 325 327 327
334 334 327 322 322 325 328 329 328 329 329 328 328 327 324 322 319 319 318 318 318 319 318 316 313 306 304 303 304 304 304 304 305 307 307 307 308 311 316 319 320 324 326
330 330 324 322 323 325 324 325 326 327 327 327 327 326 324 320 318 319 320 319 319 320 318 312 306 304 303 303 304 304 304 304 304 304 303 303 304 304 305 309 317 321 324
328 325 322 320 319 319 318 318 319 321 321 320 320 318 317 316 314 315 317 318 318 320 316 310 307 303 304 304 304 304 303 303 303 303 303 303 303 304 307 308 307 309 315
326 321 320 318 317 316 315 315 316 318 319 317 316 315 313 312 312 311 311 311 311 315 313 308 307 303 304 304 303 303 302 302 303 302 303 302 303 304 304 305 306 313 312
322 319 318 317 315 314 313 313 315 316 314 313 313 313 312 312 311 311 311 310 308 309 309 307 304 303 304 304 303 303 302 302 302 302 301 303 302 302 304 304 305 306 306
316 316 317 314 314 312 311 311 311 310 310 310 309 309 309 309 310 311 311 311 308 308 308 307 304 304 304 304 303 303 302 301 301 302 301 299 299 302 300 305 305 306 306
314 316 314 313 312 311 311 311 310 310 310 309 309 309 308 308 308 309 311 311 310 308 307 307 305 305 304 304 303 303 302 301 302 300 300 300 299 299 303 303 301 303 303
314 313 313 312 311 311 311 310 309 309 309 309 310 310 309 308 308 308 307 308 310 308 307 307 306 305 304 304 303 300 298 300 301 301 299 300 298 302 301 298 299 298 297
312 312 312 311 310 309 308 308 309 308 309 309 310 310 310 310 309 307 307 307 308 310 307 306 307 305 304 304 303 301 298 298 297 298 300 297 299 296 297 295 295 294 295
310 310 310 309 309 310 310 309 308 308 307 308 307 307 307 308 307 307 306 305 307 310 308 306 306 306 304 303 301 301 299 298 294 294 295 297 294 295 293 294 293 293 298
309 310 311 311 310 309 309 308 307 305 304 304 304 305 304 304 304 305 306 305 304 305 306 305 305 304 303 301 296 297 295 296 295 294 293 293 293 293 294 293 294 294 292
310 310 310 310 309 309 308 307 304 304 304 303 303 303 303 303 303 303 304 304 302 302 302 301 299 296 296 297 297 296 295 293 292 293 292 292 293 294 293 294 294 294 294

GFSSE_925_thetae_003.txt.gz
Theta_e
334 337 338 338 338 340 341 340 338 336 336 337 337 337 337 338 337 335 333 332 332 331 326 325 326 329 330 332 332 328 331 331 330 326 324 325 327 329 331 332 333 336 333
331 338 339 339 339 339 341 340 339 337 335 335 336 336 337 336 334 332 331 329 327 325 327 328 326 325 326 332 330 329 325 326 328 323 321 324 327 330 332 334 334 337 334
330 337 339 339 339 339 339 340 340 339 335 333 332 333 335 332 331 330 329 326 326 329 327 325 327 335 336 335 331 330 329 327 327 325 324 332 332 328 330 331 333 334 335
328 333 335 336 338 339 339 340 339 339 336 334 333 331 329 330 329 328 327 330 330 327 323 326 334 334 332 330 333 332 330 330 330 328 331 331 333 328 326 327 332 332 332
323 329 331 331 332 334 333 335 337 336 334 334 334 334 334 333 332 332 332 329 325 324 324 327 331 330 329 329 329 328 329 331 330 331 332 332 328 332 332 328 328 330 332
321 322 323 325 327 328 331 333 334 334 333 332 331 332 332 333 333 331 327 323 325 325 327 328 328 327 329 330 331 329 328 329 329 329 334 330 330 331 332 334 331 327 330
321 321 321 321 321 321 322 323 323 322 323 324 323 324 327 327 324 323 324 325 329 329 328 326 324 325 324 323 325 327 328 327 330 329 331 331 330 331 331 331 331 332 330
322 322 321 322 321 321 321 321 320 321 322 323 323 324 325 325 325 324 325 326 326 325 323 323 324 326 328 327 327 326 324 324 326 327 326 327 327 330 331 329 330 329 331
324 323 323 322 321 322 322 322 322 322 322 323 323 323 323 323 323 323 323 322 322 320 319 320 321 322 325 326 327 327 328 328 328 328 327 327 327 326 327 329 329 330 330
326 325 325 325 325 324 322 323 322 321 321 322 322 322 322 323 323 322 321 319 317 317 317 317 317 318 320 324 324 324 325 325 325 325 325 324 324 325 326 325 329 329 329
327 328 329 328 328 328 326 325 324 324 324 324 324 323 323 323 323 320 318 318 316 314 314 313 312 313 314 317 320 321 321 320 320 321 322 323 323 323 326 327 327 329 330
331 330 330 330 330 328 327 327 325 325 326 326 326 326 324 324 324 321 319 319 318 316 313 311 310 310 312 314 316 317 317 316 320 321 321 319 321 322 325 325 327 329 330
333 332 331 331 330 329 329 328 327 325 326 326 326 326 325 323 322 322 319 317 317 318 316 316 312 314 315 315 315 315 314 314 317 319 319 318 319 320 321 325 326 327 328
334 334 333 330 330 327 328 329 329 329 327 327 327 327 326 324 322 321 318 318 318 319 319 317 316 314 309 309 310 309 307 309 314 316 313 309 312 317 320 321 323 326 327
334 335 334 331 326 322 324 327 329 329 327 328 328 327 327 325 322 319 317 318 318 319 319 319 314 306 302 302 303 304 304 304 304 308 308 304 304 305 308 314 317 320 325
332 333 333 327 322 321 323 323 323 324 325 326 325 324 326 324 320 317 314 314 315 317 319 319 312 305 303 303 304 304 304 304 303 304 305 305 304 305 306 307 308 314 320
330 331 331 323 319 317 319 318 317 317 319 319 318 318 317 316 314 314 313 312 312 314 317 319 312 307 303 304 304 303 303 302 303 303 303 303 305 305 305 306 307 312 318
327 329 328 321 316 316 316 316 314 315 316 317 315 315 314 313 312 311 311 310 310 311 313 316 312 307 303 304 305 304 303 302 302 302 303 303 304 305 305 304 306 307 308
326 328 323 319 316 315 315 313 313 312 312 312 311 311 310 310 310 310 310 309 309 311 311 311 310 307 305 305 305 304 303 302 302 301 301 302 301 302 303 302 304 306 307
324 323 319 317 314 315 314 312 311 311 311 310 309 309 309 309 309 310 310 309 310 311 310 309 309 307 305 305 304 304 305 303 301 301 302 300 302 300 302 305 306 306 306
317 317 317 315 314 314 311 309 310 309 309 309 309 308 308 308 307 307 308 308 309 311 311 310 308 307 306 304 305 305 305 303 302 303 303 302 302 301 301 302 302 301 302
315 316 315 311 309 308 308 308 308 308 309 309 308 308 307 307 307 307 307 307 307 309 310 310 309 308 306 306 305 306 307 306 303 303 303 303 302 302 301 298 298 298 298
311 310 309 308 309 310 309 309 308 308 307 307 306 305 304 304 303 304 304 304 305 307 308 308 309 308 308 306 304 306 308 307 306 304 302 301 303 301 299 297 297 296 296
308 309 310 309 309 308 308 307 305 304 305 305 304 303 301 300 302 303 303 303 303 306 307 307 308 308 308 308 305 303 304 303 306 306 301 300 300 298 297 298 296 296 296
309 309 308 308 308 308 307 306 306 305 305 304 303 302 301 300 301 302 302 302 302 302 303 305 306 306 306 306 306 304 301 299 298 300 302 301 297 296 297 297 296 297 295
308 308 308 308 308 308 306 306 305 305 305 304 303 301 301 301 300 301 301 301 301 300 300 300 299 300 300 300 299 299 300 298 298 297 298 298 298 298 296 295 295 296 296

GFSSE_925_thetae_006.txt.gz
Theta_e
336 341 338 338 339 341 340 339 337 336 336 338 338 337 337 336 335 334 333 332 331 327 326 328 327 326 329 329 331 330 331 332 331 328 326 327 329 332 333 335 337 339 335
337 342 338 338 338 339 340 339 337 335 336 338 338 339 338 336 335 333 331 329 327 325 327 327 326 327 332 335 333 330 327 328 329 326 324 323 326 331 332 333 336 338 334
337 341 341 339 338 338 339 340 339 337 334 335 336 335 334 333 333 331 329 327 328 328 327 328 334 335 335 336 333 331 330 328 327 325 323 331 333 326 331 332 333 335 333
336 340 341 339 339 340 340 340 339 338 336 334 332 332 332 332 331 330 329 330 328 326 331 333 334 333 331 330 331 333 331 331 331 328 331 333 332 329 334 330 332 331 334
334 337 339 337 338 340 340 341 340 339 336 334 333 334 334 334 333 332 332 330 324 324 326 328 328 327 327 329 329 328 329 330 331 331 334 334 333 333 329 329 330 329 329
330 333 330 330 331 332 334 334 334 335 335 333 331 331 332 332 331 328 324 321 322 324 326 327 325 324 324 324 329 330 328 326 327 332 334 334 332 333 329 330 330 332 331
327 329 328 324 324 324 323 324 326 327 326 325 325 326 326 326 324 323 323 325 325 326 325 324 324 325 326 326 324 325 328 328 331 332 333 333 333 331 330 328 330 330 330
327 330 329 322 321 321 321 321 321 321 322 323 323 323 323 323 323 322 322 322 322 321 320 321 321 323 325 327 327 327 325 325 330 333 331 331 332 329 331 331 330 330 330
327 329 330 330 328 322 322 322 322 323 323 323 323 323 323 323 323 323 323 322 320 319 318 318 318 319 321 323 325 327 327 327 331 331 331 331 329 327 328 328 329 328 329
330 329 331 331 330 330 330 323 322 322 322 323 323 323 323 324 324 323 321 322 318 316 315 314 314 314 315 318 322 324 324 326 328 329 329 328 324 325 328 327 325 325 326
331 332 332 331 331 330 328 328 325 324 324 325 328 326 328 328 328 326 321 318 317 316 314 312 311 310 310 316 317 318 321 324 324 324 325 324 322 323 325 327 328 327 324
332 333 333 333 332 330 327 330 329 328 329 331 331 331 329 329 328 325 324 318 316 316 317 315 315 313 316 317 318 319 320 322 321 322 323 322 319 321 325 325 325 326 326
333 334 333 335 334 331 327 328 327 327 327 329 332 332 331 330 329 327 326 324 323 322 320 320 320 319 320 318 317 318 318 318 316 317 319 316 316 319 321 324 326 326 327
332 334 335 334 335 333 328 327 327 327 326 327 328 331 330 328 327 327 324 322 320 320 321 320 320 320 316 314 313 313 314 312 312 313 314 307 308 311 315 318 320 322 325
332 335 336 336 334 330 331 327 327 327 326 326 327 326 327 325 325 323 321 319 319 319 319 320 319 316 311 310 310 311 310 311 312 311 311 305 304 305 306 308 312 318 321
333 334 337 337 333 328 327 327 325 324 323 323 322 322 324 324 322 320 318 317 316 316 317 318 317 314 311 310 309 310 309 309 310 310 309 309 304 304 305 306 307 311 319
331 332 336 335 328 327 325 323 320 319 319 319 318 319 320 320 318 318 316 316 316 316 317 318 318 315 312 310 309 309 309 309 308 308 308 308 308 305 304 305 306 309 311
330 332 333 330 324 323 322 322 320 320 320 319 318 318 319 319 319 318 317 316 316 316 316 316 316 314 313 310 309 309 308 308 308 308 307 307 307 307 307 304 304 306 307
327 329 331 327 320 320 322 321 320 320 318 316 316 315 315 315 316 316 315 315 316 316 315 315 315 314 313 311 309 309 309 308 307 307 307 307 307 306 306 306 301 303 305
326 329 329 323 322 322 321 318 316 315 315 313 313 312 312 312 312 313 314 315 316 316 315 314 314 314 312 311 310 309 308 309 308 307 307 306 306 307 307 307 307 307 303
326 326 323 322 316 315 314 313 313 313 313 313 312 312 312 311 311 311 311 311 312 313 313 314 314 314 314 312 311 310 309 309 309 308 307 307 306 306 307 307 305 304 304
320 319 316 314 313 313 312 312 312 312 312 312 311 311 309 307 307 307 308 308 309 309 310 311 313 313 314 313 312 311 312 310 309 308 308 307 306 306 306 306 304 303 302
315 314 314 313 313 312 311 311 312 312 311 311 309 308 307 306 305 305 306 306 307 307 307 308 309 310 312 312 312 312 313 313 311 309 308 307 306 306 306 304 302 301 301
315 314 313 312 312 310 310 310 310 310 310 309 308 307 306 304 304 304 304 305 305 306 306 306 306 307 308 310 310 311 311 311 314 312 308 307 306 306 305 303 301 301 300
313 313 313 312 311 311 309 309 309 309 308 308 307 305 303 303 303 303 304 304 305 304 304 305 306 306 307 308 308 309 309 309 308 309 311 308 305 304 302 301 301 301 301
313 313 312 311 311 310 309 308 308 309 308 307 305 303 303 302 302 302 303 303 303 303 303 303 303 303 303 304 303 303 303 301 303 305 307 308 308 303 301 301 300 300 300

GFSSE_925_thetae_009.txt.gz
Theta_e
339 341 337 338 340 340 340 338 337 337 338 338 337 337 336 335 335 333 332 331 328 327 326 327 327 327 327 329 328 329 330 331 332 330 326 325 326 332 333 334 338 339 332
340 342 337 337 338 340 340 338 336 336 338 339 339 339 338 336 334 331 329 327 326 327 328 331 331 333 333 332 331 331 330 327 329 330 324 320 323 328 331 333 337 336 334
341 340 341 339 339 340 340 339 337 335 336 336 336 335 334 334 332 331 330 328 329 328 329 331 334 333 332 334 334 332 330 329 327 327 324 326 334 332 326 332 332 333 333
341 341 342 339 340 340 339 340 339 337 334 333 332 332 332 332 331 330 329 330 327 326 332 334 332 329 328 328 329 331 331 330 330 327 329 331 334 332 326 331 332 332 332
338 340 338 339 340 340 341 340 339 338 335 333 333 333 333 334 334 333 330 324 322 326 331 330 326 325 324 324 327 329 329 330 330 330 332 334 334 334 327 328 329 328 327
332 335 333 335 335 336 337 338 337 337 336 333 330 330 329 328 327 323 321 324 326 328 326 324 323 323 323 324 323 324 330 328 327 332 333 335 333 333 329 331 330 333 333
326 327 332 326 325 325 326 326 327 327 326 325 326 327 327 325 324 323 323 323 321 321 319 319 320 321 322 324 325 325 324 328 329 332 331 334 335 333 330 328 326 329 329
327 327 325 320 320 321 321 321 322 323 325 325 325 325 325 324 323 323 322 320 318 317 316 316 316 317 318 320 323 326 327 325 329 331 333 333 331 331 330 330 329 325 324
326 328 328 328 326 321 321 322 322 323 323 324 324 323 323 322 322 322 320 320 316 314 314 313 313 312 313 315 320 323 325 326 328 330 331 332 330 328 328 329 330 329 328
327 329 330 330 329 329 331 322 322 322 323 323 324 324 324 329 327 325 324 321 317 316 315 313 311 310 309 311 314 318 321 325 327 326 327 329 327 325 327 327 326 325 327
329 330 331 330 328 327 326 324 327 326 326 329 330 330 330 329 328 327 325 321 317 317 316 318 316 314 314 317 318 318 317 324 324 323 326 326 323 322 326 326 327 327 326
331 330 333 333 330 328 324 327 327 326 328 329 330 330 329 329 328 327 326 325 324 323 322 320 320 320 320 319 318 319 320 320 318 319 322 320 320 318 324 324 324 325 326
331 329 332 336 332 329 326 326 327 326 326 327 329 330 328 328 328 326 325 324 323 322 321 321 321 321 321 318 317 317 317 317 316 316 318 317 312 315 318 321 322 323 325
330 328 331 335 331 329 328 327 326 326 325 326 327 328 326 325 325 325 323 321 320 319 320 320 320 320 319 315 313 313 313 313 312 313 314 313 306 307 311 315 319 321 322
328 328 330 334 329 326 327 327 327 326 326 326 325 324 323 324 323 322 320 319 318 318 318 318 318 318 316 314 312 312 312 312 312 313 312 311 308 304 305 306 311 316 320
327 329 330 333 330 325 325 326 326 323 322 321 320 320 321 322 321 320 319 318 317 317 317 317 318 319 316 314 313 312 312 311 311 312 311 311 309 305 305 306 306 311 316
328 328 331 332 328 324 325 324 321 320 320 320 319 319 319 320 319 319 318 318 317 317 317 317 317 317 317 316 313 312 312 312 312 311 311 309 310 308 304 305 306 307 310
327 328 329 331 326 323 322 321 321 320 320 320 319 318 319 319 318 318 317 317 317 318 317 317 316 316 316 316 315 313 312 311 311 311 310 310 309 310 308 306 304 305 306
326 327 329 330 322 321 322 322 321 320 319 317 316 316 316 315 316 316 316 316 317 317 317 317 317 316 316 316 315 314 312 311 311 311 310 310 309 309 309 309 304 302 302
326 326 328 328 321 321 322 321 318 317 317 316 316 315 315 315 315 314 314 314 314 314 314 315 316 316 317 316 315 315 314 313 311 311 311 310 309 309 308 309 307 305 306
328 328 327 323 321 319 318 317 316 316 316 316 315 315 314 312 311 310 310 310 310 310 310 311 312 314 315 315 317 317 316 314 313 311 311 311 310 309 309 309 309 308 306
325 324 321 319 317 316 316 315 315 315 315 315 314 313 312 310 309 309 308 308 308 308 308 309 310 312 312 313 315 316 319 316 315 314 312 312 311 309 309 308 309 308 307
320 318 317 316 315 315 314 314 314 314 314 313 312 312 311 309 308 307 306 307 307 307 307 308 308 308 310 310 311 314 316 316 316 313 315 312 311 311 309 308 309 307 305
318 317 316 315 314 313 313 313 313 313 312 312 311 310 309 307 306 305 305 306 306 306 306 306 306 307 307 308 308 308 309 312 315 315 313 313 312 310 310 309 308 306 304
317 317 316 315 314 313 313 312 312 312 312 312 311 308 306 305 305 304 304 304 305 305 305 305 305 305 305 305 306 306 307 307 308 306 310 312 311 310 309 309 308 305 304
317 316 315 315 314 313 313 313 312 311 310 308 307 306 305 304 303 303 303 304 304 304 304 304 304 304 303 302 302 302 302 301 301 301 302 306 309 308 308 307 305 304 304

GFSSE_925_thetae_012.txt.gz
Theta_e
342 338 339 340 340 339 338 337 337 338 338 338 337 336 335 335 335 332 330 329 327 327 327 327 327 327 328 328 328 329 330 329 330 330 329 323 326 329 333 337 339 334 332
343 339 337 339 340 340 338 336 336 337 338 338 338 338 337 335 333 331 329 328 328 328 328 330 331 329 328 327 329 331 331 330 327 328 327 323 326 326 327 334 336 331 330
341 341 339 338 339 340 339 337 336 335 335 336 335 334 334 333 332 330 329 329 328 328 331 334 328 326 325 326 327 327 330 329 329 326 325 324 329 332 326 329 335 331 332
342 342 339 338 339 339 340 339 338 335 333 332 331 331 331 331 331 332 331 326 323 328 332 329 326 325 324 324 325 327 328 329 329 329 327 329 333 333 328 324 331 331 331
343 339 339 339 340 340 340 340 339 336 333 332 332 333 332 332 331 326 322 323 329 331 331 329 323 322 322 322 322 322 325 327 330 329 329 331 333 330 325 326 329 329 330
338 335 336 336 338 339 338 337 336 335 333 330 328 328 327 326 324 323 325 325 324 321 317 317 318 317 318 319 321 323 323 323 328 327 330 332 330 327 323 327 335 335 330
332 327 326 325 325 325 325 325 325 325 325 324 324 324 324 323 322 322 321 318 315 314 313 313 313 313 312 312 314 318 322 324 324 328 331 331 327 319 328 328 328 330 331
329 323 320 319 319 320 320 321 322 323 323 323 323 322 322 322 322 321 320 318 315 313 312 311 310 309 309 309 310 313 317 321 324 329 332 331 328 328 329 328 329 327 326
327 326 326 321 320 320 320 321 322 322 322 322 322 322 322 324 324 324 321 316 314 313 313 312 311 310 309 308 311 311 313 318 323 329 329 330 330 328 327 327 329 330 329
329 329 330 330 330 332 325 317 319 321 322 324 326 326 328 330 328 326 325 321 318 318 318 317 318 317 315 315 317 318 315 319 325 324 328 327 326 325 324 325 326 326 327
329 330 329 328 327 331 327 326 328 324 330 331 331 329 330 329 330 327 325 325 324 323 321 321 320 320 320 320 320 319 318 321 323 321 325 325 324 323 321 322 323 324 325
330 330 332 330 328 325 325 328 327 327 328 330 330 330 330 328 329 327 327 326 325 322 321 322 321 321 322 321 318 318 319 319 319 316 321 319 318 315 310 319 321 323 324
330 330 334 332 329 329 325 326 327 327 326 327 331 328 328 326 326 326 324 324 321 320 321 320 321 321 321 320 316 315 315 316 316 314 316 317 316 313 308 314 317 320 322
330 329 335 333 329 328 329 328 327 327 325 326 326 327 325 324 324 322 321 320 319 318 318 319 318 318 319 318 315 313 313 313 313 313 313 314 313 310 305 308 312 318 321
330 329 332 332 328 328 325 327 327 326 326 324 323 323 323 323 322 321 319 319 318 317 317 317 317 318 319 317 315 313 312 313 312 312 313 313 312 311 306 305 310 310 316
328 330 332 333 328 325 326 327 326 323 322 321 320 319 321 321 321 320 319 319 318 318 318 317 317 318 319 318 317 315 313 312 312 311 312 312 311 310 309 305 306 311 317
327 328 331 334 328 325 325 325 323 320 321 320 320 320 320 320 320 319 319 318 318 318 318 317 318 318 317 317 317 316 315 312 312 312 311 312 311 310 309 307 305 306 309
328 328 331 332 327 324 324 322 321 322 320 320 320 318 319 319 317 317 317 317 317 317 317 318 318 318 318 317 317 317 316 315 312 312 312 311 311 310 310 308 305 304 304
327 328 329 330 326 323 323 322 322 321 319 318 317 317 316 316 316 315 315 315 315 315 316 315 316 317 318 317 317 317 315 316 315 312 312 311 310 310 310 310 307 306 304
326 326 329 329 323 321 322 322 320 318 318 317 317 316 315 315 313 311 311 311 311 311 311 312 312 311 313 314 315 316 316 316 315 314 314 312 311 310 309 310 310 307 303
327 326 326 324 322 321 320 318 317 317 316 316 316 314 313 312 311 310 309 309 308 309 309 309 309 310 310 311 313 314 314 314 315 317 315 314 312 311 310 309 309 309 306
323 322 320 318 317 316 317 316 315 315 315 315 315 313 312 311 309 308 307 307 308 307 307 308 309 309 308 308 310 311 310 310 311 313 314 315 313 312 311 310 309 310 310
319 318 318 316 315 314 314 315 314 314 314 313 313 312 312 311 309 307 306 306 305 307 306 306 307 307 308 307 307 308 308 308 309 310 310 310 311 311 313 312 310 309 309
318 317 316 316 315 314 313 314 314 313 314 314 314 312 311 308 307 305 304 304 304 305 305 306 306 305 306 307 306 306 305 304 306 307 308 308 308 310 310 312 311 310 310
318 317 316 315 315 315 314 313 313 314 312 311 309 309 307 306 304 303 303 303 304 303 304 305 304 305 305 303 303 302 302 301 302 301 303 301 301 303 305 307 309 310 307
318 317 316 315 315 314 314 313 311 310 310 309 308 306 304 303 302 302 302 302 303 304 304 303 303 302 301 301 301 301 300 300 299 298 298 298 298 299 301 301 304 306 305

GFSSE_925_thetae_015.txt.gz
Theta_e
339 340 339 339 338 337 337 337 337 337 337 336 336 336 336 335 333 331 329 328 328 328 328 328 328 328 327 327 328 329 331 330 328 329 330 326 330 328 331 338 335 332 330
339 339 339 339 338 337 336 336 337 337 337 337 337 335 333 332 331 330 329 328 328 327 325 322 323 324 325 325 326 326 328 330 329 327 326 327 329 329 327 331 336 329 330
338 338 339 339 339 337 336 335 335 335 334 334 333 332 331 330 330 330 329 326 322 321 320 322 323 323 323 323 323 324 326 328 329 329 327 327 330 331 328 328 333 331 332
338 337 338 339 339 339 338 337 335 333 332 332 332 333 333 331 330 325 321 322 325 325 321 319 319 319 319 319 319 320 321 325 327 329 329 329 332 331 328 329 327 330 331
337 337 338 338 339 339 338 337 335 333 333 332 333 329 326 324 322 321 322 321 319 315 313 314 314 313 313 313 315 318 321 322 324 327 330 329 330 330 327 325 327 329 331
338 338 338 338 338 337 336 335 334 332 326 325 324 323 323 322 321 321 320 315 313 312 312 311 311 310 310 310 310 312 315 321 323 327 330 330 329 325 321 324 328 326 328
333 331 330 329 327 326 326 325 323 322 322 322 321 321 321 320 320 320 318 315 312 311 311 310 309 309 308 308 308 309 312 317 322 327 330 330 328 320 321 320 326 329 331
322 322 321 320 320 320 320 320 321 321 320 320 320 320 319 321 320 319 316 313 311 311 312 311 311 310 309 309 313 313 310 316 322 327 331 330 329 328 323 328 328 327 328
319 318 318 320 317 315 318 319 320 320 320 321 321 323 327 325 325 323 323 321 321 320 319 318 319 319 317 315 317 318 317 316 324 325 328 330 329 328 327 328 329 329 328
328 328 328 329 328 321 313 314 317 320 323 326 327 328 329 329 327 326 324 324 323 322 321 321 320 320 320 320 320 319 318 319 322 323 328 327 326 325 325 325 325 325 327
329 329 329 330 330 325 326 324 326 329 329 330 329 330 329 328 327 326 326 326 324 321 321 321 320 321 321 321 320 317 318 317 318 319 321 325 324 322 321 319 321 322 323
330 329 328 327 328 328 327 327 326 329 329 329 329 329 329 328 328 327 327 325 320 321 321 318 320 320 321 320 318 314 315 315 315 314 316 320 318 317 315 308 314 321 322
330 331 329 329 326 327 327 328 327 328 330 331 329 328 326 326 325 323 321 320 319 318 318 318 319 318 318 319 317 315 313 312 312 313 313 316 316 315 313 307 308 316 321
330 332 331 326 327 327 327 327 327 326 328 326 328 326 325 324 323 321 320 318 318 317 318 317 317 316 317 318 317 315 314 312 312 312 312 312 313 312 312 310 306 307 315
331 334 332 325 317 324 327 326 326 327 324 325 323 322 318 323 321 320 319 318 318 318 317 317 317 316 317 318 318 317 314 313 312 311 311 312 313 313 312 311 307 306 307
330 334 331 328 327 323 327 326 324 322 322 322 321 319 318 319 320 319 318 318 318 318 318 318 317 317 318 317 317 318 317 316 314 312 311 311 311 312 311 310 309 307 307
329 333 331 329 326 326 327 324 325 320 320 320 320 319 319 319 319 319 318 318 317 317 317 315 316 317 317 317 317 317 317 317 316 314 313 311 311 311 311 310 309 308 306
329 333 331 326 326 325 325 322 321 321 320 320 320 320 319 317 316 316 314 313 313 313 313 314 313 314 315 314 313 313 314 315 315 315 314 312 312 311 311 310 310 309 307
328 332 329 326 325 324 325 321 321 321 319 318 317 316 315 315 315 314 310 309 309 309 309 309 310 309 308 308 308 311 313 314 314 313 313 314 313 312 311 310 310 310 308
329 329 329 327 325 323 322 322 320 319 317 316 315 314 313 312 311 311 310 309 308 307 307 308 307 306 308 310 310 310 310 311 312 312 312 313 316 314 312 310 310 310 309
324 325 323 319 317 321 320 318 315 315 315 315 313 312 312 312 312 311 309 306 306 307 306 306 306 305 306 307 308 308 309 309 309 309 309 308 312 313 313 312 311 310 309
318 317 317 316 316 315 315 315 314 315 314 314 313 313 311 310 309 307 305 305 305 305 306 305 304 306 307 306 306 306 306 306 306 306 308 307 308 309 310 311 311 310 310
316 316 315 315 314 314 314 314 313 313 313 314 313 312 309 307 306 304 303 303 303 303 304 303 303 306 305 306 306 305 304 304 302 305 304 306 305 304 304 304 309 310 310
316 316 315 315 314 314 313 313 313 313 313 311 309 308 307 305 304 302 302 302 301 301 302 304 305 304 304 304 303 304 301 300 301 300 301 299 301 298 298 299 302 306 309
317 316 315 315 315 314 314 314 313 311 309 310 307 306 305 304 302 301 300 300 302 303 303 302 302 302 302 301 300 301 301 300 299 297 297 297 297 296 297 298 298 300 305
317 316 316 315 315 314 314 313 311 310 308 307 305 304 303 301 301 300 301 301 301 301 301 300 300 300 300 299 298 298 298 298 299 298 296 296 296 295 295 294 297 298 299

GFSSE_925_thetae_018.txt.gz
Theta_e
342 339 337 337 337 336 336 336 336 335 335 336 336 334 332 331 330 329 329 328 329 330 330 325 325 325 326 325 325 325 327 329 329 328 329 326 326 328 331 330 334 332 332
340 339 338 337 336 336 336 336 336 336 336 335 333 331 330 329 328 328 328 325 321 323 324 323 324 323 322 322 323 324 326 328 328 329 327 325 329 328 327 329 330 329 330
340 339 338 337 336 335 335 335 335 334 333 331 330 329 328 327 325 322 319 320 320 319 320 318 318 318 318 319 320 321 322 326 328 328 328 330 330 330 328 327 332 330 331
339 339 338 337 337 336 334 333 332 331 330 330 329 326 324 322 319 319 319 317 314 311 312 312 312 311 311 310 312 317 322 322 326 328 329 332 331 329 328 326 325 326 328
339 339 338 338 338 337 335 333 331 332 331 328 323 321 320 320 320 319 314 311 310 310 310 310 309 309 309 308 309 311 315 322 324 327 330 330 330 329 328 326 324 328 330
338 338 338 339 337 336 335 333 332 326 323 322 321 320 320 319 318 317 313 310 309 309 309 309 309 308 308 308 308 309 313 319 325 328 329 329 329 328 323 324 324 329 331
338 338 338 336 334 332 330 327 323 322 321 319 319 319 319 318 317 316 311 310 309 310 312 312 313 312 310 310 315 314 311 317 323 328 330 329 328 323 321 322 328 326 327
334 334 330 325 322 321 321 320 320 319 319 319 319 320 322 322 320 320 320 319 319 320 318 319 319 318 318 316 318 318 317 318 322 324 328 329 328 327 321 324 326 326 328
323 320 319 318 318 318 318 318 318 319 320 320 322 326 326 325 324 323 324 323 321 321 321 320 320 320 320 319 319 317 318 319 321 322 325 329 329 328 327 326 326 326 328
318 320 319 319 314 310 312 316 317 320 324 325 328 328 327 326 326 326 325 324 321 321 321 319 320 320 321 320 318 315 317 317 317 319 324 327 326 325 323 324 327 328 328
320 325 326 325 321 322 318 323 326 328 328 328 329 328 327 327 327 326 326 324 321 321 320 318 319 319 320 319 318 316 313 314 315 315 317 321 324 324 322 319 319 323 324
326 327 328 327 326 326 324 326 327 328 329 329 329 328 328 327 328 326 325 320 319 318 317 318 319 318 317 318 318 316 315 312 311 312 313 316 322 318 318 313 310 310 317
329 329 328 327 326 327 327 326 327 328 329 329 328 327 326 327 324 322 320 318 318 317 317 317 317 316 316 317 317 317 316 314 312 311 311 312 311 313 313 310 309 307 309
329 328 327 325 327 327 326 327 327 328 330 329 328 325 324 324 322 320 318 318 318 317 317 317 317 317 316 317 317 317 317 316 314 313 312 311 310 311 312 311 311 310 306
329 328 327 327 327 327 327 326 326 327 328 327 325 323 319 322 319 319 319 318 318 318 318 318 317 316 316 318 317 317 318 318 316 314 313 312 311 311 311 312 311 310 309
331 329 328 323 326 327 326 325 326 323 324 324 321 319 316 318 319 319 318 318 316 315 314 314 313 314 314 316 317 316 316 316 316 316 314 312 312 311 310 310 311 310 309
332 331 328 322 323 325 326 325 323 321 322 321 320 319 319 319 319 318 316 312 310 311 310 310 310 311 311 310 310 310 309 308 309 311 313 314 313 311 311 310 310 310 309
333 332 328 327 324 325 326 323 324 319 320 320 319 319 319 318 316 315 311 310 311 310 309 308 308 308 307 306 307 306 308 308 308 309 310 312 313 314 313 311 311 311 310
331 329 327 324 326 325 324 322 321 320 318 317 318 316 315 314 313 312 311 310 309 307 307 307 306 305 304 303 304 306 305 305 306 307 309 310 310 311 313 313 312 311 310
330 328 327 327 325 324 325 322 320 317 316 315 314 313 312 310 310 309 309 307 306 306 305 305 305 304 303 303 307 306 306 306 305 308 308 308 308 308 310 310 310 310 310
327 324 324 326 325 324 316 315 315 314 313 312 311 311 310 310 309 308 306 304 304 304 305 304 303 303 303 305 305 305 305 304 306 304 303 304 305 305 306 305 308 311 310
319 316 315 315 315 315 314 314 314 313 313 313 311 311 308 307 306 305 303 302 301 301 301 301 302 304 305 305 305 305 302 304 303 303 302 302 302 299 300 300 300 304 309
315 315 314 314 314 314 314 313 313 313 313 312 309 307 306 306 305 303 301 300 299 301 302 303 303 304 304 304 304 303 301 301 300 301 300 300 298 299 297 296 297 297 300
314 314 314 314 314 314 314 314 313 313 312 310 309 307 305 305 303 301 300 300 300 301 302 301 301 301 301 302 301 302 300 300 300 299 299 298 297 297 296 295 294 297 297
315 315 315 314 314 314 314 313 313 311 309 308 306 306 305 304 301 300 299 300 300 299 300 300 300 300 299 299 299 298 297 296 297 297 297 296 296 296 295 295 295 297 298
316 316 315 315 314 314 313 312 311 309 308 306 304 303 302 300 300 299 299 298 297 298 297 297 297 297 297 296 296 296 296 297 296 296 296 295 295 295 295 294 295 296 297

GFSSE_925_thetae_024.txt.gz
Theta_e
340 340 339 337 336 334 334 334 333 334 334 332 330 329 327 326 325 324 320 320 328 331 329 320 318 317 318 319 320 322 324 326 327 326 327 325 324 327 329 328 331 330 330
339 340 338 337 335 335 334 334 335 334 331 328 326 324 322 321 318 318 317 318 325 327 325 316 312 309 310 313 317 319 320 324 327 327 326 325 326 327 328 327 329 330 330
339 339 338 336 335 335 334 335 334 332 328 326 324 322 319 318 316 312 309 311 320 322 321 313 310 309 308 309 311 315 320 321 325 327 327 327 326 328 329 326 330 330 330
338 338 337 336 335 335 335 335 333 328 325 323 320 318 317 315 310 308 309 309 310 312 314 312 308 308 309 309 310 312 316 322 324 327 328 329 330 329 328 326 327 327 327
337 337 337 336 335 334 333 331 328 326 322 319 318 317 316 313 310 308 308 309 310 312 314 315 312 310 316 317 317 314 317 322 325 327 329 330 330 329 329 329 325 325 327
337 336 336 335 334 332 330 328 327 322 320 318 317 315 315 313 310 309 310 314 316 318 318 318 317 317 318 317 316 317 319 322 325 327 328 328 328 327 330 321 321 324 326
337 336 336 335 333 331 329 328 323 321 318 317 316 314 314 314 317 318 318 318 319 318 319 319 319 319 318 315 313 315 317 320 322 323 325 328 327 326 326 323 324 326 327
338 338 337 334 332 330 327 323 321 318 317 316 315 319 316 321 321 320 319 319 319 318 317 317 317 317 317 316 315 313 312 316 318 319 322 326 328 327 325 326 326 325 326
337 338 335 333 331 327 322 320 318 318 317 318 321 322 321 323 323 322 320 320 319 318 318 317 317 317 316 316 316 315 313 311 311 314 316 318 324 323 323 325 322 321 321
337 334 331 328 323 321 319 318 318 318 318 323 325 324 324 324 324 323 321 320 320 319 318 318 317 317 316 316 316 316 316 314 313 311 310 314 315 318 320 320 317 316 314
333 327 323 319 319 317 317 318 319 319 324 326 326 325 325 325 325 324 323 321 319 318 318 318 318 316 315 316 316 316 316 316 315 315 313 311 312 315 317 315 315 313 311
324 320 318 316 315 315 317 318 321 324 327 328 327 326 326 327 326 324 323 321 318 317 317 317 317 316 316 314 317 317 317 316 316 316 314 313 312 311 311 311 311 311 311
319 320 318 316 314 317 319 324 325 326 327 327 327 327 326 326 326 323 319 318 317 318 317 317 316 313 311 312 313 315 315 316 316 317 317 315 313 312 317 319 318 314 311
322 323 320 319 319 322 323 325 327 327 327 328 327 326 324 324 322 319 318 318 317 316 314 311 310 310 309 309 309 310 311 311 313 314 314 316 316 315 314 313 318 319 318
323 324 323 321 321 321 324 326 327 327 328 329 327 325 324 322 320 318 317 315 311 310 310 309 308 308 307 307 305 304 304 306 307 307 307 308 309 311 314 313 313 316 318
323 324 325 324 322 324 325 325 326 327 328 329 327 324 322 320 318 317 313 310 310 309 308 307 307 306 305 304 303 302 301 301 301 302 303 304 306 308 310 311 311 312 313
325 326 326 326 327 325 324 325 325 327 327 328 325 320 320 319 317 312 310 310 309 308 307 307 306 305 304 303 302 301 300 300 302 303 303 304 304 305 307 308 309 310 311
326 327 327 327 325 324 324 325 323 321 324 324 319 318 316 313 311 310 310 310 309 308 306 305 303 302 301 300 300 300 300 301 302 303 304 304 305 306 306 305 305 306 308
327 326 326 325 325 325 322 323 318 317 319 317 314 313 311 310 311 310 311 308 305 304 303 302 301 300 300 301 301 301 300 300 303 302 302 301 301 301 301 301 301 301 301
327 326 324 325 325 325 322 315 315 314 313 313 313 313 311 312 309 308 306 303 303 301 301 300 300 300 301 302 302 301 300 302 301 301 299 300 299 299 299 299 298 298 298
326 325 325 323 324 315 313 313 313 313 313 314 312 309 310 309 306 306 304 303 302 301 299 298 298 299 300 300 301 299 299 302 298 300 297 299 298 298 298 297 296 296 296
326 326 326 324 319 314 315 316 316 315 313 311 309 309 307 306 305 304 303 303 303 301 297 296 297 299 299 299 299 299 297 299 300 298 297 297 296 297 296 295 294 295 295
316 316 318 320 316 315 316 314 313 313 311 309 306 306 305 304 304 305 305 303 299 297 297 296 298 299 298 298 298 299 296 296 296 296 295 296 296 295 295 294 294 295 294
313 313 313 313 313 313 312 312 313 312 312 310 306 304 304 304 303 305 303 299 298 298 296 296 297 297 297 297 297 298 296 295 296 295 295 295 294 294 294 294 294 295 294
311 312 312 312 312 312 313 312 312 311 309 307 305 305 305 304 304 302 300 298 298 296 295 294 295 295 295 295 295 294 293 295 295 294 294 293 293 293 293 293 294 294 293
312 313 313 313 313 312 312 312 311 309 308 307 306 305 304 302 302 300 299 298 296 294 294 293 293 293 292 292 292 292 292 293 293 292 292 292 292 292 291 293 293 293 292

GFSSE_925_thetae_027.txt.gz
Theta_e
341 341 337 334 334 333 332 332 333 333 332 331 329 328 326 325 322 320 325 325 321 323 325 322 320 319 317 317 319 320 322 324 326 326 326 326 325 328 329 329 330 335 331
340 340 337 334 334 333 333 334 334 332 329 327 324 322 321 317 317 317 317 317 323 325 321 313 309 308 308 310 312 317 319 322 326 327 327 326 325 329 328 330 329 333 330
339 340 337 335 334 334 334 334 332 328 324 321 319 317 316 313 309 310 311 319 323 323 320 316 310 309 310 310 310 312 316 320 324 327 327 331 331 330 331 327 329 329 329
339 339 338 335 335 334 335 333 327 323 320 319 317 315 313 309 309 309 311 313 318 320 319 312 312 316 317 316 315 317 319 322 324 327 330 332 332 329 330 329 328 326 327
338 338 336 335 335 335 334 328 324 321 320 318 316 315 311 309 309 309 311 315 318 321 321 316 318 317 314 315 317 318 321 324 326 327 329 329 331 328 330 326 323 324 325
338 338 336 335 335 335 332 326 323 320 318 317 316 314 312 310 309 314 317 318 318 318 319 318 318 316 315 313 313 316 319 321 323 324 328 328 327 326 326 325 325 326 326
338 337 336 335 334 334 329 326 322 319 318 316 315 314 312 314 317 318 318 317 318 317 318 317 317 317 316 315 313 311 312 316 320 322 324 327 328 326 327 326 325 325 325
337 337 336 335 333 329 328 323 320 318 317 315 316 316 319 319 319 319 319 318 318 317 317 317 317 316 316 316 315 315 313 312 312 316 320 322 323 324 327 325 322 320 320
337 337 336 334 331 329 325 322 319 318 316 318 318 320 322 321 320 319 319 319 318 318 317 316 315 314 315 315 316 315 315 315 314 313 312 315 313 316 324 321 319 316 314
340 339 336 334 331 328 324 320 318 318 319 322 322 322 323 323 322 321 320 319 318 318 317 317 316 315 314 315 315 316 315 315 315 315 314 313 311 315 322 315 314 313 312
339 337 334 331 328 323 321 319 319 318 323 324 324 324 324 324 324 322 320 319 317 317 317 318 316 316 314 312 314 314 314 315 315 316 315 314 313 313 317 317 313 312 311
337 333 329 327 323 320 319 319 320 321 324 326 325 325 326 326 325 324 321 319 317 317 317 316 316 312 310 310 310 310 312 314 314 316 316 316 316 314 313 314 315 316 316
330 327 323 320 319 318 319 320 321 324 326 327 327 326 326 326 326 323 318 317 317 317 315 312 310 310 309 308 308 308 308 310 312 313 313 314 314 313 316 319 318 318 318
325 322 319 318 317 318 320 321 324 325 327 327 327 327 326 326 323 318 317 316 315 312 310 309 309 308 308 307 305 304 303 305 307 307 308 308 309 310 311 315 318 320 319
323 321 320 319 319 320 322 323 325 326 327 328 328 326 325 322 319 317 315 312 311 310 309 309 308 307 306 305 304 302 302 301 301 303 304 302 303 304 306 309 311 312 315
322 323 322 321 321 321 322 324 325 326 326 327 327 325 322 320 318 314 311 310 309 310 309 308 306 305 304 304 303 302 302 303 302 301 304 305 302 304 305 306 307 308 309
323 324 324 324 324 323 324 325 325 324 325 325 324 321 320 318 314 311 311 311 309 308 306 305 304 304 304 303 304 304 304 304 304 303 304 305 305 305 305 304 304 304 304
324 325 325 325 323 324 325 320 319 322 321 322 321 318 318 315 312 311 310 309 306 304 304 303 303 303 304 304 304 304 303 302 304 304 304 303 303 302 302 302 301 301 300
325 326 325 324 324 324 322 321 321 319 319 317 315 313 312 311 310 310 307 305 303 304 303 302 303 301 303 302 301 302 300 301 304 303 302 301 301 300 300 300 299 299 298
325 325 325 325 325 322 321 323 317 317 313 312 313 314 312 309 308 307 305 304 303 303 302 301 300 300 301 301 299 300 299 301 303 301 300 300 299 299 299 298 298 297 295
325 325 325 325 324 324 322 315 313 312 311 313 311 308 308 307 305 304 305 304 303 300 297 297 299 299 298 300 299 298 299 303 302 300 299 298 298 297 297 297 296 296 296
325 325 324 324 324 321 317 315 313 313 312 309 307 307 305 304 304 305 303 302 299 298 297 295 297 298 299 299 298 298 299 298 300 298 297 296 296 297 296 296 296 296 296
324 324 324 323 316 315 314 314 314 312 309 306 305 305 304 305 305 305 301 300 298 298 298 297 298 298 297 298 298 297 299 298 296 296 295 295 295 294 294 294 294 294 295
313 317 321 323 314 314 314 312 312 312 312 309 308 306 305 305 304 303 301 300 298 298 296 296 296 296 296 296 295 296 295 295 295 295 294 293 293 292 293 294 294 295 295
311 311 312 313 312 311 311 311 311 311 309 307 306 305 305 303 302 301 301 299 298 297 293 292 295 295 295 294 294 293 292 293 293 293 293 292 291 291 292 291 293 294 294
312 312 312 312 312 312 312 310 309 308 307 304 303 303 303 302 302 301 300 299 298 295 293 294 294 294 294 294 293 292 291 291 291 291 291 290 290 289 289 290 290 292 293

GFSSE_925_thetae_030.txt.gz
Theta_e
342 340 333 330 330 330 331 332 332 332 331 331 330 329 327 323 320 322 324 324 325 325 323 322 315 310 310 311 315 319 320 323 326 326 326 325 328 334 329 330 332 335 331
342 339 334 332 332 331 332 333 333 332 330 328 326 323 320 318 320 318 319 318 322 323 320 312 310 310 310 310 312 314 319 321 325 327 327 330 330 334 331 329 330 331 330
342 340 337 334 333 332 333 334 332 329 326 323 321 318 316 312 313 313 315 316 318 321 320 316 316 316 316 315 316 318 321 322 325 328 330 330 333 332 329 329 327 327 328
342 339 338 334 334 333 334 333 330 326 322 319 317 313 309 310 310 312 314 318 321 323 320 320 315 314 315 316 318 321 323 324 325 328 330 331 331 329 332 324 325 325 327
341 340 339 335 334 334 334 331 325 321 319 317 314 311 311 310 311 314 319 321 323 324 323 320 315 313 312 313 316 319 321 323 325 326 329 330 330 328 326 325 328 328 326
341 341 337 335 334 335 332 326 322 319 318 316 315 313 310 310 315 318 319 320 321 321 319 317 316 315 314 312 311 312 314 320 322 323 327 329 330 331 330 325 324 324 325
340 340 338 335 335 336 330 326 321 319 318 317 317 313 313 317 318 318 318 318 318 317 317 316 316 315 315 315 314 313 312 313 316 319 322 326 327 328 329 324 321 319 318
341 340 339 335 334 334 329 325 321 320 318 317 314 315 318 319 319 318 318 317 317 317 316 315 315 315 316 315 315 314 314 314 315 314 314 318 313 323 327 326 319 316 314
340 339 338 337 335 332 329 323 320 319 318 317 318 319 319 319 319 319 319 319 318 317 317 315 314 314 314 314 314 313 312 313 317 316 315 315 311 319 323 323 319 314 313
340 339 337 336 334 333 330 322 319 318 319 319 320 321 321 321 320 320 321 319 318 318 317 316 315 315 312 311 312 311 313 316 317 317 316 316 314 314 321 323 320 314 313
337 337 337 334 333 331 328 325 320 319 322 323 322 323 325 326 326 325 319 318 317 317 317 316 316 312 313 314 313 312 315 315 316 316 316 316 315 315 315 315 316 316 318
337 338 334 333 332 329 325 325 326 326 328 329 329 329 328 329 328 326 320 317 317 316 316 315 311 312 313 314 314 313 313 313 314 314 315 314 313 314 319 319 318 317 317
337 332 332 331 328 325 325 325 326 329 330 330 331 330 331 330 329 326 322 321 320 318 317 315 314 313 313 312 311 310 310 310 310 310 311 310 309 310 314 319 320 320 320
329 327 326 326 326 326 325 326 328 329 330 330 331 331 330 329 328 323 321 320 318 317 315 314 313 313 311 310 310 309 309 309 309 308 309 307 302 302 308 315 316 317 317
325 325 324 324 325 325 327 328 329 330 330 331 330 329 327 326 324 321 319 317 316 315 314 314 313 311 310 310 309 309 308 308 308 308 308 308 306 302 303 308 310 310 311
325 326 326 325 325 326 328 329 329 328 327 326 326 325 324 324 322 319 317 315 314 314 313 312 310 310 310 309 309 309 309 308 308 307 307 307 307 305 304 304 305 306 306
326 327 327 327 326 327 328 327 324 323 322 322 324 324 323 320 317 317 316 315 312 311 308 308 309 309 310 309 309 308 307 307 306 306 306 306 306 306 304 303 302 302 303
327 328 328 327 327 326 321 321 321 320 320 321 323 320 318 314 314 313 313 310 307 308 309 309 309 309 307 307 305 304 304 303 303 305 305 305 304 304 303 302 300 300 300
328 329 328 328 326 321 321 318 321 322 321 319 317 313 311 311 309 309 310 309 308 308 309 307 306 304 303 304 303 301 301 301 300 303 304 304 303 302 301 301 299 298 298
329 329 329 328 325 324 323 319 321 318 316 313 312 311 310 310 310 309 309 309 308 307 305 303 302 302 301 301 301 300 301 300 301 303 303 301 301 301 300 299 299 299 298
329 329 329 327 325 325 321 318 316 314 312 310 311 311 310 309 308 309 308 307 305 304 303 302 301 301 301 301 301 300 300 301 304 303 301 300 300 298 299 298 298 297 297
329 329 329 327 327 325 323 320 318 316 316 314 310 309 308 308 308 307 306 305 303 303 303 302 301 300 299 299 300 300 301 300 300 301 298 298 298 298 297 296 296 296 297
329 329 328 328 326 323 320 318 317 316 313 311 310 309 308 307 306 306 305 303 303 302 301 301 300 299 299 298 298 299 301 300 298 297 297 296 296 295 295 295 295 295 296
329 328 328 324 320 319 318 318 317 316 316 314 312 309 308 306 305 304 303 303 303 302 302 300 298 299 298 298 297 297 297 296 298 297 295 294 294 294 293 293 293 293 294
321 323 324 321 318 316 316 315 316 315 313 311 309 308 307 306 305 304 304 303 303 302 301 300 299 299 297 296 296 295 295 294 293 294 295 293 292 292 292 291 290 291 292
317 318 319 316 315 314 314 314 314 312 311 309 307 306 304 303 304 304 304 303 303 302 301 300 299 298 297 296 294 294 293 293 293 293 293 292 291 291 290 290 290 290 290

GFSSE_925_thetae_033.txt.gz
Theta_e
340 336 329 331 333 331 330 331 331 330 331 331 331 330 328 327 327 323 322 323 325 325 323 318 311 310 312 313 314 318 320 324 326 325 327 333 335 334 329 329 334 332 330
339 336 329 330 331 331 331 332 332 331 331 330 326 324 324 324 319 318 319 321 322 322 322 320 319 316 315 317 319 320 321 323 326 326 331 332 331 330 328 328 327 330 327
340 337 335 330 331 332 333 333 332 331 327 324 321 322 319 316 316 315 314 315 319 322 324 324 316 316 316 319 320 322 323 322 328 330 329 333 332 328 328 324 324 326 329
340 338 337 332 332 333 334 332 330 325 324 322 321 318 313 312 313 313 317 321 322 326 325 320 313 312 314 316 319 321 323 324 326 327 329 329 331 326 329 330 329 325 330
339 339 338 333 333 334 334 330 327 325 322 321 318 313 312 312 314 319 321 323 325 326 324 318 314 312 311 311 312 315 320 321 324 326 328 329 329 329 330 324 327 327 325
340 340 336 334 334 335 332 328 325 321 321 318 314 313 314 316 320 321 323 324 324 320 316 315 314 314 313 313 312 311 313 315 318 322 325 328 328 330 331 322 319 318 318
340 340 336 334 335 334 330 326 322 321 319 316 315 314 318 319 319 319 318 317 317 316 316 315 315 315 315 314 313 312 313 317 316 315 318 323 323 327 328 327 319 316 314
338 337 338 335 334 332 327 324 321 319 317 317 314 318 319 318 318 317 317 317 316 316 315 314 314 314 314 313 312 312 315 317 319 318 316 318 313 323 324 324 320 316 313
337 337 337 336 334 331 328 323 320 318 318 317 318 319 319 319 318 318 317 318 317 317 316 315 315 313 312 312 312 313 316 317 318 318 318 319 314 317 323 324 323 318 317
337 338 336 336 334 334 331 323 319 319 319 320 320 320 319 319 319 320 323 318 318 317 317 316 315 311 314 315 314 314 316 317 317 317 319 317 314 316 323 323 318 316 318
338 335 335 332 332 331 329 321 321 320 320 321 322 322 325 326 326 327 320 317 316 317 316 316 313 311 315 315 314 313 315 315 315 315 317 315 312 316 320 320 320 320 319
338 334 333 332 331 328 324 325 325 326 327 328 328 327 329 328 329 326 319 317 316 316 317 315 313 315 316 315 315 314 314 314 313 313 314 312 309 310 318 320 320 319 319
337 330 331 331 329 324 324 325 326 329 329 329 330 331 329 328 329 328 323 322 322 319 320 317 317 316 316 315 314 313 313 313 313 312 312 310 308 304 314 318 318 318 316
331 330 329 328 326 325 324 325 328 329 330 330 330 331 330 329 328 326 322 321 321 319 318 317 317 316 315 314 313 313 312 312 312 311 311 310 309 307 309 313 313 313 313
328 325 325 325 326 327 327 329 330 331 332 332 332 331 328 328 326 325 322 320 319 318 317 317 316 314 313 314 313 312 312 311 311 311 310 309 308 307 305 309 310 310 309
325 325 325 325 327 329 330 331 331 331 331 330 329 328 322 320 320 323 321 319 318 317 315 312 312 313 313 313 312 311 310 309 308 308 308 308 307 307 305 304 304 306 306
326 327 326 328 329 331 331 327 325 324 322 320 322 323 323 322 323 319 318 316 314 311 311 313 312 312 312 310 309 308 306 304 305 304 306 307 307 307 304 304 302 302 302
328 328 328 329 330 329 325 321 319 318 321 321 322 322 321 318 317 317 315 313 311 312 312 312 311 309 308 307 306 306 303 302 303 303 303 305 305 305 304 303 301 300 301
330 330 330 330 329 325 321 321 321 318 319 320 319 318 316 314 313 312 313 312 312 312 311 309 308 307 306 305 303 303 302 302 303 302 303 305 304 303 303 302 301 300 300
329 332 331 330 327 323 322 323 320 320 319 316 315 315 313 313 314 313 313 313 311 310 309 307 306 304 303 302 302 302 302 302 302 303 305 304 303 302 301 301 300 299 299
331 332 331 330 328 325 325 324 322 321 317 316 314 314 314 313 312 312 312 311 309 308 307 306 304 302 302 301 301 301 301 301 301 303 302 303 301 300 300 299 299 298 298
332 331 330 330 328 327 326 324 322 319 318 317 315 314 313 312 312 310 310 309 308 306 304 303 303 302 301 300 300 300 302 300 300 300 300 299 299 298 298 297 297 297 296
331 330 330 329 328 327 325 322 320 320 318 316 314 313 312 311 310 308 308 306 305 304 302 303 302 301 300 300 299 299 300 300 299 298 298 297 297 296 296 295 295 294 295
330 330 330 329 327 325 321 320 319 318 317 317 315 314 312 310 308 307 306 305 304 304 303 303 301 301 300 299 298 298 297 297 298 297 296 296 295 295 294 294 294 293 292
330 329 328 326 323 321 320 319 319 318 318 316 314 313 311 310 308 306 305 305 304 303 303 302 302 301 299 299 298 297 296 296 295 296 296 295 294 293 293 292 292 292 292
327 327 326 321 320 319 318 318 318 317 315 313 311 309 306 305 304 304 304 304 303 302 302 302 301 299 299 299 298 296 295 295 295 294 295 294 294 293 292 292 292 291 291

GFSSE_925_thetae_036.txt.gz
Theta_e
336 334 340 341 339 337 332 332 331 331 332 332 331 326 323 323 321 320 320 320 320 324 325 325 323 320 315 316 316 318 320 324 325 327 333 332 332 329 327 329 332 328 328
336 333 339 339 335 331 331 331 331 332 331 327 324 323 321 318 318 317 317 318 324 326 325 324 322 319 319 320 320 320 321 327 329 330 332 332 331 327 325 323 325 326 327
336 334 333 333 332 332 332 332 331 329 325 323 322 318 316 315 316 316 318 320 325 325 323 321 318 315 316 319 320 323 324 325 327 326 332 331 330 329 329 327 324 329 330
337 335 333 332 332 333 333 331 328 324 323 324 315 314 314 315 318 320 321 324 324 325 323 319 311 311 311 311 315 320 320 323 325 328 330 330 331 330 326 328 327 325 329
337 337 332 332 333 333 332 328 323 324 323 318 315 314 314 318 321 321 323 324 323 323 321 315 312 312 312 311 312 314 315 316 322 329 327 327 328 331 328 320 319 319 321
338 338 332 333 334 333 330 326 323 322 318 314 312 312 316 320 321 321 322 319 318 316 314 313 313 313 313 312 313 314 317 318 316 325 324 318 324 329 329 325 318 315 313
340 336 333 333 334 332 327 324 321 319 316 312 311 314 318 318 319 319 317 316 315 315 315 314 314 313 312 312 314 316 317 319 319 320 318 310 316 325 325 325 319 315 313
338 334 333 334 334 330 325 323 321 319 316 312 313 318 317 317 317 316 316 315 315 314 314 314 312 312 312 313 314 316 316 317 318 320 319 315 313 320 324 325 321 319 315
335 333 333 334 331 328 323 321 321 319 314 313 318 318 317 317 316 316 315 316 316 316 315 315 312 313 315 315 314 315 316 316 317 318 319 315 311 315 324 324 323 319 321
331 330 333 333 331 326 322 320 319 318 315 318 318 318 318 317 318 324 321 316 316 316 316 315 312 313 315 315 314 314 315 314 314 314 317 314 312 309 320 322 323 324 323
330 332 332 334 330 323 320 320 318 317 320 320 319 320 323 325 326 325 317 316 316 316 316 315 313 315 316 316 315 314 314 313 314 313 314 312 310 309 316 321 322 322 321
332 330 331 333 330 326 322 320 320 319 323 324 322 328 329 329 327 323 317 316 317 317 319 317 316 316 316 315 314 314 313 313 313 312 313 312 310 309 311 317 318 318 318
330 332 333 330 329 324 321 325 326 327 329 329 329 329 329 328 329 328 323 323 323 320 321 318 318 317 316 315 313 313 313 312 312 312 312 311 310 308 308 314 314 314 313
331 331 331 328 325 324 326 326 327 330 329 330 330 330 326 329 328 325 323 322 321 319 318 318 317 315 314 314 314 313 312 312 311 310 311 310 308 308 307 309 311 311 311
330 329 328 326 325 324 325 330 330 329 332 330 331 331 329 328 326 325 323 321 319 318 318 316 314 313 314 313 312 311 310 309 307 306 308 308 308 307 306 306 308 308 307
327 327 326 326 326 326 330 330 329 329 330 330 329 329 325 321 321 323 322 319 319 317 313 312 313 313 312 310 309 308 308 306 303 304 304 305 307 307 305 304 305 304 304
325 325 325 327 329 331 330 328 328 326 322 320 324 323 323 322 323 320 319 318 317 315 312 313 312 310 309 308 307 306 305 304 302 303 304 302 306 306 305 303 302 302 302
326 326 328 330 332 329 326 325 321 319 321 321 322 323 323 321 320 319 317 316 312 312 313 312 309 308 307 306 304 303 303 303 302 303 303 303 305 305 304 304 302 301 301
328 328 329 331 329 326 321 319 320 320 320 320 320 321 319 318 316 314 313 313 313 312 311 309 308 306 304 303 302 302 302 302 303 302 303 303 305 303 303 302 301 300 300
330 330 330 331 328 323 320 322 322 320 319 320 318 317 314 313 314 314 314 313 311 310 309 308 306 304 303 302 302 301 301 302 301 302 303 304 303 301 301 300 299 299 297
332 332 331 330 328 323 325 325 324 322 319 317 316 315 315 315 314 313 313 311 310 308 307 306 305 304 303 302 301 300 301 300 299 300 299 298 299 300 299 298 297 296 296
333 332 331 329 328 326 327 326 324 321 319 317 316 316 314 313 313 312 311 309 308 306 305 304 303 303 302 301 300 301 299 299 300 299 298 297 298 296 296 296 295 296 295
334 332 331 330 328 327 327 324 321 319 319 317 315 314 313 313 312 310 309 307 306 305 304 303 303 303 302 301 301 300 299 298 298 298 297 296 296 295 295 295 293 293 293
333 331 331 330 329 329 325 322 320 320 319 317 315 314 313 311 310 309 308 306 305 305 304 304 303 303 302 301 300 299 299 298 296 295 296 296 295 294 294 293 293 293 292
331 330 330 329 329 327 322 320 320 320 318 317 315 314 313 312 310 308 306 306 306 305 304 303 303 303 302 301 299 299 298 297 296 295 294 294 294 294 294 293 292 292 292
330 330 331 329 325 322 321 320 320 319 317 315 313 312 310 307 305 305 304 303 302 302 302 301 300 301 301 300 299 299 298 297 296 295 293 294 293 293 293 292 291 291 291

GFSSE_925_thetae_039.txt.gz
Theta_e
341 342 342 341 338 336 331 332 331 332 331 328 321 318 316 314 315 316 320 324 325 327 327 324 317 317 317 317 318 323 327 328 331 330 330 332 333 328 325 325 325 327 328
336 341 341 339 337 332 332 332 332 331 325 321 319 316 314 314 315 317 321 322 324 325 323 317 315 317 318 320 322 322 319 320 329 331 330 326 333 332 327 324 328 329 328
340 341 340 338 332 332 332 332 330 324 320 318 316 315 313 315 317 319 319 319 320 322 319 313 310 310 313 316 317 316 318 320 323 330 330 330 328 329 329 326 325 329 327
341 340 338 333 332 332 333 330 324 320 316 314 313 314 316 320 320 321 319 319 322 323 322 318 312 312 312 314 315 318 320 328 329 330 329 328 327 329 324 319 318 320 324
338 336 332 332 333 333 330 325 321 317 314 314 313 318 325 326 325 320 318 320 323 323 320 314 312 312 314 314 316 318 318 329 327 325 316 312 320 329 328 319 315 313 313
335 332 332 333 333 330 326 323 318 314 315 314 315 318 323 320 319 316 314 314 314 314 313 312 312 313 314 316 316 318 318 318 322 312 311 312 318 325 325 324 316 315 313
335 333 333 333 332 329 323 321 316 315 313 313 316 318 317 317 316 314 313 313 313 313 312 312 312 314 315 315 315 316 316 317 319 317 315 312 316 321 324 324 320 317 316
333 333 333 332 329 323 321 319 315 312 311 315 317 315 314 314 314 314 313 313 314 314 313 311 314 315 314 314 315 315 315 314 320 318 315 313 313 317 320 324 323 320 320
333 332 330 329 327 323 321 317 313 311 312 317 316 314 314 314 314 314 314 314 314 314 314 312 313 315 315 314 314 314 315 314 315 317 313 311 312 319 320 321 323 323 323
331 327 323 329 326 324 321 315 313 311 317 316 316 315 314 315 316 316 314 315 315 315 315 313 313 316 316 315 314 314 314 313 313 314 313 311 311 317 319 318 321 322 321
331 326 328 328 323 320 320 316 313 317 317 316 317 319 320 324 325 315 314 314 315 316 316 316 315 316 316 315 314 313 313 312 312 312 312 311 310 315 317 317 317 317 317
329 331 329 327 321 320 319 315 317 320 318 322 326 325 326 326 327 320 317 317 318 319 318 317 317 316 315 314 313 313 313 312 311 311 310 311 309 313 314 315 314 314 313
322 328 329 327 321 317 316 317 320 322 322 323 328 328 329 326 323 326 321 322 321 320 319 318 316 315 314 314 313 313 311 310 309 307 309 310 308 310 313 313 312 311 311
329 330 330 328 322 319 320 323 328 327 329 329 330 330 328 329 328 327 324 323 320 320 317 316 315 313 314 313 311 309 308 308 306 305 305 307 307 307 311 311 310 309 307
329 330 331 328 323 325 326 327 328 330 330 330 330 330 330 329 324 322 321 319 318 318 317 316 313 313 312 311 310 308 306 305 304 303 304 304 305 306 308 309 307 306 305
330 329 325 325 324 326 328 329 329 329 328 330 331 330 328 325 322 322 322 319 317 316 315 313 312 311 309 308 307 306 304 304 303 302 303 303 303 306 305 304 305 304 304
328 327 325 324 325 329 329 329 328 328 329 329 322 322 324 322 322 322 320 317 316 313 312 312 310 309 308 306 304 302 303 302 301 303 302 303 304 306 305 304 303 303 302
326 324 325 325 331 329 328 327 327 325 321 320 320 322 323 322 322 320 319 315 312 313 312 311 309 308 305 302 302 302 301 301 302 301 301 302 304 305 304 304 301 302 301
325 325 326 329 331 329 328 326 324 319 319 320 321 322 322 319 318 316 314 313 312 311 310 309 308 305 303 302 301 300 300 300 300 300 300 300 299 301 301 300 298 298 298
325 326 329 331 330 328 327 322 319 320 320 319 319 318 317 314 314 314 313 312 311 309 309 307 306 304 303 302 301 300 300 299 300 299 298 298 298 298 297 297 297 296 296
326 328 330 330 327 324 320 322 322 320 319 317 316 314 315 314 314 314 312 311 310 308 306 304 304 303 303 301 300 301 299 299 298 298 297 297 297 296 295 295 295 295 294
328 331 331 330 326 321 321 324 323 320 317 317 315 315 315 313 313 313 311 309 307 306 304 303 303 303 303 301 300 299 296 298 298 297 297 296 295 295 294 294 293 293 293
329 331 330 330 328 324 325 326 324 320 318 316 316 315 314 313 312 311 309 308 307 305 304 304 303 303 302 302 301 300 296 295 296 297 296 295 295 295 294 293 293 292 292
331 331 330 330 328 326 327 325 321 319 318 316 316 314 313 312 310 309 308 307 306 305 305 304 304 303 303 302 301 300 299 298 294 294 295 294 294 294 293 293 293 292 291
332 331 330 330 328 326 327 323 319 319 318 316 315 314 312 312 310 309 308 306 305 303 302 302 301 300 301 301 300 299 299 298 297 293 292 293 294 294 293 293 292 290 290
332 331 330 329 328 328 328 321 320 320 315 315 314 313 312 311 309 305 303 302 302 301 300 299 299 299 299 300 300 299 298 297 296 295 292 292 292 293 292 292 291 290 291

GFSSE_925_thetae_042.txt.gz
Theta_e
344 343 340 337 337 332 331 332 331 330 322 316 314 311 310 311 315 320 323 325 327 326 325 324 322 322 318 316 317 318 329 330 330 326 327 334 333 331 325 328 328 328 329
345 342 340 338 335 331 332 332 330 323 318 314 311 310 310 315 319 322 323 323 323 322 321 319 315 315 316 318 321 319 319 330 330 327 323 327 330 330 326 325 328 327 329
343 342 340 337 332 332 333 331 325 320 316 313 311 311 313 318 322 319 319 320 320 321 318 313 313 315 316 320 328 324 322 330 329 328 325 322 324 325 322 318 321 327 330
342 341 339 334 331 332 333 328 323 323 317 313 317 315 319 322 322 317 316 317 319 318 315 314 315 315 316 317 328 329 330 329 328 319 319 319 321 324 320 316 318 318 317
341 340 336 332 332 334 331 325 322 315 312 314 321 325 326 325 320 315 314 314 314 315 313 314 315 315 316 315 316 320 325 323 314 316 316 316 321 325 322 316 314 313 314
339 338 334 333 333 332 327 320 315 313 313 318 323 324 327 321 314 313 313 313 312 312 313 314 314 315 315 315 314 317 319 314 316 314 312 312 318 324 324 321 321 318 314
338 334 332 333 332 326 322 316 313 313 314 316 316 316 317 313 312 312 312 312 312 312 313 315 315 315 315 315 314 313 317 319 316 314 313 314 319 323 323 323 320 323 323
334 332 332 330 325 322 317 313 313 312 314 315 315 315 313 312 312 312 312 313 312 311 313 315 315 315 315 314 314 314 313 316 316 312 312 317 319 322 322 322 322 322 322
332 332 328 325 322 319 315 313 311 311 316 315 313 312 312 312 312 312 313 313 314 313 312 315 316 315 315 315 314 314 312 312 313 312 311 312 317 320 320 320 321 321 321
325 324 325 324 322 319 319 313 310 315 315 313 312 312 312 312 313 313 314 314 314 314 312 316 316 315 315 314 314 313 312 312 311 311 311 311 315 318 318 317 317 317 316
323 323 322 323 321 324 319 313 314 317 315 314 314 314 316 317 314 313 313 314 316 315 315 315 316 315 314 313 313 312 312 311 311 309 309 310 312 315 316 316 315 314 313
325 322 321 324 326 322 317 314 317 317 316 318 320 321 325 323 317 314 315 316 317 317 315 316 315 314 314 313 313 311 310 309 308 306 308 309 312 314 315 314 313 312 311
325 324 329 325 325 321 316 316 318 317 321 323 323 325 326 326 319 317 317 317 319 318 317 316 314 314 313 312 310 309 308 307 306 304 305 307 307 311 313 313 311 310 308
327 330 328 326 322 316 315 319 318 319 323 327 327 326 327 326 324 319 321 320 319 319 315 314 314 313 312 311 310 308 305 304 304 302 303 304 305 309 312 311 309 307 307
323 327 329 325 319 316 317 320 322 323 325 327 330 330 329 328 327 324 322 320 318 315 314 314 313 312 312 310 307 304 303 303 303 302 303 302 304 308 311 309 307 306 306
325 328 330 324 319 318 320 324 327 327 329 330 330 329 328 325 323 320 319 316 314 315 314 314 312 310 308 306 304 301 303 302 301 301 301 301 305 306 308 307 305 305 305
328 330 330 323 321 324 325 327 328 330 331 330 329 329 327 324 322 320 317 316 314 313 313 312 310 309 307 305 301 301 301 300 301 300 301 301 305 306 305 304 304 304 303
328 328 329 325 323 326 327 329 330 329 329 328 321 322 325 322 321 320 318 316 314 313 312 311 309 308 305 302 301 301 300 299 299 299 299 300 304 305 304 299 301 301 301
328 326 325 325 328 330 330 329 328 326 322 320 320 321 322 322 321 319 316 313 313 312 310 309 307 305 303 302 301 300 299 299 298 298 297 298 297 299 298 297 296 296 297
328 325 325 328 329 328 327 326 323 319 319 319 321 322 321 319 316 315 313 312 310 309 308 306 304 303 303 302 301 300 300 299 297 298 297 296 296 295 295 294 294 295 295
324 324 326 329 328 327 326 323 320 319 319 319 319 320 317 314 314 313 312 310 309 308 306 304 303 303 302 301 300 300 299 298 298 298 297 296 296 295 295 294 293 293 292
325 325 327 329 328 327 326 323 320 320 319 318 316 314 314 314 314 313 311 310 308 307 305 304 303 303 302 301 301 298 296 298 298 298 296 296 296 295 294 293 293 292 291
327 327 328 329 329 328 324 321 322 322 318 316 314 314 314 313 313 312 311 309 308 306 305 304 303 303 302 302 301 300 296 295 295 297 297 295 295 295 294 293 293 293 292
328 328 328 329 328 325 321 321 323 321 316 316 315 315 313 313 312 312 309 307 306 305 304 304 303 302 301 302 301 300 299 298 295 293 295 296 295 294 294 293 293 292 290
328 328 328 329 328 327 323 324 324 320 318 316 315 314 313 312 311 309 308 306 305 304 302 301 300 299 299 300 300 300 299 298 298 294 291 293 295 295 293 293 293 292 290
328 329 329 329 329 327 324 326 324 321 318 316 315 313 312 311 310 308 306 305 303 301 299 298 297 297 296 296 298 299 299 297 296 295 292 293 292 293 293 293 292 291 290

GFSSE_925_thetae_045.txt.gz
Theta_e
343 342 339 336 332 328 329 330 327 320 315 312 310 309 309 311 312 316 321 324 325 326 326 325 324 324 319 320 328 330 328 325 323 325 331 331 330 330 330 330 329 330 331
343 341 338 336 331 329 330 329 323 316 312 312 312 312 312 313 319 320 321 322 323 324 325 325 325 327 323 319 321 330 329 325 320 321 321 327 327 326 324 321 327 330 330
344 341 339 334 330 331 331 327 318 314 314 317 321 317 317 319 317 318 320 322 323 324 324 323 325 328 326 321 328 329 328 320 319 319 318 319 324 325 323 320 320 322 327
343 341 339 333 332 332 330 322 316 318 320 318 318 317 318 323 317 316 317 320 320 322 323 322 316 322 326 327 329 328 323 314 313 316 318 320 322 324 322 320 321 321 319
342 340 337 335 335 332 326 322 319 317 316 318 321 323 318 321 314 315 314 314 315 317 321 322 315 315 317 320 324 319 314 314 315 315 318 323 324 325 324 321 317 320 321
341 339 336 334 334 330 324 321 314 313 315 319 323 323 318 317 313 313 312 313 314 314 314 316 314 314 313 316 315 315 316 314 313 314 317 321 323 324 324 324 324 324 324
340 337 333 333 333 327 319 316 315 317 319 323 323 316 312 312 313 312 312 313 314 314 315 315 314 314 314 314 313 316 316 313 312 311 314 318 322 322 323 323 323 323 323
338 334 332 332 327 323 316 313 317 320 325 326 321 313 312 313 312 312 311 312 314 315 315 315 315 315 314 314 313 312 313 312 311 311 312 318 320 320 321 320 320 320 320
334 333 332 325 321 320 316 314 316 319 320 319 314 312 312 312 312 313 312 312 312 314 315 315 315 315 314 314 313 312 311 311 310 309 311 315 319 319 318 318 317 317 317
327 326 322 320 320 318 318 313 314 315 315 316 313 312 312 313 313 313 314 314 312 314 315 315 315 315 314 313 312 312 311 311 309 308 310 313 316 318 317 316 315 314 314
325 324 321 320 321 321 313 311 313 316 315 314 313 313 313 314 314 314 314 314 314 315 316 316 315 314 313 313 312 310 309 308 307 306 310 310 314 316 316 315 314 312 312
321 321 318 317 316 314 313 312 318 318 315 314 313 314 316 314 314 314 315 315 314 315 316 315 315 314 314 312 310 308 307 306 305 304 308 308 311 314 314 314 312 310 309
322 321 320 317 321 325 318 316 319 317 316 316 318 323 321 316 315 315 316 317 316 315 316 314 314 313 312 311 309 306 304 304 303 302 304 306 307 311 314 312 311 309 308
322 320 326 321 323 323 319 316 318 317 318 320 321 325 326 320 317 317 317 318 319 317 315 314 313 312 311 308 307 304 303 303 302 302 302 303 304 309 312 311 308 308 307
323 323 327 325 326 324 317 317 318 319 321 322 324 326 327 325 323 319 320 320 318 315 314 313 312 311 308 306 304 301 302 302 301 300 300 302 304 310 311 309 307 308 306
326 327 328 325 325 320 318 318 318 320 322 327 329 329 328 327 326 323 321 320 316 314 313 312 311 309 308 305 301 300 301 300 300 300 300 301 305 309 309 307 306 306 305
325 329 327 328 324 321 317 319 320 323 327 329 329 328 327 326 325 321 319 315 314 314 312 310 309 308 306 303 301 300 299 299 299 299 301 302 306 308 305 304 304 304 303
324 326 328 330 324 320 318 320 323 327 330 330 329 327 325 323 321 319 316 314 313 312 311 310 309 307 304 302 301 300 299 299 298 298 298 301 305 305 301 299 298 299 299
325 327 328 329 324 319 320 325 327 330 330 329 326 325 324 321 319 317 315 313 312 311 310 309 307 304 303 302 301 300 300 298 298 297 297 297 298 300 297 296 295 296 298
326 328 329 329 324 323 325 327 329 328 326 322 320 320 322 320 317 315 314 313 312 310 309 306 305 303 302 302 300 300 300 298 297 297 297 296 296 296 295 294 294 294 295
328 325 328 328 325 325 328 327 325 323 320 319 320 321 320 318 316 314 313 311 310 309 307 306 303 302 302 301 300 301 299 298 297 298 297 296 297 295 294 294 293 293 292
327 325 326 326 327 328 329 327 324 321 319 319 319 320 318 315 314 313 312 310 309 308 307 304 303 303 302 301 301 298 295 297 297 297 297 297 295 294 294 293 292 292 292
325 325 325 326 328 328 327 325 321 319 319 318 317 316 313 314 314 313 312 310 309 307 305 304 303 303 302 302 301 301 296 295 295 298 296 296 294 295 294 293 293 293 292
324 325 325 326 328 327 327 323 321 320 318 317 316 314 314 313 312 312 311 309 307 305 304 304 303 301 300 300 300 300 299 298 294 294 296 295 296 296 294 295 293 292 291
324 324 324 325 326 326 326 323 321 321 321 321 317 314 314 312 312 310 309 307 305 304 303 300 299 298 298 298 299 299 298 298 297 294 292 294 295 295 296 294 293 292 291
324 325 325 325 326 326 326 323 321 322 322 318 315 314 313 312 310 308 307 305 303 300 298 297 296 296 295 295 296 296 298 298 296 294 290 292 292 294 294 294 292 291 290

GFSSE_925_thetae_048.txt.gz
Theta_e
343 341 338 336 334 331 329 326 322 317 315 314 313 315 324 325 323 322 322 324 325 326 327 320 322 326 328 330 326 323 319 318 321 327 328 327 327 327 326 327 328 329 330
342 340 338 336 335 330 327 322 317 316 316 316 315 319 322 322 319 321 323 325 325 327 329 323 321 321 327 328 326 320 316 315 317 319 323 326 326 325 324 318 320 327 329
342 339 338 336 332 330 325 318 314 312 315 316 315 321 319 317 319 322 324 324 324 327 333 332 324 320 329 328 326 316 316 316 317 318 319 322 324 324 324 324 324 324 323
341 339 337 335 333 329 322 315 312 312 321 315 321 319 315 316 320 322 324 324 322 323 327 329 328 328 328 327 319 316 316 318 320 322 323 323 324 324 324 324 324 324 323
341 339 336 335 333 327 318 314 312 314 314 314 319 324 321 320 322 321 324 324 322 320 319 317 320 326 327 318 315 314 314 315 315 316 320 323 324 324 324 324 324 324 324
341 339 335 335 331 323 316 313 314 320 319 324 323 323 324 323 321 320 323 323 319 316 314 314 316 318 314 316 315 314 312 312 312 314 317 321 322 323 323 323 323 323 323
340 338 336 334 328 322 318 314 313 317 325 327 326 324 323 319 317 316 316 317 315 314 314 314 314 314 313 315 316 314 312 311 311 314 319 319 321 321 321 320 320 321 321
338 336 336 332 326 318 312 314 314 323 327 325 323 322 318 316 314 314 314 314 314 315 314 314 314 314 313 312 312 311 310 310 309 311 315 319 319 319 318 317 317 317 317
335 334 331 326 319 319 317 315 320 326 327 322 318 317 314 312 312 313 314 314 315 315 314 314 314 314 313 312 311 311 310 309 308 310 313 317 318 317 317 316 315 315 315
323 325 321 317 322 319 317 316 323 324 323 318 314 314 312 312 311 311 312 314 315 315 315 314 314 313 313 312 311 310 309 308 307 308 311 314 316 316 315 314 314 313 313
320 317 318 320 316 317 316 322 320 320 320 313 313 313 313 313 313 313 312 314 315 315 315 314 314 313 312 310 309 308 308 305 305 308 309 312 314 316 315 313 312 311 310
321 320 318 315 314 311 311 313 321 319 314 313 313 314 314 314 314 314 313 314 315 315 315 315 314 313 311 309 308 306 304 304 303 304 305 307 310 315 314 313 311 310 309
321 320 319 320 316 313 320 321 319 315 314 314 314 315 315 315 315 315 314 314 315 316 315 314 313 312 311 311 307 303 303 303 302 302 302 303 306 312 313 311 310 309 308
319 318 318 318 317 315 322 316 317 315 315 316 317 319 315 315 315 316 316 316 316 315 314 313 312 311 311 307 303 301 301 301 300 300 300 302 305 310 313 310 309 308 307
322 320 319 317 317 320 316 313 319 316 317 317 322 325 322 316 316 317 317 318 317 314 314 312 311 310 308 304 301 300 300 299 299 299 299 302 307 310 312 309 308 307 306
321 322 321 317 321 326 322 314 318 318 318 320 322 325 325 323 319 319 318 318 315 313 312 312 310 308 307 303 300 299 299 298 299 299 300 303 306 310 309 307 306 306 306
322 322 325 327 324 324 321 315 318 319 321 324 326 327 328 326 325 320 320 317 314 313 312 310 309 308 305 302 300 300 299 299 299 300 302 306 308 307 305 305 305 304 302
324 325 327 327 324 323 322 317 319 319 322 326 329 328 327 327 325 323 319 315 313 312 311 310 309 306 304 301 300 300 300 298 298 298 300 305 306 303 301 299 298 297 298
324 326 328 327 327 324 321 318 320 321 326 328 327 326 325 324 323 319 316 314 313 311 311 309 307 305 302 301 301 300 299 297 297 297 297 297 297 299 299 297 295 295 297
323 324 326 327 329 325 321 320 321 323 328 328 327 326 325 323 319 316 315 314 313 311 309 307 306 303 302 301 300 300 300 297 297 297 297 296 297 296 295 295 294 294 294
323 324 326 327 328 325 320 322 325 328 328 325 322 321 321 320 318 316 315 314 312 310 308 306 304 302 302 301 300 300 299 298 297 297 296 296 297 296 295 294 294 294 293
325 324 326 327 328 326 321 323 326 327 325 321 320 320 320 320 317 315 314 312 309 308 307 305 303 302 302 301 300 298 296 297 297 297 297 296 297 294 294 293 292 292 292
326 325 327 328 328 327 323 324 325 324 321 319 319 319 319 317 315 313 312 310 309 307 305 303 303 303 302 301 301 300 296 296 295 297 297 296 295 294 296 294 293 293 292
327 326 327 327 327 327 324 324 325 324 319 318 318 318 317 314 313 312 311 309 307 305 304 303 303 301 300 299 299 300 299 298 295 295 296 296 294 295 296 295 295 293 292
325 326 327 326 325 324 325 326 325 322 319 319 318 316 314 313 313 312 309 306 305 304 303 301 298 297 296 296 297 298 298 298 297 294 293 295 296 296 296 295 295 292 291
324 325 325 325 325 325 324 324 325 323 320 319 317 314 313 313 310 309 307 306 304 302 299 298 300 297 295 295 295 295 296 297 296 295 291 291 292 294 293 293 294 291 290

GFSSE_925_thetae_051.txt.gz
Theta_e
342 341 336 332 330 329 330 331 330 328 326 322 316 314 316 318 321 320 321 322 323 328 331 333 335 334 331 325 318 318 321 324 327 327 328 327 326 325 324 325 329 331 331
341 341 336 336 329 328 327 325 322 319 316 314 314 313 320 323 322 320 320 321 323 326 327 331 334 333 330 319 314 314 314 314 315 318 324 325 326 326 325 321 322 324 327
340 340 337 337 336 328 323 318 314 313 317 322 316 322 323 323 322 322 324 328 334 333 332 331 334 331 321 314 314 315 315 316 316 315 321 321 323 325 325 325 325 325 324
340 339 338 337 335 331 321 317 321 329 328 322 322 323 324 324 323 322 327 332 333 330 328 332 333 327 315 315 315 315 316 317 317 321 322 322 323 325 325 325 324 325 325
339 339 337 335 333 323 318 321 327 326 323 323 324 324 325 324 323 321 324 325 324 328 333 332 327 321 315 315 314 314 314 315 317 321 321 322 322 324 324 324 324 324 324
339 338 335 334 326 321 323 323 321 320 321 323 322 325 326 326 324 320 318 319 319 321 327 326 322 315 315 314 312 312 312 313 318 319 319 321 321 322 321 322 323 322 322
339 337 335 330 322 319 324 316 313 317 320 322 323 325 325 325 323 319 315 314 314 316 317 316 316 317 315 314 312 311 310 310 316 317 318 320 320 319 318 318 319 319 319
338 337 334 328 325 326 322 322 316 318 321 320 324 324 323 321 318 316 315 314 314 314 314 314 313 314 313 311 310 309 308 308 314 316 317 318 319 318 317 317 317 317 316
336 336 332 330 327 327 320 325 324 324 320 321 324 318 317 316 315 315 315 314 314 314 314 314 312 311 311 311 310 309 308 307 311 314 316 316 317 316 315 315 315 314 314
328 331 325 321 317 314 317 325 328 322 321 321 318 315 314 314 314 314 314 314 314 314 314 313 313 313 312 311 310 309 307 306 310 312 313 315 317 316 314 313 313 312 311
322 322 319 315 314 315 317 326 326 323 320 317 315 312 312 313 313 315 317 315 314 314 314 313 313 312 311 310 309 306 304 305 308 310 311 313 316 316 314 312 311 311 311
318 318 319 320 320 317 317 322 321 322 316 314 313 312 312 312 312 313 315 315 314 314 313 312 311 311 311 308 306 304 302 303 303 306 308 309 313 315 313 312 311 310 309
318 317 315 315 314 313 314 314 317 319 314 313 313 313 314 314 314 312 315 315 315 314 312 312 312 311 309 307 304 302 302 301 301 301 302 303 309 315 313 311 310 309 308
319 318 318 313 312 316 316 317 320 318 315 314 314 314 314 315 315 313 314 315 314 314 313 313 311 309 306 304 302 300 299 299 300 299 300 302 305 312 313 310 310 308 307
318 319 317 315 315 315 313 319 318 314 314 314 315 315 315 315 315 315 315 314 314 313 313 312 310 308 306 303 301 300 299 298 299 299 300 303 306 312 312 309 310 307 307
318 319 318 317 318 319 324 318 319 316 314 315 318 320 316 315 315 316 317 316 314 313 313 312 309 308 306 303 300 299 299 299 299 300 305 307 306 311 309 308 308 307 306
320 320 318 318 318 317 325 319 318 316 316 317 322 324 325 320 316 317 317 316 314 313 312 310 309 308 305 301 300 299 299 298 299 299 302 306 308 309 306 306 306 303 303
322 321 322 322 320 321 325 321 316 317 317 319 320 322 324 325 324 318 318 317 315 312 311 310 309 306 303 302 301 300 299 298 298 299 303 306 305 305 304 302 300 298 297
321 322 323 325 325 324 325 322 316 318 318 321 325 326 326 326 325 323 319 317 313 311 311 310 307 305 303 302 301 301 300 299 297 297 297 298 299 299 298 298 295 295 296
322 323 325 327 327 326 324 322 318 319 319 322 325 325 326 325 324 322 318 315 312 311 310 308 306 303 302 302 301 301 300 298 297 298 297 296 297 297 295 295 296 296 294
323 324 325 327 327 328 325 322 320 321 321 324 326 324 323 323 321 319 316 314 312 311 310 307 305 303 303 302 302 302 301 299 298 298 297 296 297 297 295 295 295 295 294
323 324 324 326 327 327 326 321 321 320 321 325 325 324 322 320 320 317 315 314 312 310 307 305 304 303 302 301 303 302 303 301 299 298 297 296 297 296 294 295 294 293 293
324 324 324 325 326 327 325 321 320 322 324 324 322 320 319 318 318 317 314 313 311 308 306 304 303 303 304 301 301 301 302 301 299 299 298 297 297 296 295 296 294 293 293
327 325 324 325 325 326 326 322 321 323 323 322 320 319 319 317 317 315 313 311 309 307 306 304 303 303 301 301 299 299 300 300 299 299 298 298 297 296 296 296 295 294 293
328 326 325 324 325 326 326 324 322 323 323 321 321 319 317 316 314 313 311 310 307 306 305 304 302 299 300 298 298 299 299 298 298 299 298 297 297 297 296 296 295 293 292
328 327 326 325 325 325 325 324 324 322 322 321 319 317 315 315 313 312 310 308 307 306 304 300 299 301 296 295 296 297 297 297 297 297 297 297 297 296 295 294 293 293 291

GFSSE_925_thetae_054.txt.gz
Theta_e
343 341 337 341 342 342 341 338 337 336 331 328 326 324 322 318 317 321 327 330 334 335 337 335 331 330 329 326 319 318 319 322 325 325 328 328 327 327 327 326 328 331 332
343 340 335 339 341 341 340 338 337 331 328 325 324 321 316 316 319 323 327 330 334 335 336 334 330 328 324 317 315 315 316 317 321 323 323 324 327 327 327 326 325 326 327
343 340 336 338 339 339 338 335 330 327 324 326 319 317 316 320 323 325 327 330 333 335 336 334 329 327 321 316 316 317 316 316 320 321 322 322 324 326 326 326 326 326 326
342 341 337 334 332 331 330 327 325 325 326 323 322 319 320 323 324 330 329 329 331 334 335 333 327 321 316 315 314 314 314 318 321 322 322 322 323 324 325 325 326 326 325
342 340 338 334 330 327 323 320 322 323 323 323 321 321 322 323 328 331 331 331 331 334 333 331 320 315 314 313 313 313 314 319 320 321 321 322 322 323 324 324 324 323 322
341 339 337 334 329 323 319 322 325 326 326 323 323 323 324 325 326 328 330 333 333 332 332 321 315 314 313 312 312 312 314 318 318 319 321 321 320 320 321 320 320 320 320
339 338 336 333 328 328 329 330 328 325 325 324 325 326 323 322 322 321 325 328 330 329 320 315 315 314 313 312 311 309 310 316 317 318 319 320 319 319 318 318 319 318 318
338 337 334 330 324 330 330 329 328 326 324 326 326 323 321 319 318 318 320 321 321 317 316 316 315 313 311 310 309 308 309 314 315 316 318 318 318 317 317 317 316 316 316
336 336 331 321 327 328 327 326 326 329 327 326 325 320 319 317 315 315 314 315 315 314 314 314 312 311 310 309 308 307 306 310 314 315 317 317 317 316 315 315 314 314 314
335 332 330 329 327 326 326 326 323 327 328 325 321 319 318 317 315 314 314 314 314 313 313 312 311 311 310 309 307 305 307 310 312 313 315 316 317 315 314 313 313 313 313
326 326 326 324 322 317 315 321 326 324 325 322 318 316 317 320 319 318 318 314 314 313 313 313 312 312 310 308 305 304 307 308 310 311 312 316 317 315 313 312 312 312 311
320 321 321 317 314 319 321 318 320 320 324 320 317 317 319 320 320 321 316 314 313 314 313 312 311 311 311 310 308 306 306 306 306 306 309 313 316 315 313 312 311 310 310
318 317 317 316 318 317 319 318 317 319 321 319 315 320 320 320 320 320 318 317 315 313 312 311 312 312 310 309 308 307 305 304 304 304 303 303 314 315 313 311 310 310 309
318 317 317 318 316 316 316 313 311 317 321 318 316 322 321 319 319 320 319 319 317 316 314 313 312 310 309 308 307 306 304 304 304 303 304 302 309 315 313 312 310 308 307
318 317 316 316 315 317 317 316 317 321 314 319 321 321 320 321 320 319 320 318 317 315 314 313 311 310 309 308 306 305 304 304 305 305 307 303 306 314 312 310 310 308 307
318 317 313 316 317 317 316 317 319 320 321 321 320 321 321 321 321 320 319 318 316 315 314 313 312 311 309 308 306 304 304 303 305 306 307 308 307 313 311 309 309 308 307
318 317 314 315 318 319 319 321 322 320 320 320 321 325 322 319 321 320 319 316 315 315 314 312 311 310 309 307 305 304 303 303 304 305 305 307 308 311 309 307 307 305 304
320 319 318 318 320 321 324 323 322 321 320 320 324 324 321 323 321 320 319 319 317 315 313 311 311 312 310 308 306 304 303 302 302 302 305 306 306 306 306 306 304 301 298
322 321 320 320 320 323 325 325 322 323 322 321 324 325 325 327 325 321 320 319 316 314 311 310 312 312 309 307 305 305 304 303 302 300 302 304 303 301 300 300 298 296 296
323 321 320 322 323 325 326 326 323 321 322 324 326 325 325 326 326 324 322 320 314 312 310 311 311 310 309 307 304 305 306 304 302 301 301 300 300 300 299 298 299 299 296
323 324 324 324 325 327 326 325 323 321 322 324 326 327 325 325 324 324 322 318 314 312 312 310 311 310 308 307 308 309 307 305 303 301 301 300 300 300 299 298 298 298 297
323 324 324 325 326 327 326 325 323 321 322 324 325 323 323 322 321 321 320 317 315 314 310 309 310 310 309 307 309 308 311 308 304 302 301 301 300 300 299 298 297 297 297
324 325 326 327 328 329 327 326 323 323 324 324 324 324 324 321 319 318 318 317 316 312 309 310 311 310 310 307 306 307 310 310 306 304 302 301 300 300 299 298 298 298 297
325 324 325 325 327 329 329 326 323 322 322 323 324 323 321 320 318 318 317 316 314 311 311 311 310 309 309 307 306 304 303 303 306 306 303 301 301 300 299 299 299 298 297
327 326 326 326 326 328 329 329 326 323 322 325 326 324 321 319 319 316 315 314 312 313 312 310 309 308 305 304 303 300 303 303 302 302 302 300 299 299 299 299 298 297 296
332 331 330 328 327 328 328 329 329 327 326 327 325 324 323 321 318 315 312 312 311 311 311 310 308 304 303 301 298 299 303 302 301 299 300 299 299 298 298 297 296 295 295

GFSSE_925_thetae_057.txt.gz
Theta_e
345 341 340 344 344 342 340 340 339 334 330 327 326 324 322 323 326 329 330 335 336 335 335 333 332 331 330 328 322 320 319 321 320 321 327 328 328 328 326 327 328 331 332
344 340 340 343 343 342 341 339 336 333 329 327 324 319 319 323 328 330 334 335 335 335 332 330 329 328 325 314 313 313 320 322 324 325 324 326 327 327 327 325 326 327 329
343 341 341 342 342 341 340 338 336 331 327 324 318 318 321 325 328 332 334 335 334 334 330 329 328 325 317 316 315 316 320 321 322 323 323 323 325 326 327 328 327 326 326
343 340 340 341 342 341 339 337 333 329 325 319 316 321 324 325 326 330 333 334 334 333 330 328 328 324 316 315 314 318 320 321 322 323 323 323 323 326 326 325 326 327 326
343 338 340 340 340 339 337 334 330 327 319 318 324 325 324 330 328 329 333 334 334 332 329 328 324 315 314 313 313 317 319 320 321 322 323 322 321 322 323 322 322 322 322
343 338 337 338 338 336 333 331 329 323 319 321 326 324 328 333 333 333 332 334 333 331 328 323 314 313 313 312 311 315 317 318 320 322 321 320 319 320 320 320 320 319 320
341 339 337 335 334 333 332 332 328 322 322 326 327 325 329 332 332 332 333 333 330 326 319 314 313 312 312 309 308 310 316 317 319 320 320 319 318 318 318 318 318 318 317
340 338 335 332 331 330 330 330 329 326 327 328 325 326 328 329 333 333 332 330 323 316 315 314 313 311 309 309 307 309 314 315 317 320 319 318 317 317 317 316 316 316 316
337 335 333 329 328 329 329 328 328 329 330 329 325 324 323 324 327 328 327 323 316 316 315 313 311 310 309 308 306 305 313 315 317 318 319 317 316 316 315 315 315 314 314
334 332 329 325 328 327 327 326 325 326 329 328 323 321 319 319 320 320 318 316 316 315 313 311 311 310 309 307 305 309 310 312 314 315 318 317 316 315 314 314 314 313 313
329 327 326 326 324 321 320 322 322 325 327 325 321 319 318 316 316 319 318 314 314 313 312 312 312 311 309 306 306 307 309 310 311 313 315 317 316 314 314 313 312 312 312
323 325 326 324 325 324 326 323 321 322 324 324 320 321 320 320 320 321 316 314 313 313 313 313 313 313 313 312 310 309 309 308 308 309 313 317 317 315 313 312 311 311 311
322 323 320 318 317 315 315 314 315 319 323 320 320 321 320 321 322 320 318 316 313 313 312 312 314 315 314 313 311 309 308 307 307 307 304 313 317 315 313 312 311 310 310
319 317 317 318 319 322 322 321 322 322 322 320 321 321 322 322 322 321 318 318 317 317 315 317 316 315 313 311 310 309 307 307 307 307 305 303 315 316 314 312 310 309 308
318 318 318 319 319 316 313 313 312 316 315 314 319 322 320 321 322 320 320 320 319 319 318 317 316 314 313 311 310 308 307 307 308 308 311 300 307 315 313 313 311 309 308
317 317 316 316 316 315 314 314 316 317 317 319 321 322 321 322 321 321 322 321 320 319 318 317 317 315 314 312 309 307 306 306 307 308 310 307 307 315 312 310 311 309 308
317 315 316 315 316 316 317 316 315 319 321 321 321 321 322 323 324 322 321 321 320 319 318 317 316 315 314 311 309 307 306 306 306 307 307 310 307 312 311 309 309 307 305
318 316 315 316 316 316 316 315 320 321 319 317 319 323 324 323 323 322 322 321 320 319 318 317 316 316 315 312 310 308 307 306 305 305 307 308 308 309 307 308 307 306 302
320 318 317 318 319 319 318 319 322 322 321 320 321 325 327 324 324 323 322 322 321 320 318 315 316 316 315 312 310 309 309 307 306 304 304 307 306 303 303 303 300 299 299
320 318 320 320 319 321 323 323 322 322 323 320 321 325 327 328 329 325 324 324 322 319 316 315 316 314 315 312 308 308 310 309 307 306 305 304 303 303 302 302 301 300 299
322 322 322 321 322 322 322 322 322 321 321 322 322 326 329 327 328 328 327 325 322 318 317 315 314 313 312 311 311 312 312 311 309 306 305 304 303 303 302 302 301 300 299
324 322 322 321 321 322 321 321 321 321 320 322 323 325 328 328 327 327 327 325 322 319 317 315 313 313 313 312 312 312 314 313 308 307 305 305 304 303 303 301 300 300 299
325 324 323 324 324 324 324 323 323 321 320 321 323 325 327 325 324 324 324 323 321 319 318 315 314 312 313 312 311 312 314 314 310 309 307 305 305 304 303 302 300 300 300
325 326 325 325 325 326 327 326 325 323 322 321 324 325 326 323 322 322 322 321 321 320 317 314 312 313 314 313 311 310 307 306 308 310 308 306 304 303 303 302 301 301 300
327 326 326 327 327 328 328 327 326 325 323 323 324 325 326 323 322 323 320 320 320 318 314 313 313 314 313 312 308 305 304 306 307 307 308 305 303 302 301 301 301 300 299
328 328 327 327 327 327 327 329 328 327 326 323 324 329 326 324 322 322 321 320 319 315 312 313 314 313 310 306 305 302 301 305 306 305 305 303 302 302 301 300 300 298 298

GFSSE_925_thetae_063.txt.gz
Theta_e
343 342 344 341 339 332 330 331 330 328 327 324 322 321 322 324 330 332 332 332 332 332 331 329 328 326 329 329 329 327 324 323 324 327 328 328 327 328 328 328 328 329 330
342 343 342 342 339 336 333 332 329 328 325 323 321 321 324 331 334 333 332 331 331 330 329 326 323 324 324 326 326 326 327 326 324 322 325 327 328 328 328 327 325 326 327
335 336 338 342 339 339 337 334 330 327 325 322 319 321 327 334 334 333 331 330 330 329 328 326 323 322 321 321 322 323 326 327 326 324 324 323 324 326 327 326 325 325 326
329 327 327 331 339 339 339 334 330 327 325 321 319 326 334 335 333 331 328 329 329 329 327 323 317 317 320 321 320 320 322 324 322 321 321 322 322 323 324 323 323 323 323
329 330 330 335 340 338 336 333 329 326 322 319 321 334 334 334 332 328 328 328 328 328 324 314 314 317 320 320 318 318 321 321 320 319 319 320 320 321 321 320 321 321 322
326 338 339 339 340 339 338 334 330 324 318 319 323 334 334 333 331 327 327 327 325 324 315 313 312 317 318 318 316 322 321 321 316 314 318 319 319 319 319 319 319 319 319
341 341 339 340 341 339 336 334 328 322 321 323 327 334 333 333 331 327 324 322 316 314 313 311 308 310 316 316 315 320 319 319 315 314 318 318 318 318 318 317 317 317 317
339 339 338 339 340 338 336 333 327 326 326 327 329 333 333 333 330 326 321 316 314 313 311 309 307 306 314 315 316 317 319 319 317 313 317 317 318 317 316 316 316 316 316
334 333 332 324 328 327 334 331 330 329 328 330 329 331 333 333 331 324 318 315 314 312 309 308 306 304 312 315 315 313 318 318 317 312 316 316 317 316 316 315 315 315 314
331 329 328 329 327 323 324 322 323 324 329 331 331 332 333 333 330 321 316 314 312 310 309 308 306 309 312 312 312 311 319 318 317 313 312 316 316 315 315 314 314 314 313
330 328 328 327 325 324 323 321 320 324 330 329 331 331 332 331 326 318 315 314 311 311 311 309 309 309 309 309 310 309 315 316 315 311 312 315 316 315 314 314 313 313 312
329 328 326 326 325 323 320 320 319 323 326 329 329 329 329 328 320 316 315 312 313 314 313 312 312 312 311 310 309 308 310 311 311 308 311 315 315 314 313 313 312 312 311
327 328 326 324 322 321 320 319 318 317 320 325 325 325 325 321 317 315 314 313 313 314 314 314 315 312 311 310 308 307 307 308 307 307 310 315 315 314 313 312 311 311 311
323 323 324 323 320 320 319 318 316 318 322 321 320 321 319 317 316 315 313 313 314 314 316 316 315 314 312 310 307 307 307 307 307 307 307 313 316 315 313 312 311 310 309
320 320 321 322 320 318 317 317 321 321 321 321 320 322 320 314 314 314 314 314 315 315 316 317 316 314 311 309 308 307 307 308 309 309 306 305 316 315 314 313 311 310 309
319 318 320 320 321 320 319 319 316 319 321 322 320 320 322 320 315 315 315 315 316 317 317 317 317 314 312 312 308 307 307 307 308 310 308 306 312 314 314 313 312 311 310
318 318 317 319 319 318 316 318 320 321 319 318 317 321 322 321 318 317 320 319 319 319 318 318 316 315 313 312 310 307 306 307 307 308 309 308 305 307 311 311 312 311 309
318 318 317 317 316 316 316 318 319 317 315 317 315 320 320 320 320 321 323 322 321 319 319 318 317 315 314 312 310 307 307 306 306 306 308 309 309 307 312 311 308 308 307
318 318 318 317 316 315 314 316 314 314 313 314 319 321 319 321 322 321 322 322 322 320 319 318 317 316 315 314 310 308 307 307 306 306 307 308 308 308 309 310 309 306 303
317 317 317 318 317 316 316 315 314 312 313 314 317 321 320 319 322 323 322 323 322 320 319 319 317 317 316 316 312 311 309 309 307 307 305 305 306 305 303 303 303 302 301
315 317 316 316 316 316 316 314 314 315 316 315 318 319 321 322 322 323 322 323 322 322 320 319 319 317 316 316 314 310 309 310 309 307 307 306 305 304 303 303 303 302 301
316 317 317 316 315 315 315 314 314 316 318 316 317 320 321 324 324 324 322 323 323 323 321 320 319 317 316 316 312 311 311 311 310 309 308 307 305 304 303 303 303 302 301
318 318 318 316 315 315 314 314 317 318 321 322 322 321 321 321 323 324 324 322 323 324 322 321 320 316 316 315 313 312 311 311 309 310 310 308 306 305 305 304 303 303 301
318 318 318 319 318 316 317 317 319 321 321 321 319 320 320 323 324 326 325 324 323 324 324 323 319 317 316 314 314 312 309 307 306 306 309 309 308 306 305 304 304 303 302
319 319 319 319 320 318 320 322 322 322 321 321 320 321 322 323 324 325 325 326 325 325 324 322 319 317 316 315 314 312 309 309 308 306 306 307 307 306 306 305 305 303 302
319 320 321 321 320 319 320 322 323 322 322 321 321 320 321 322 324 325 325 325 325 323 322 322 320 319 316 316 314 313 310 306 305 304 304 304 303 305 303 302 302 302 302

GFSSE_925_thetae_066.txt.gz
Theta_e
344 344 339 331 327 332 332 331 329 328 325 324 325 329 335 335 334 333 331 332 332 332 330 330 331 331 331 330 329 327 327 327 327 327 327 328 328 328 328 328 328 329 329
343 343 340 336 330 332 332 330 328 327 325 323 325 332 335 332 331 331 330 330 329 328 328 331 331 331 330 330 326 323 322 325 326 327 328 329 328 328 327 326 326 326 328
343 343 341 338 332 335 335 329 328 325 323 323 326 333 332 329 329 328 328 328 327 327 328 330 329 329 329 328 329 328 325 323 322 323 324 324 325 325 325 325 325 325 325
341 340 342 340 334 333 336 330 327 324 321 322 329 333 331 329 327 325 324 324 324 325 327 329 328 324 320 322 323 326 324 321 320 321 322 322 322 323 323 323 323 324 324
334 333 338 341 334 335 332 334 328 326 325 331 334 334 332 329 324 322 321 320 321 323 326 327 322 318 315 320 322 323 321 319 316 318 318 320 321 321 321 321 321 322 322
332 332 330 330 335 334 330 330 332 323 322 332 334 334 332 327 322 321 321 321 322 322 321 319 318 315 319 320 320 319 316 313 313 316 319 319 320 320 319 319 320 319 319
332 337 337 334 332 335 337 334 327 322 324 334 334 334 331 324 322 322 322 318 315 313 313 317 317 315 321 320 320 318 313 308 311 316 318 318 319 318 318 318 318 318 317
337 338 335 333 325 323 337 333 325 317 318 333 334 333 330 326 324 321 316 314 313 309 308 311 315 313 313 320 319 318 316 309 311 316 317 318 318 317 317 317 316 316 315
337 334 333 326 327 322 320 334 330 323 330 333 333 332 330 326 323 318 314 313 309 308 306 306 312 313 310 315 319 318 317 314 310 315 317 317 317 317 316 316 315 315 314
331 329 328 326 325 322 321 324 326 324 329 332 331 332 329 325 321 315 313 310 309 308 306 306 312 311 310 310 318 319 317 314 310 312 316 317 316 316 315 315 314 314 313
328 328 327 327 327 323 322 321 321 324 328 331 332 332 329 324 317 314 312 310 309 308 307 310 310 310 309 308 316 318 317 313 310 311 315 316 316 315 314 314 313 313 312
328 326 326 326 324 323 323 321 317 318 325 329 330 330 329 320 315 313 311 311 310 310 310 310 310 309 309 308 311 315 313 311 309 311 314 315 315 315 314 313 313 311 311
328 326 324 323 324 323 321 320 322 321 322 324 327 329 327 317 315 313 311 314 312 313 313 314 313 311 309 307 307 310 310 309 308 310 313 315 315 314 314 313 312 311 309
327 326 324 323 322 322 322 321 319 326 327 328 327 327 322 316 315 312 313 314 314 315 315 315 314 312 309 308 307 307 308 307 307 308 312 314 315 315 314 313 312 311 309
323 323 323 322 321 321 320 322 325 326 327 327 326 325 318 315 314 313 313 315 315 316 316 316 314 311 309 307 307 307 307 307 307 309 308 311 314 315 314 313 312 310 309
320 322 321 321 320 319 318 319 320 321 322 322 321 319 316 315 314 313 314 315 315 316 317 317 316 314 311 309 307 307 307 308 309 308 308 307 311 314 314 313 312 311 310
319 319 319 320 319 319 319 316 321 322 320 321 320 316 315 314 314 315 314 315 316 316 317 317 316 314 313 311 308 306 307 307 308 309 309 307 313 314 314 314 313 312 311
318 319 320 319 319 318 319 321 321 322 321 321 322 321 320 317 315 315 316 317 317 319 317 317 317 315 314 312 310 307 307 307 307 307 308 307 308 313 312 311 311 310 308
317 318 318 318 318 318 318 319 321 318 317 320 320 321 321 320 319 319 321 322 320 320 318 318 317 316 314 313 311 308 307 307 307 306 307 308 308 309 310 310 309 308 306
318 318 317 316 317 318 318 316 319 317 318 317 315 315 318 319 321 322 322 322 322 321 319 318 318 316 316 315 313 309 308 307 307 307 306 307 307 308 307 308 308 305 302
318 317 317 316 315 316 317 318 316 315 314 314 317 319 321 320 321 323 321 321 321 321 320 319 318 317 317 316 315 309 308 308 308 307 306 305 305 306 306 305 303 303 302
317 317 316 316 315 315 316 315 315 314 313 314 315 318 319 320 320 321 322 322 322 322 321 320 319 318 317 316 314 311 309 309 309 307 306 306 306 305 304 303 303 303 302
315 316 316 317 316 315 315 315 314 313 313 313 313 313 315 320 321 322 322 322 321 323 322 321 320 319 318 316 315 312 311 312 309 310 308 307 308 307 305 304 303 302 302
315 316 316 316 316 316 316 315 314 314 315 315 315 315 315 319 322 322 322 323 322 322 323 323 322 320 319 316 314 313 311 308 307 309 309 309 309 308 306 305 304 303 303
315 316 317 316 315 315 316 315 314 315 316 318 319 317 316 318 321 322 323 323 323 324 323 323 323 320 320 316 315 312 310 309 309 307 308 308 307 308 307 306 306 305 303
317 317 317 316 315 315 315 314 314 316 319 320 320 320 321 320 319 320 323 324 325 325 324 324 324 322 320 317 315 315 312 310 307 307 305 306 304 306 306 304 303 303 302

GFSSE_925_thetae_069.txt.gz
Theta_e
343 343 337 331 326 331 334 334 335 326 334 335 333 330 335 335 334 334 334 334 332 332 332 332 331 330 330 330 331 329 326 326 326 327 328 328 329 328 328 329 329 331 331
345 341 334 332 333 331 332 330 328 326 324 325 326 332 335 333 333 332 332 330 330 331 331 331 331 330 329 328 328 328 328 327 327 328 328 327 326 326 327 326 328 329 329
343 342 338 329 328 330 331 330 331 329 329 329 332 334 333 333 330 329 329 329 331 331 331 332 330 331 329 328 323 323 324 325 325 324 324 323 325 326 326 324 324 325 327
344 342 339 333 329 327 328 330 328 335 335 336 335 334 333 332 331 329 327 329 330 331 331 330 329 330 329 328 324 321 321 321 323 322 322 322 323 324 324 324 323 323 323
342 343 341 337 330 328 329 330 328 330 334 334 334 333 332 331 328 326 326 329 330 330 329 326 322 322 323 327 325 321 319 319 319 320 320 321 320 322 322 322 321 320 320
339 340 341 339 335 334 330 329 329 327 335 333 332 332 331 329 326 322 323 327 329 329 326 320 316 322 324 324 321 318 315 315 317 318 320 320 320 320 322 320 319 318 317
337 334 331 331 332 329 330 333 330 327 334 333 332 332 330 330 324 322 323 325 327 325 319 317 319 321 320 318 312 310 312 315 317 318 318 318 319 319 319 318 317 316 316
335 333 334 329 326 323 323 327 331 326 334 335 332 331 329 328 324 321 320 319 320 317 314 318 321 320 319 317 313 309 310 313 316 317 317 317 318 319 318 316 316 315 314
331 331 330 325 325 325 325 323 332 326 324 334 331 329 328 326 322 317 314 312 313 313 313 312 319 320 319 318 315 313 310 311 314 316 317 317 317 317 316 315 315 314 313
327 326 325 327 324 324 324 321 328 324 334 334 331 329 327 324 318 314 310 308 307 309 312 309 310 316 319 319 317 315 310 310 313 316 317 317 317 317 316 315 314 313 312
328 327 327 327 325 324 322 322 324 327 334 333 330 328 325 320 314 310 308 306 305 309 309 309 309 312 317 318 317 314 311 309 311 315 316 316 316 316 315 314 313 312 311
327 327 327 327 324 324 321 321 321 323 326 329 329 326 321 316 312 309 308 306 309 309 309 309 309 310 314 318 317 313 309 309 310 313 315 316 316 315 315 314 313 312 311
326 326 325 324 322 322 322 321 318 319 323 325 327 323 318 314 310 309 308 307 308 309 310 310 309 308 309 313 315 312 309 309 310 312 315 315 316 315 314 314 311 311 310
326 325 324 323 322 324 321 319 321 324 324 325 325 321 316 313 310 310 309 310 311 312 312 311 310 308 307 310 310 310 309 309 310 312 314 315 315 315 314 313 312 310 309
325 325 324 323 323 322 320 320 321 323 324 324 323 322 315 313 311 313 312 313 314 315 314 313 312 308 308 307 307 308 308 308 310 311 313 314 315 315 314 313 312 310 309
323 324 322 323 322 321 321 320 320 321 324 325 325 322 315 314 312 314 313 315 315 316 316 315 314 310 307 306 306 307 307 308 309 310 312 314 314 314 314 313 312 311 310
321 322 321 322 322 321 320 320 324 325 324 325 324 319 315 314 313 314 314 315 316 317 317 316 314 311 311 307 307 307 307 308 309 308 310 312 313 313 313 314 313 312 311
320 320 320 320 320 320 320 322 323 323 323 324 321 319 315 314 313 314 314 314 315 317 317 316 315 313 313 310 308 306 307 307 307 308 308 308 308 311 313 314 313 313 312
319 319 319 320 320 319 320 319 322 322 322 322 321 317 315 314 314 314 314 315 317 318 317 317 316 316 314 312 310 307 306 307 307 307 307 308 308 308 312 313 312 310 308
319 318 319 319 319 319 318 317 321 321 321 319 317 316 315 315 314 315 316 318 318 318 318 318 317 317 316 313 311 309 307 306 306 307 307 307 308 307 309 311 310 309 308
318 318 318 318 318 318 318 320 319 319 320 322 322 321 321 319 319 319 321 322 321 320 319 319 317 317 316 314 313 310 309 307 306 306 306 306 307 307 308 308 308 307 306
318 317 317 316 317 317 318 319 318 318 317 317 318 320 320 320 320 321 321 322 321 321 320 319 318 317 316 316 315 310 307 308 307 306 306 306 306 306 306 306 306 304 303
317 317 317 316 316 316 316 316 317 316 316 316 315 316 319 320 320 320 322 322 321 321 321 320 319 318 318 317 315 314 311 311 309 309 308 306 305 304 305 305 305 304 303
316 316 316 316 315 316 316 316 316 316 314 314 314 314 317 318 318 319 320 321 322 321 321 322 321 320 318 317 315 313 312 312 309 310 309 308 306 305 306 304 304 303 303
315 316 317 316 315 314 315 315 316 315 314 313 313 314 314 315 315 316 321 322 322 322 322 322 322 322 320 318 317 314 311 311 309 309 310 309 310 310 310 308 306 305 304
315 315 316 316 316 315 315 314 314 315 314 314 314 314 314 314 314 315 317 320 322 323 323 323 322 322 322 319 318 317 315 311 309 309 307 308 308 308 306 306 305 305 305

GFSSE_925_thetae_072.txt.gz
Theta_e
339 343 338 337 335 332 330 331 337 337 337 334 332 332 329 335 336 336 335 335 336 336 336 334 333 333 333 332 331 328 328 328 328 328 328 330 330 332 331 330 330 331 331
343 343 339 334 334 334 331 329 333 337 336 334 334 332 336 335 335 336 335 334 333 333 332 331 330 331 332 331 329 327 326 326 326 326 326 327 328 328 330 329 328 328 329
344 342 338 331 326 331 331 329 337 339 336 337 334 335 335 335 335 334 333 333 332 332 331 330 329 328 328 329 328 327 326 325 324 324 325 325 325 327 328 327 326 325 325
343 340 337 333 332 333 330 327 328 335 335 336 335 334 334 333 333 331 332 331 330 330 330 329 330 329 327 323 323 325 325 323 321 322 322 323 324 327 324 322 323 322 321
342 340 336 336 336 336 334 330 330 325 326 327 329 332 332 331 331 332 331 329 330 331 333 333 333 328 322 320 319 321 322 321 321 322 321 322 322 323 323 322 320 319 318
339 341 339 335 334 333 333 335 333 337 334 334 332 331 330 330 330 331 330 329 329 329 329 330 330 329 325 320 319 319 319 319 318 318 319 320 321 322 320 318 318 317 318
338 337 332 334 332 332 332 330 330 334 334 333 333 332 329 329 330 331 330 329 328 325 325 328 326 326 323 318 314 314 316 317 318 319 319 320 320 320 318 317 316 316 315
338 335 331 333 331 330 329 327 326 331 331 329 330 330 329 328 328 330 330 327 322 318 321 322 323 321 314 309 311 314 316 317 317 318 319 319 318 318 318 316 315 314 314
334 334 331 330 331 328 327 326 326 330 328 327 331 330 329 327 328 328 327 322 316 319 320 321 319 315 310 310 310 312 314 315 316 317 318 318 318 317 316 315 315 314 313
331 331 329 328 326 327 327 325 324 329 330 324 327 330 328 326 325 324 322 314 315 320 320 320 318 317 313 312 310 312 313 315 316 317 317 318 318 317 316 315 314 313 313
326 326 326 327 327 325 324 324 322 328 327 326 330 328 327 323 321 317 315 313 311 315 320 320 318 317 316 313 311 309 312 315 316 316 317 318 318 317 315 314 313 312 312
327 327 328 328 327 325 323 327 328 330 327 324 326 325 322 316 314 309 309 312 310 310 312 318 318 317 316 314 311 309 310 313 315 316 316 317 317 316 315 313 312 311 310
327 327 327 326 324 322 322 326 327 328 325 327 321 323 315 315 310 307 309 309 309 309 310 314 317 317 316 313 311 309 309 311 313 315 316 316 316 316 314 313 312 311 310
326 326 325 324 323 322 321 322 324 327 327 322 320 321 315 311 308 307 308 309 310 309 309 310 311 314 315 312 310 308 309 309 312 314 315 315 316 316 315 313 312 311 310
325 325 324 323 321 322 320 320 323 325 325 323 323 319 313 309 308 306 308 310 310 309 309 308 309 310 312 311 309 308 308 309 311 313 315 315 315 315 315 314 312 310 309
325 324 323 322 323 322 320 320 321 323 324 323 322 316 311 310 308 308 310 312 312 311 311 309 309 308 310 309 308 308 308 309 310 311 314 314 314 315 315 314 313 311 310
324 323 323 322 322 321 320 320 322 324 324 324 322 316 311 311 310 313 312 314 314 314 312 313 308 307 306 307 307 307 307 308 309 310 312 313 314 313 313 314 314 312 311
320 322 322 322 322 321 320 320 322 323 324 323 323 316 312 316 316 313 313 316 316 315 314 314 310 308 307 307 306 307 307 308 309 309 310 311 312 313 313 313 313 313 313
319 320 320 321 321 321 320 320 321 322 323 323 319 318 315 315 313 314 315 316 316 316 316 316 313 312 310 307 307 306 307 307 307 308 309 310 311 311 312 313 313 313 312
318 320 320 320 320 320 320 321 322 323 323 323 317 316 315 313 313 313 314 314 315 316 317 317 315 314 314 313 310 307 306 306 307 307 307 307 308 309 310 311 312 312 311
318 319 319 319 320 320 320 320 321 322 321 321 321 317 315 314 315 314 314 315 315 317 318 317 316 315 316 314 312 310 309 307 306 306 306 306 307 307 307 308 310 310 310
317 318 318 319 319 319 319 318 319 321 320 318 318 316 315 314 314 314 315 318 318 319 319 317 317 317 316 315 313 311 309 310 309 307 306 306 306 307 307 307 308 309 308
317 318 318 318 318 319 318 318 319 320 319 321 320 319 318 317 316 316 319 320 321 322 321 320 318 317 317 316 315 314 311 310 309 309 307 306 305 305 306 307 307 308 308
317 317 317 317 317 317 318 318 316 316 317 317 320 318 317 320 319 319 319 320 321 321 321 320 319 319 318 317 315 314 313 312 312 312 309 309 308 306 305 305 306 306 306
316 316 316 316 317 316 316 319 318 317 316 316 315 316 317 317 317 317 318 319 320 320 322 322 321 320 319 318 317 315 312 311 311 311 313 311 309 308 306 305 306 311 307
314 316 316 316 316 316 316 316 318 317 317 315 314 314 314 314 315 316 317 316 317 320 321 322 322 322 321 321 319 317 317 314 310 309 309 309 309 310 308 309 309 306 305

GFSSE_925_thetae_075.txt.gz
Theta_e
342 342 336 336 338 335 335 341 339 337 336 333 333 332 325 327 333 334 334 335 336 337 337 334 334 335 335 334 333 331 330 330 330 332 332 333 333 332 332 331 332 332 331
341 343 337 334 337 337 341 342 339 338 335 333 333 329 331 334 335 334 335 336 336 336 336 335 333 333 332 331 329 329 328 328 328 328 329 331 331 331 330 329 329 329 328
342 341 340 337 335 335 336 337 337 338 335 334 334 331 334 335 335 335 336 336 335 334 334 333 332 332 330 329 326 326 325 325 325 326 327 328 330 329 328 326 326 326 325
344 342 340 336 336 333 336 338 339 338 335 332 330 334 335 335 335 334 334 333 332 331 330 330 329 330 330 328 327 325 324 324 324 325 326 327 327 327 326 324 323 323 322
342 341 338 335 332 333 334 339 341 340 336 333 331 335 335 335 334 333 332 331 331 330 329 329 329 328 327 326 325 323 322 323 323 323 325 325 324 323 322 320 320 319 320
340 340 336 336 335 333 332 335 336 339 338 335 334 335 334 332 332 331 331 330 329 329 331 330 327 323 320 323 323 321 321 321 321 321 322 322 321 321 319 318 318 317 318
337 339 336 336 334 333 332 332 333 334 335 336 335 334 332 331 330 329 329 330 332 333 332 329 326 321 319 318 320 320 320 320 320 320 322 320 319 319 317 319 316 317 316
335 334 336 335 331 326 327 331 331 332 328 327 333 332 330 330 329 328 329 329 328 328 328 329 324 319 316 315 316 317 317 318 319 320 320 319 319 319 318 315 316 316 315
332 332 333 333 329 327 329 330 329 327 333 329 330 332 330 329 328 329 329 327 325 327 328 326 322 312 311 313 315 316 316 318 319 319 317 318 318 318 317 316 315 314 314
329 329 329 329 330 330 329 328 327 327 330 332 330 331 329 330 329 329 328 323 324 324 323 321 312 309 310 313 315 316 316 317 318 318 318 317 318 317 317 316 315 314 313
328 327 328 326 326 326 327 327 328 324 328 330 333 330 329 330 329 328 324 318 321 322 320 315 311 312 311 312 313 314 315 317 317 318 318 318 318 317 316 315 314 313 313
326 326 326 326 326 326 325 323 324 324 329 330 330 328 328 327 327 325 317 320 322 320 318 315 314 312 315 316 316 314 316 317 317 318 318 318 318 317 315 314 313 312 312
327 327 328 328 328 327 325 325 327 323 328 329 328 327 325 324 321 317 314 319 322 320 320 317 315 317 316 315 315 315 316 316 317 317 317 317 317 316 315 314 312 311 311
328 328 328 326 325 324 322 326 327 327 327 326 324 324 322 318 316 314 311 312 319 322 321 318 317 315 311 308 310 309 315 316 316 316 317 317 316 316 315 314 313 311 310
327 327 326 325 323 323 321 326 326 324 325 324 323 321 316 311 311 313 311 310 311 315 318 317 317 314 311 308 308 309 314 315 316 316 316 316 316 316 315 314 313 311 310
325 326 325 324 322 322 321 324 325 323 322 319 321 317 312 308 307 309 309 309 310 312 314 314 315 314 314 309 308 311 312 314 315 316 316 316 315 316 316 314 313 312 310
324 325 325 323 322 321 320 322 324 324 320 319 320 315 309 307 306 309 310 309 309 309 310 310 312 314 310 310 309 309 312 313 314 315 316 315 315 315 315 315 314 313 311
321 323 322 323 322 321 320 321 323 324 321 320 320 313 308 307 308 309 311 310 310 309 309 308 312 310 308 308 311 312 312 312 314 314 315 315 315 315 314 314 314 313 313
319 321 322 322 321 321 320 320 323 323 322 321 317 311 309 307 308 311 313 313 313 312 311 307 307 307 306 307 308 307 308 309 310 312 312 313 314 315 315 314 313 313 313
319 320 321 321 321 320 320 320 322 323 323 322 317 312 309 310 312 313 315 316 316 316 313 309 308 308 308 307 307 306 307 307 308 308 309 310 311 313 314 314 314 314 312
318 319 320 320 320 320 320 321 322 322 322 321 317 314 316 315 313 316 317 316 316 316 316 313 312 312 311 309 310 309 307 306 306 306 307 307 307 309 311 311 312 314 314
318 318 319 320 320 320 320 321 320 321 321 321 318 316 314 315 315 316 315 314 315 315 316 315 315 314 315 313 314 314 317 314 309 307 306 306 306 306 307 308 309 312 311
317 317 318 319 319 319 319 319 319 320 320 320 318 317 315 313 315 315 314 314 314 315 316 317 317 317 317 316 314 317 315 318 312 310 310 308 306 305 306 307 307 308 310
318 318 319 318 319 319 319 318 319 318 318 319 317 317 316 314 314 314 314 314 316 319 319 320 320 319 317 317 314 315 315 315 319 318 312 310 309 313 306 305 306 307 307
317 318 318 318 318 318 319 319 319 319 318 319 318 318 315 315 315 315 315 316 318 317 319 320 321 320 318 317 316 317 314 312 312 315 319 318 311 311 311 310 306 308 304
316 318 317 318 318 317 318 318 318 318 319 317 316 316 316 317 316 317 317 316 319 319 319 320 320 321 320 319 319 317 317 318 316 314 316 315 313 312 311 310 309 305 308

GFSSE_925_thetae_078.txt.gz
Theta_e
344 343 337 339 338 338 344 340 339 332 332 334 337 338 330 334 334 334 335 335 336 336 337 338 337 337 336 336 335 334 333 333 333 334 334 334 334 334 333 332 332 333 332
344 343 339 338 338 336 343 343 338 334 334 336 338 335 328 336 335 333 334 336 336 336 337 337 336 336 335 334 331 330 330 331 332 332 332 333 333 332 331 329 329 329 328
344 343 342 337 338 335 343 343 339 338 338 338 335 330 327 333 334 335 335 336 336 336 337 336 335 334 332 330 328 328 328 329 328 330 331 331 331 330 328 327 327 327 327
344 344 342 338 337 337 341 343 341 341 338 336 332 328 335 334 334 335 335 336 335 335 335 334 333 332 330 327 325 326 326 327 327 328 329 329 328 327 326 326 325 324 324
342 346 342 337 336 334 336 342 342 341 340 338 332 331 334 335 334 336 336 335 333 333 334 333 330 329 327 325 325 324 324 325 326 326 326 326 325 324 323 322 322 321 321
339 343 342 337 335 333 330 334 336 340 339 336 335 336 336 335 335 335 334 332 330 330 329 330 329 328 326 324 323 324 323 323 324 325 324 322 322 322 321 320 320 319 319
339 340 338 336 333 332 331 332 333 336 337 336 336 337 335 335 334 333 331 330 329 328 329 328 327 326 325 324 321 323 321 322 322 323 321 320 320 321 319 319 318 318 318
338 338 337 334 333 331 327 330 333 334 334 335 334 335 335 334 333 332 329 329 329 329 326 326 323 321 322 321 319 320 319 320 322 321 320 320 319 320 319 318 317 317 317
335 335 336 336 334 334 333 333 333 334 334 334 332 333 332 333 332 330 329 330 330 328 327 322 319 318 317 318 318 318 319 321 321 320 319 319 320 318 318 317 316 316 316
332 332 334 335 333 331 331 330 331 332 332 329 326 325 330 331 330 331 332 331 330 330 328 321 315 313 314 315 316 317 319 319 319 319 319 318 319 318 317 317 316 315 315
329 329 330 331 331 330 329 328 326 327 329 329 328 327 329 330 329 330 329 327 327 327 324 316 311 312 314 316 316 316 318 318 319 319 318 318 319 318 317 316 315 315 315
327 328 328 329 329 328 328 328 329 329 329 329 329 327 328 329 329 329 325 327 325 323 318 310 311 312 315 316 316 316 318 319 319 319 319 318 318 318 317 316 315 314 313
331 327 327 327 327 328 327 326 326 326 326 327 329 328 326 327 327 327 326 327 325 320 317 316 315 317 316 316 315 317 318 319 319 319 318 317 318 317 316 315 314 313 312
332 331 328 327 325 325 325 325 326 327 327 327 328 326 326 325 325 326 327 325 323 321 320 319 318 318 318 317 317 317 318 318 319 318 318 317 317 317 316 314 313 312 311
331 331 330 328 327 327 326 326 327 327 327 327 324 325 325 322 320 322 325 326 324 323 322 321 320 318 317 316 317 317 317 318 318 318 318 317 317 317 316 315 313 312 311
329 328 329 325 324 324 325 325 325 325 323 324 323 323 323 321 317 317 320 323 324 324 323 321 319 316 315 315 316 316 317 318 318 318 318 317 316 316 316 316 314 312 311
327 327 326 326 323 322 323 324 324 323 321 320 320 320 317 314 315 314 315 315 318 321 320 319 318 316 315 314 315 316 316 317 318 319 318 317 316 316 316 315 314 313 311
325 326 325 325 323 323 322 323 323 323 322 321 320 317 315 314 313 312 311 311 313 315 317 318 317 316 315 314 314 315 315 316 317 317 318 317 317 316 316 315 314 314 312
323 325 325 323 323 322 322 322 323 320 320 320 315 312 310 310 310 310 310 310 311 312 312 315 315 314 314 313 314 314 314 315 316 316 316 317 317 317 316 315 314 314 313
322 323 325 322 322 321 321 322 322 320 318 319 316 312 309 311 310 310 312 314 313 312 312 312 312 312 312 312 311 312 313 313 314 315 315 315 316 316 316 316 315 314 314
321 322 323 322 321 321 321 322 322 321 318 318 315 314 310 312 312 315 317 316 315 315 315 313 313 314 313 312 311 312 312 312 312 312 313 313 314 315 316 316 316 315 315
321 322 322 320 320 321 323 323 322 320 320 317 314 311 310 311 309 313 316 316 317 318 318 315 316 317 318 314 316 318 319 315 312 311 311 311 310 311 311 313 314 313 313
321 321 321 321 320 320 322 322 321 321 321 317 314 311 309 310 312 314 316 316 316 316 318 316 316 317 319 316 315 319 320 321 317 315 312 310 310 309 307 309 311 312 310
322 320 320 321 320 320 321 322 321 322 321 320 315 315 315 315 315 316 316 315 314 318 319 320 319 318 320 320 317 317 319 319 321 323 317 314 310 309 306 308 308 309 308
322 319 321 322 321 320 320 321 321 321 321 320 318 316 314 314 315 316 315 315 317 320 320 321 321 320 321 321 321 321 318 316 316 317 323 321 316 314 313 311 310 309 307
323 321 321 321 321 322 320 320 321 320 320 320 319 318 317 314 314 315 315 315 315 317 320 322 323 323 323 322 321 321 319 319 320 321 322 322 321 316 315 313 314 312 308

GFSSE_925_thetae_081.txt.gz
Theta_e
345 344 338 338 339 345 345 342 341 335 334 334 336 334 330 336 336 336 335 335 336 336 337 338 339 338 337 337 334 333 333 334 334 334 334 335 335 335 334 332 332 333 332
345 346 337 337 337 339 344 343 339 335 333 335 336 334 329 335 335 336 336 336 336 337 338 338 337 336 337 335 333 333 333 333 333 333 332 334 334 332 331 330 330 331 329
346 346 343 337 338 337 344 344 339 335 339 337 336 334 330 335 336 336 336 337 336 338 338 337 336 336 334 332 331 331 331 330 331 331 331 332 331 331 330 328 328 327 328
346 345 345 339 336 337 339 344 341 338 341 340 336 333 333 336 335 336 336 336 335 337 337 336 336 334 332 329 329 329 329 330 330 330 330 330 329 329 328 327 327 327 326
345 346 344 342 335 336 337 343 342 339 340 339 336 332 336 335 336 337 336 335 335 336 336 335 334 331 328 328 328 328 326 329 329 328 328 328 327 327 326 325 324 324 323
342 346 344 342 334 335 337 338 340 338 337 339 337 334 335 336 336 336 336 335 334 334 334 333 331 328 326 325 325 325 326 326 327 326 325 324 325 324 323 322 322 322 321
342 343 344 341 336 335 334 335 336 334 330 337 335 335 335 337 337 336 335 334 333 333 332 330 329 326 324 324 323 324 324 324 325 323 322 322 322 322 321 320 320 319 319
340 342 342 340 337 332 333 330 328 328 324 335 334 333 335 337 336 335 333 331 330 330 329 328 327 325 324 323 322 322 322 323 322 322 322 322 321 321 320 319 319 318 318
338 340 340 339 337 334 330 328 326 329 327 333 333 332 333 333 335 333 330 330 330 328 326 326 324 324 322 322 321 321 322 322 321 322 320 320 320 320 319 318 318 317 317
335 336 340 337 335 332 330 327 328 330 332 333 333 333 331 333 333 330 330 330 328 326 323 319 321 322 319 319 318 320 321 321 321 321 320 319 320 319 318 318 317 316 316
331 332 334 334 335 333 331 330 330 331 332 333 332 332 329 330 330 330 330 330 328 325 320 317 318 317 317 318 317 320 320 320 320 320 319 319 319 318 318 317 317 316 315
333 330 331 331 332 331 332 332 331 332 333 332 330 329 330 329 329 330 330 331 329 324 317 313 312 313 316 317 317 319 321 320 320 320 319 319 319 318 317 317 316 315 314
333 332 329 330 331 332 330 331 331 331 332 332 332 329 327 327 327 326 330 330 328 322 318 316 313 316 317 316 318 320 320 321 320 320 319 318 319 318 317 316 315 315 313
333 332 329 328 329 331 330 329 331 330 331 331 330 330 329 327 324 327 328 327 326 319 318 316 317 318 318 317 319 320 320 320 320 319 318 318 317 318 316 315 314 313 313
332 333 331 330 328 327 328 328 327 331 331 330 328 328 327 326 326 325 323 326 323 321 320 318 320 319 319 318 319 319 320 320 320 319 318 317 317 317 316 315 314 313 312
331 331 331 330 329 328 328 329 327 327 328 329 328 327 327 324 325 320 322 324 323 322 321 320 321 319 319 318 319 319 319 320 320 320 318 317 317 316 317 315 314 313 312
330 329 329 329 325 327 326 325 326 326 324 326 325 324 323 322 323 323 323 324 325 323 322 322 320 317 317 318 318 319 319 320 320 320 319 318 317 317 316 316 315 314 312
329 328 329 328 327 326 325 324 324 322 321 320 319 319 321 320 321 323 322 323 324 324 322 320 318 317 316 317 317 318 319 319 320 320 319 319 318 317 316 315 315 314 313
328 326 327 328 326 326 325 324 322 321 320 320 321 320 316 316 317 317 318 319 321 321 320 320 318 317 317 316 317 317 318 318 319 319 319 319 319 318 318 316 314 314 313
328 326 326 326 324 323 322 323 322 320 318 317 316 314 314 313 313 315 315 315 316 317 316 317 316 316 316 316 315 316 317 317 318 318 318 318 319 318 318 318 315 315 314
327 325 326 324 323 322 322 322 321 319 318 316 314 314 314 315 314 314 314 313 313 313 314 315 315 315 315 314 314 314 315 315 316 317 318 318 317 318 318 318 317 316 315
326 325 325 325 323 321 322 322 320 320 317 315 314 312 313 313 313 314 314 316 314 314 314 315 315 316 316 316 316 317 318 316 315 315 315 315 316 316 317 317 317 317 317
327 325 324 324 323 323 322 322 320 318 318 316 314 311 312 313 314 315 318 316 313 318 319 319 319 320 321 318 319 321 324 325 321 316 314 314 314 314 314 314 314 314 316
327 324 323 323 323 323 323 322 320 318 317 317 315 314 314 313 315 316 317 316 318 321 320 320 321 320 320 321 315 317 321 322 322 322 318 316 314 312 312 311 309 311 313
327 325 323 323 322 322 322 322 321 320 318 318 316 314 314 313 314 315 315 318 318 318 321 320 318 320 319 321 321 320 320 321 321 321 321 321 318 315 314 311 309 311 312
328 325 323 324 323 322 323 323 323 321 321 319 317 316 315 313 314 316 316 316 315 318 320 320 320 321 321 322 321 321 322 321 321 320 320 321 322 320 318 315 314 313 312

GFSSE_925_thetae_084.txt.gz
Theta_e
347 342 337 335 340 344 341 342 335 333 332 332 334 331 326 328 330 330 331 333 335 335 337 338 337 338 338 334 332 332 334 334 334 335 335 336 336 335 333 331 331 331 331
346 343 339 335 337 343 344 342 339 335 334 334 335 329 328 332 332 334 335 335 335 337 339 338 338 337 338 334 332 332 332 332 333 333 333 334 334 334 332 330 330 329 329
348 345 339 336 335 339 344 344 342 338 338 339 336 330 332 335 335 335 335 335 336 337 338 338 338 337 336 332 332 332 332 331 331 332 331 331 331 332 331 329 327 327 326
348 347 345 338 337 336 342 344 342 340 339 339 335 331 334 335 335 336 336 336 337 336 338 337 336 336 333 331 331 330 330 330 330 330 330 330 330 330 328 327 327 326 325
346 346 346 344 336 336 337 343 343 339 339 338 334 333 335 335 335 335 336 336 336 336 337 336 335 332 330 329 329 330 330 329 329 329 329 327 327 328 327 326 325 324 323
344 347 345 343 338 334 337 341 342 340 339 339 335 332 336 335 335 335 335 334 336 335 336 334 332 329 328 328 328 329 329 328 327 326 325 325 325 326 325 324 323 322 321
344 345 345 342 339 335 337 338 337 336 333 331 334 332 335 336 335 334 334 334 334 335 334 332 329 328 328 326 326 327 327 326 325 324 324 323 323 323 322 322 321 321 320
341 344 344 343 339 336 337 337 335 331 327 326 326 332 333 336 335 335 334 333 333 333 331 330 327 325 324 324 325 324 324 324 322 323 322 321 321 321 320 320 320 319 318
338 341 339 341 339 336 332 332 330 328 327 324 326 325 334 335 335 335 334 333 333 331 329 326 324 323 321 324 323 323 323 322 322 322 320 320 321 320 320 319 318 318 318
336 338 339 339 339 335 332 331 328 327 327 327 326 329 334 331 333 334 332 331 330 329 326 325 324 322 320 321 322 322 321 322 321 321 320 319 319 319 319 318 318 317 317
331 332 336 337 335 334 333 331 329 325 329 325 326 333 332 331 333 331 331 330 328 326 324 324 324 321 320 320 321 321 321 321 321 320 319 318 319 319 318 317 317 317 316
333 330 332 335 336 333 331 330 329 328 329 329 325 331 331 330 330 329 330 329 326 322 322 322 321 317 317 316 321 320 321 321 320 319 318 319 319 318 318 317 316 316 316
333 332 330 332 333 333 333 332 332 332 331 332 331 331 329 329 327 328 327 328 325 320 320 318 316 316 313 318 319 320 321 321 320 319 319 318 319 318 318 317 316 315 314
334 332 331 330 331 332 331 330 331 331 331 332 331 330 329 328 327 325 326 328 324 320 316 313 313 318 315 318 320 322 321 321 319 318 318 318 318 318 317 316 316 314 313
333 333 331 330 330 330 330 329 330 330 330 330 331 330 328 328 327 325 326 327 323 317 317 310 318 317 315 317 320 320 321 320 319 317 318 317 317 318 317 316 315 314 313
332 334 332 331 330 329 328 328 329 329 330 331 330 331 329 327 327 325 327 324 321 317 313 317 320 318 318 318 320 320 321 320 319 317 317 317 316 317 316 316 315 314 313
331 334 332 330 329 328 329 328 328 327 328 329 329 330 329 328 326 326 325 323 322 320 316 320 320 320 319 319 319 319 320 321 319 319 317 317 316 316 316 315 315 314 313
331 332 331 329 327 327 325 325 324 325 325 325 326 328 328 326 325 324 323 320 324 323 320 321 320 318 319 319 319 319 320 321 321 319 318 317 317 316 316 315 315 314 313
330 329 330 327 327 326 325 324 323 322 321 322 325 326 325 324 321 320 320 322 324 323 322 319 317 318 317 318 318 319 320 320 321 319 319 318 317 317 315 315 314 314 313
329 328 329 327 326 326 325 323 320 320 318 318 317 317 319 321 319 319 322 322 322 322 321 319 318 317 317 317 318 318 319 320 320 320 321 319 318 318 317 316 314 314 313
329 327 327 327 326 324 323 322 320 319 318 318 319 321 321 320 319 320 319 321 321 320 319 318 316 316 316 316 316 317 317 318 318 318 319 319 319 318 319 318 317 315 314
329 327 327 326 325 323 323 322 320 319 318 317 317 315 315 316 317 315 315 318 318 318 317 316 315 316 315 316 317 316 316 316 316 317 318 318 318 318 318 318 318 318 316
329 327 326 325 323 322 323 322 320 318 316 314 314 316 316 315 314 315 315 315 315 314 313 314 314 315 316 315 316 318 319 319 316 316 316 316 317 317 316 317 318 318 317
329 327 325 324 323 323 323 321 319 317 316 314 313 314 314 314 315 314 314 313 316 315 315 314 316 315 319 317 316 319 321 321 320 319 316 314 314 314 315 316 316 316 317
330 327 325 323 323 323 323 321 319 318 315 315 313 312 313 314 315 315 316 315 316 318 317 317 318 319 321 320 318 317 317 321 321 321 319 319 318 316 314 313 313 313 312
330 327 324 323 323 323 323 321 320 318 316 315 313 312 313 315 316 314 317 318 316 318 319 319 320 320 320 320 321 320 320 320 322 320 319 320 320 319 319 318 315 315 314

GFSSE_925_thetae_087.txt.gz
Theta_e
342 338 336 340 338 335 335 334 333 331 330 332 332 333 332 334 334 333 333 334 333 335 338 339 337 340 341 336 333 335 335 335 334 335 336 335 336 334 332 331 332 331 331
343 339 335 339 342 340 337 335 334 333 331 333 333 330 329 331 330 328 327 328 330 334 338 339 336 339 339 333 333 334 334 334 334 335 334 335 334 332 330 329 328 328 328
344 340 337 336 339 343 342 340 336 334 333 332 332 327 327 329 330 332 331 330 335 336 338 338 336 337 337 332 332 333 332 333 333 333 332 332 331 331 330 327 327 327 327
346 344 339 336 336 340 343 342 340 335 336 334 332 326 330 330 333 333 332 333 336 337 338 338 336 337 333 331 331 331 331 330 330 330 331 331 331 330 329 327 326 326 325
346 345 345 341 336 335 338 342 342 340 339 336 334 329 331 332 333 334 335 335 335 336 338 336 337 333 331 330 330 330 330 329 329 328 328 328 329 329 328 326 324 324 323
345 346 345 343 338 336 335 337 342 340 338 336 334 332 335 334 334 335 334 334 335 336 336 335 333 330 329 329 329 330 329 328 328 326 326 326 327 327 325 324 323 322 321
344 345 344 341 336 335 336 337 340 341 339 333 332 332 334 334 335 336 334 334 335 335 334 333 330 328 329 329 329 328 327 326 324 325 324 324 325 325 323 322 321 320 321
343 343 344 342 338 336 336 339 338 340 337 334 328 328 326 334 334 335 334 334 334 335 333 330 329 328 329 329 329 327 324 325 324 323 322 322 323 323 321 320 320 320 319
340 341 339 339 339 337 337 336 337 336 335 330 328 326 325 326 334 335 333 333 334 333 330 328 328 327 326 327 324 323 323 323 322 321 320 320 321 321 320 319 319 319 319
338 337 336 338 337 336 333 333 333 329 328 325 324 325 324 325 332 333 333 333 333 331 327 327 325 325 325 323 322 322 322 322 321 319 319 319 319 319 319 319 318 318 318
329 334 336 338 336 336 333 331 330 327 326 325 326 327 326 327 333 332 331 333 332 329 324 324 322 323 323 322 321 322 320 321 320 318 319 319 319 319 319 318 318 318 317
331 331 333 335 335 334 333 331 329 329 326 329 327 330 329 332 330 329 329 331 330 327 323 323 321 322 321 322 321 321 320 320 320 318 318 319 319 319 319 318 318 317 316
332 331 331 335 334 333 332 330 329 329 327 329 326 327 330 330 330 327 328 329 327 325 324 323 320 320 320 320 320 320 320 320 318 317 318 318 319 319 318 318 317 316 315
332 331 330 333 332 333 332 331 331 331 330 331 328 330 328 330 330 329 328 327 325 322 322 322 318 318 317 320 320 320 320 319 317 317 318 318 318 318 318 317 316 315 315
332 331 331 330 332 332 331 331 331 331 331 331 331 329 329 329 327 328 327 327 323 319 319 317 315 313 318 319 320 321 320 319 317 317 318 317 318 318 318 317 316 315 314
333 332 330 330 330 331 330 329 329 330 330 331 331 331 328 329 327 326 327 326 322 314 315 314 316 314 319 319 321 321 320 319 317 317 317 317 317 317 317 317 316 315 314
332 332 331 330 329 329 328 329 329 329 329 330 330 330 329 328 327 324 327 326 321 311 310 317 318 313 316 318 320 321 320 319 317 316 317 317 316 316 316 316 316 315 314
332 333 331 331 328 328 329 329 328 327 327 329 330 330 329 328 326 325 327 325 319 311 311 318 318 317 317 319 320 320 319 318 317 315 316 315 315 315 315 315 315 315 314
331 333 331 329 327 326 327 325 324 323 324 324 325 330 330 328 327 326 326 322 319 312 316 320 320 319 319 319 319 320 320 319 318 317 315 316 315 315 315 314 314 314 313
330 332 330 328 326 327 325 323 322 323 323 323 324 326 327 328 327 325 324 323 320 316 317 320 319 319 319 319 319 320 320 320 319 318 318 316 315 315 315 315 314 314 312
329 330 328 327 326 325 323 322 319 319 319 319 320 324 326 326 325 322 322 322 322 321 320 319 318 318 319 318 319 319 319 320 320 319 319 318 317 317 316 315 315 314 313
328 329 327 326 326 324 322 321 320 318 317 317 317 319 321 321 321 321 321 320 321 321 319 317 317 316 318 317 317 317 315 317 319 319 320 319 319 318 317 318 317 316 315
327 327 327 326 324 323 322 320 319 318 317 317 316 318 319 320 320 319 322 322 320 318 318 317 316 316 316 316 317 316 315 315 315 317 318 318 319 319 319 318 318 318 317
326 327 326 325 324 322 321 320 318 317 317 316 316 317 318 319 320 321 321 320 319 319 317 316 316 314 315 315 317 318 316 317 315 316 315 316 318 318 317 317 317 316 318
326 326 325 325 323 322 322 320 319 317 317 316 315 315 315 315 316 318 317 316 318 317 317 314 315 315 314 315 315 317 320 320 320 318 316 316 315 315 315 315 315 316 317
326 325 324 324 323 323 322 320 319 318 316 314 314 314 314 315 315 315 315 316 316 315 314 313 314 313 315 317 315 316 319 319 320 320 318 317 317 316 315 314 314 314 315

GFSSE_925_thetae_093.txt.gz
Theta_e
342 339 337 335 334 334 333 333 333 332 333 335 338 339 337 336 336 338 336 335 336 337 338 336 336 337 339 338 337 338 338 337 337 337 337 337 336 336 335 334 335 334 334
339 338 337 336 334 333 332 331 331 331 331 333 337 340 340 338 337 337 335 335 336 338 340 335 334 335 340 338 337 336 336 336 336 335 335 336 335 335 332 331 331 331 330
340 339 338 337 335 334 332 331 331 331 330 331 334 339 339 337 337 337 336 337 339 340 339 338 337 338 339 337 335 335 334 334 333 332 332 331 331 330 330 329 329 329 329
341 339 339 339 337 335 334 331 330 330 331 331 332 334 335 335 335 335 336 337 338 339 339 339 339 336 337 334 333 333 333 333 332 330 330 329 329 331 331 328 329 329 327
341 339 338 339 338 336 335 334 331 330 331 331 331 334 334 334 334 334 334 336 337 337 337 339 336 336 335 333 333 333 333 331 330 329 328 327 328 328 327 326 325 325 325
342 340 338 337 338 339 339 336 334 332 332 332 330 332 332 332 331 331 333 335 336 335 336 337 334 335 334 334 333 332 331 330 329 329 328 328 328 327 325 324 324 323 324
343 341 339 337 337 338 340 340 337 336 335 332 331 335 335 335 334 333 332 334 334 334 335 335 334 334 333 332 331 331 330 329 329 329 328 327 326 326 324 323 322 322 322
344 343 340 338 338 338 340 341 341 339 338 336 336 336 336 333 331 330 330 332 334 334 334 333 333 332 331 331 330 329 328 327 327 327 326 326 324 324 322 322 321 321 320
344 343 341 340 338 338 339 340 341 341 340 337 335 334 333 328 327 327 326 332 332 333 333 332 331 330 329 329 328 327 326 326 326 325 324 324 323 324 323 321 320 320 319
342 342 340 338 337 338 337 339 340 341 339 337 335 333 332 329 328 326 322 331 332 331 331 331 330 329 329 328 327 326 325 325 325 324 323 323 322 323 322 320 319 319 319
340 339 337 336 336 336 336 337 339 337 337 336 333 332 331 329 328 328 327 325 330 330 330 329 329 329 326 325 325 324 324 324 323 322 322 321 322 323 322 320 319 319 319
337 337 336 335 335 334 334 336 337 337 336 333 332 331 329 328 328 326 325 327 324 330 329 329 329 328 322 323 324 323 323 322 322 321 320 320 322 322 321 319 319 319 319
333 334 335 335 335 334 332 333 334 333 333 331 328 325 324 324 324 326 326 327 329 330 328 328 328 323 322 324 322 322 321 320 320 319 319 320 320 322 320 319 319 319 318
330 331 333 334 335 333 331 333 331 329 327 326 325 326 327 326 325 325 327 327 330 329 328 327 324 321 322 323 321 321 319 319 318 318 319 319 319 319 320 319 319 318 317
330 329 330 332 333 332 330 331 331 329 328 328 328 328 327 328 326 329 328 328 325 327 328 326 322 321 322 322 321 320 318 318 318 318 318 319 319 319 319 319 319 318 317
331 330 329 330 332 331 330 330 329 329 329 328 329 327 329 328 326 327 327 325 327 326 327 325 321 321 320 320 320 319 318 318 317 318 318 318 319 319 319 319 318 318 316
331 330 329 330 331 330 331 330 331 331 331 331 329 326 330 328 325 324 327 326 328 324 324 323 320 319 319 320 320 319 318 318 317 318 318 318 317 318 318 318 318 317 316
331 330 329 330 330 330 330 331 330 330 330 330 330 327 328 328 327 327 327 326 327 324 322 321 321 318 319 319 319 319 318 317 317 318 318 318 318 317 317 317 316 316 316
331 330 329 329 330 329 330 329 329 328 329 330 330 328 327 328 328 327 326 325 327 324 322 320 319 318 318 319 319 319 318 317 317 317 317 317 318 318 317 316 316 315 315
331 330 329 328 329 330 329 328 328 327 327 328 328 329 328 328 328 327 326 325 325 322 320 319 317 316 318 319 319 318 318 317 317 317 317 317 316 315 316 316 316 315 315
329 329 329 328 329 328 326 325 323 325 324 323 323 324 327 328 328 327 326 325 324 319 319 317 315 315 317 319 318 317 317 317 317 317 317 316 316 315 315 315 314 314 314
329 328 328 327 326 328 325 324 322 322 321 321 322 322 322 324 327 327 326 325 324 317 315 316 314 316 317 319 318 318 317 316 316 316 316 316 315 315 314 314 313 313 313
328 328 327 326 326 326 324 323 321 320 319 320 320 320 320 324 326 326 326 324 322 315 314 317 315 316 317 318 319 319 316 319 316 316 316 316 315 315 315 314 314 313 313
328 327 327 326 324 324 324 322 321 319 316 317 318 318 319 321 324 325 325 324 321 317 315 318 316 316 318 317 318 319 319 317 316 313 316 316 315 316 316 315 316 315 315
327 326 325 324 323 324 323 322 321 319 317 318 317 317 320 322 323 324 324 323 322 316 316 317 317 317 318 317 318 316 316 316 316 313 313 315 317 317 317 317 318 317 317
326 325 324 323 322 323 322 321 321 319 318 317 317 318 320 320 321 323 323 320 318 315 317 317 317 318 318 318 317 318 317 316 316 316 314 314 316 317 318 318 318 318 318

GFSSE_925_thetae_096.txt.gz
Theta_e
342 342 336 338 337 335 335 334 334 335 338 340 340 338 336 336 337 338 339 336 336 338 338 336 338 339 340 340 338 338 338 338 338 338 338 337 338 337 335 335 335 335 334
340 338 336 336 335 334 334 334 333 333 336 339 339 337 335 336 337 338 337 336 338 338 338 337 336 339 340 338 338 338 337 337 336 336 336 336 336 335 334 334 334 334 332
339 337 336 336 335 334 333 332 332 332 335 338 338 337 335 335 336 336 337 337 338 339 340 338 339 338 339 338 337 337 336 335 335 335 335 334 334 334 331 331 331 330 331
340 337 337 335 334 334 333 332 332 332 334 338 339 338 337 336 336 335 337 337 337 337 339 340 339 338 337 336 336 335 335 334 333 332 331 331 331 332 332 329 329 328 328
341 338 337 336 335 334 333 331 331 332 332 337 340 340 338 337 337 336 337 337 337 337 338 339 339 337 337 335 334 334 333 332 330 329 328 329 331 331 330 328 327 327 326
340 339 338 338 338 336 334 332 331 331 331 333 338 339 339 340 339 338 337 337 336 337 338 338 337 336 335 334 333 332 331 330 328 328 327 327 327 328 326 325 326 326 326
340 339 338 338 339 338 337 336 334 334 334 333 333 334 334 334 334 335 335 334 333 334 336 337 335 335 334 333 332 331 330 329 328 327 327 326 327 326 325 324 324 324 323
340 340 338 338 339 340 341 340 339 337 335 332 331 333 333 330 326 331 330 332 332 332 333 335 334 334 333 333 332 330 329 328 328 328 326 326 325 326 324 323 323 322 321
342 341 340 338 338 339 340 341 341 339 337 335 332 333 331 330 329 327 325 326 326 332 333 334 334 334 333 332 331 330 329 328 327 327 326 324 323 325 324 322 321 320 320
343 342 342 340 339 338 338 340 341 341 339 337 334 334 333 331 327 326 325 325 325 331 333 332 333 333 332 331 330 329 328 327 327 325 324 323 323 324 323 322 321 320 319
342 342 341 340 339 337 337 337 340 339 339 338 335 334 333 329 326 326 325 325 327 330 330 332 332 332 330 329 328 327 326 326 325 324 323 322 324 324 322 320 319 319 319
340 341 339 337 337 336 335 335 336 337 333 335 335 333 332 328 328 328 326 326 329 329 330 330 330 329 328 327 326 326 325 325 324 323 322 322 323 323 322 320 319 319 319
339 339 337 336 335 334 334 332 335 337 334 335 334 332 331 330 329 329 326 326 330 330 330 329 329 328 327 326 325 324 324 323 323 322 322 321 323 323 321 320 319 318 318
335 336 335 335 335 334 332 332 334 336 335 332 331 330 330 328 328 328 328 328 328 328 330 328 325 325 324 324 324 323 322 322 321 321 321 320 321 322 321 320 319 318 317
332 332 333 333 334 333 332 332 332 332 331 331 330 327 325 325 324 325 326 326 328 328 328 328 326 324 323 324 323 322 321 320 320 319 319 319 320 319 320 320 319 318 317
329 329 331 332 334 333 332 331 331 331 329 327 326 326 328 328 327 326 325 327 328 327 327 326 325 323 323 323 322 320 319 319 318 319 319 319 319 319 319 320 319 318 317
329 330 329 330 332 333 331 329 329 330 329 328 329 328 327 327 328 326 327 327 326 325 326 322 321 321 322 322 321 319 318 318 318 318 318 318 319 318 318 318 318 317 317
329 330 330 329 330 332 330 330 329 328 329 329 329 329 328 327 326 325 326 326 325 326 326 321 320 320 320 321 319 319 318 317 317 318 318 318 318 318 318 317 317 317 316
330 330 330 329 329 331 331 330 329 329 327 329 329 329 327 328 326 325 326 325 323 326 325 322 319 320 319 319 319 318 318 317 317 318 318 318 317 318 317 316 316 316 316
330 330 330 329 329 330 330 330 329 329 329 329 329 329 327 329 328 325 326 326 324 325 322 320 318 318 319 319 318 317 317 317 317 318 318 317 317 317 317 316 316 315 315
329 329 329 328 329 329 328 328 327 326 326 328 329 329 328 327 328 327 326 326 325 324 322 320 317 317 317 318 317 316 317 317 317 318 317 317 317 318 317 316 315 315 315
327 328 328 327 327 327 326 325 323 322 324 326 326 325 327 327 326 327 326 326 325 323 319 319 316 316 317 317 318 317 317 316 317 317 317 317 317 316 316 316 316 315 314
327 327 328 326 326 327 325 323 321 319 321 321 320 321 322 322 323 327 327 325 324 324 319 318 316 317 317 318 318 318 317 318 315 316 316 316 316 316 316 315 315 315 313
327 327 327 326 325 325 323 321 321 319 318 319 320 320 320 320 321 323 324 325 324 324 321 319 316 316 317 318 318 318 319 318 316 314 315 316 316 316 316 315 315 314 314
328 328 327 326 325 324 322 323 321 319 318 317 318 318 318 319 320 325 324 325 323 323 318 317 315 315 316 318 318 317 316 318 317 314 314 314 316 316 315 315 315 315 315
327 326 325 325 324 322 322 323 322 320 317 317 317 317 318 319 320 323 323 323 322 323 319 316 314 314 316 317 318 318 317 317 316 315 313 315 316 317 317 316 316 316 317

GFSSE_925_thetae_099.txt.gz
Theta_e
343 339 335 337 338 336 335 335 337 340 342 341 339 336 336 337 337 338 341 341 341 342 342 340 339 340 342 341 338 337 338 338 339 339 338 338 338 337 337 336 337 337 334
341 340 336 337 337 336 335 334 335 339 340 341 339 337 336 336 336 338 339 337 340 341 341 339 339 340 340 338 338 338 338 338 338 337 337 338 338 338 335 335 336 335 334
339 338 336 337 336 335 335 334 334 338 340 340 339 337 337 337 336 338 336 338 339 340 340 340 340 340 339 338 338 338 337 337 336 336 336 337 337 335 334 334 333 333 333
338 337 338 336 335 335 334 333 333 334 339 340 339 338 337 337 338 338 336 337 339 339 339 340 341 339 338 338 337 336 335 335 335 335 336 336 335 334 332 330 332 332 331
338 336 337 335 334 334 333 332 332 333 334 338 339 337 338 338 338 337 335 335 337 337 338 339 340 338 338 337 336 335 335 335 334 334 334 334 334 333 332 331 329 329 329
340 337 337 336 335 335 333 333 332 332 333 336 339 338 340 341 339 336 335 334 335 336 337 338 338 337 337 336 335 334 334 332 331 332 332 332 332 331 329 328 327 327 327
340 338 337 337 336 337 335 334 333 333 335 341 343 339 338 336 336 334 333 333 333 335 336 337 338 337 336 335 334 333 331 329 330 330 330 330 330 327 326 326 326 325 325
338 338 337 337 338 339 341 339 338 335 334 335 335 336 337 335 333 327 329 331 332 332 332 333 336 336 335 334 333 331 329 328 329 329 328 328 327 327 325 325 325 324 323
339 338 338 338 338 338 339 339 339 337 336 333 333 335 335 334 329 330 328 330 331 330 328 330 335 334 333 332 331 330 329 328 329 328 328 327 325 326 326 324 323 322 321
340 339 339 338 338 339 340 340 340 339 337 335 331 332 332 330 331 325 328 331 327 325 327 329 334 331 333 332 331 329 329 328 328 328 327 327 324 326 325 323 322 321 320
341 340 340 339 338 338 339 340 341 340 339 337 334 332 332 331 327 329 330 326 326 326 327 325 333 330 332 332 330 329 328 328 328 327 326 323 325 325 324 323 321 321 320
340 342 341 340 339 338 338 338 340 339 339 338 336 334 333 331 329 328 325 325 325 325 327 329 332 329 331 330 329 329 327 327 327 326 326 323 324 325 323 322 320 320 319
338 340 341 340 339 337 336 336 339 338 337 335 335 335 334 332 329 326 325 326 326 326 329 331 328 330 330 329 328 326 326 326 326 326 325 322 324 324 321 321 321 320 319
336 339 339 338 337 335 334 335 333 335 336 334 334 334 333 331 329 327 328 328 326 329 329 328 329 329 328 327 326 325 325 325 325 325 324 322 323 324 322 322 320 319 318
335 336 336 336 335 334 333 332 332 333 334 334 333 333 332 331 329 329 329 329 326 329 329 329 328 328 327 326 325 324 324 323 323 324 323 321 322 322 322 321 321 319 318
334 334 335 334 334 334 333 332 331 331 331 333 332 332 331 331 330 327 327 328 327 327 329 328 328 327 326 325 324 323 322 322 322 322 322 322 321 320 321 322 321 320 319
333 332 332 332 333 333 332 332 331 331 330 331 331 331 328 325 326 327 326 325 327 328 327 327 327 325 323 323 323 322 321 321 321 321 321 320 320 319 320 320 320 320 319
332 330 329 330 332 333 332 331 330 330 330 329 328 326 326 327 327 327 326 327 327 327 326 325 325 323 321 322 322 321 320 320 320 320 320 319 319 320 319 319 318 318 317
330 330 328 329 330 332 332 331 329 329 329 328 328 327 328 327 327 326 326 326 326 325 324 323 321 322 320 321 321 320 320 319 319 319 319 320 320 319 320 318 318 317 316
330 330 329 329 329 330 331 330 329 329 329 331 328 328 328 328 327 325 326 325 325 324 324 322 320 320 320 321 320 319 319 319 319 319 319 319 319 319 319 318 318 317 316
328 329 329 329 328 329 329 330 329 328 328 329 328 329 328 328 327 324 326 324 324 325 323 321 320 320 320 319 319 319 318 319 319 319 319 318 318 319 319 318 317 317 316
326 329 329 329 328 328 328 327 326 326 327 327 326 328 327 327 327 326 325 325 324 323 322 320 319 318 319 318 320 319 319 317 318 318 319 319 319 318 318 317 317 317 317
325 328 328 329 327 327 327 326 325 324 323 324 324 325 327 327 327 327 326 325 325 323 321 319 317 318 318 318 319 320 320 321 318 318 318 318 318 318 318 318 318 317 317
325 327 328 329 327 327 326 324 323 323 321 322 321 322 322 323 324 327 325 325 324 324 322 319 317 318 318 319 318 319 320 320 321 321 317 317 318 318 318 317 316 317 317
326 327 328 328 327 325 324 324 322 321 321 320 320 320 321 320 320 323 324 325 324 323 323 322 317 318 318 319 318 317 317 319 319 320 320 317 317 317 317 317 316 316 316
327 327 328 327 326 324 323 323 322 320 321 320 318 320 320 319 319 321 322 324 322 323 321 321 318 317 317 318 318 317 318 318 317 317 318 318 319 318 317 316 315 315 315

GFSSE_925_thetae_102.txt.gz
Theta_e
346 345 334 334 338 338 337 336 336 337 340 340 337 336 337 338 339 339 342 341 341 342 343 342 341 343 342 343 337 337 338 339 339 340 339 340 339 338 337 338 338 339 336
345 345 335 335 339 337 336 335 336 338 340 341 338 336 337 339 339 341 341 342 342 343 342 340 340 341 342 339 338 338 339 339 339 338 338 339 339 338 337 337 338 337 336
345 344 339 335 337 336 335 335 337 340 342 342 340 337 338 339 340 341 341 341 342 341 341 341 340 341 340 338 338 338 338 338 337 337 337 338 338 337 335 335 334 334 334
343 344 344 336 337 336 335 334 336 339 342 342 340 339 339 339 340 340 339 339 340 340 340 340 340 341 339 337 338 338 337 337 336 336 338 337 337 335 334 334 334 334 333
342 343 345 336 336 335 334 334 334 337 340 341 341 339 339 340 338 338 336 339 339 339 337 337 341 340 338 338 338 337 336 336 336 337 337 337 336 335 334 333 332 331 332
342 343 344 335 335 335 334 333 333 334 337 340 341 340 339 338 336 336 334 334 335 336 335 337 339 339 338 337 337 336 335 335 336 336 337 335 335 334 333 332 330 330 328
343 343 342 336 336 335 334 333 332 333 335 338 343 342 341 338 335 333 333 331 331 333 334 335 335 336 338 337 336 335 335 334 335 334 334 333 334 332 330 328 327 328 326
345 345 345 338 337 335 334 333 333 333 334 333 342 339 337 336 334 327 332 332 330 329 331 331 331 333 336 336 334 335 333 332 332 331 331 332 330 330 328 327 326 326 325
346 346 345 343 341 340 338 336 334 334 334 334 336 335 335 336 334 334 332 331 325 327 330 331 332 331 333 332 334 333 331 330 331 331 330 329 327 327 326 326 325 324 323
346 345 345 344 344 344 343 340 338 337 335 333 335 337 336 336 335 333 329 328 328 329 329 326 329 331 330 330 332 331 329 330 331 330 329 328 326 327 326 325 324 322 322
344 344 344 344 344 344 344 343 340 339 338 336 334 333 332 336 335 333 331 330 331 331 327 325 326 327 326 328 330 329 328 330 330 329 328 326 325 327 325 324 322 321 321
343 343 343 343 343 344 344 344 342 343 340 339 338 336 334 335 335 333 332 329 331 329 326 326 327 325 325 329 330 329 330 330 329 328 327 324 325 326 325 323 321 321 320
341 342 342 343 343 342 340 342 341 340 339 339 338 338 337 336 335 333 334 331 332 327 328 327 327 325 324 330 330 330 329 329 327 326 326 323 325 326 325 322 322 321 321
339 341 342 342 342 341 339 339 339 338 338 338 337 335 335 335 334 332 332 330 329 330 329 329 328 326 329 331 331 330 328 326 326 326 325 323 324 325 324 323 323 322 320
339 340 340 340 340 339 338 336 336 335 335 337 335 333 335 334 333 330 329 327 331 331 329 329 329 327 331 330 329 328 327 326 325 324 325 323 323 324 323 323 323 321 318
337 339 340 339 339 338 337 337 335 335 336 336 334 333 334 333 331 329 328 330 330 331 328 329 328 329 330 330 328 327 326 326 325 324 324 324 323 322 323 323 323 322 321
334 337 339 339 337 337 337 337 334 333 335 332 333 332 333 332 331 331 330 329 330 329 328 328 328 328 328 328 327 326 326 325 323 322 323 324 323 321 320 321 322 321 321
331 335 337 338 336 335 336 336 334 332 334 333 331 331 331 331 331 330 329 327 327 327 327 326 326 326 327 327 326 326 325 324 323 322 320 322 323 322 320 320 320 320 320
329 333 336 337 335 334 335 334 333 333 333 333 332 331 331 331 331 330 329 327 327 326 325 326 324 326 326 326 326 325 324 323 322 322 320 320 321 321 321 320 319 318 318
328 332 334 335 335 333 332 334 333 331 333 332 331 332 330 330 331 330 329 326 326 323 323 323 323 323 325 326 325 325 324 322 322 321 321 319 320 320 320 321 320 319 317
324 330 333 334 335 332 332 334 332 329 330 330 329 330 331 330 329 328 326 325 324 322 321 321 321 322 323 323 323 323 322 322 322 321 321 320 319 320 320 321 320 319 318
322 328 331 333 335 333 333 332 331 331 329 330 327 330 330 329 328 327 326 325 323 321 321 321 320 320 321 322 322 321 322 320 321 321 321 320 319 319 319 319 319 318 318
322 326 330 332 334 333 333 332 330 330 328 329 328 327 328 329 328 327 325 324 324 323 322 321 322 323 321 321 322 322 322 323 320 320 321 320 320 318 318 319 319 318 317
322 325 328 330 333 332 333 331 329 328 328 327 327 326 326 326 327 327 326 325 324 323 322 321 321 322 321 320 322 321 321 321 322 323 320 320 320 319 319 318 318 318 318
320 325 328 329 331 332 332 331 329 329 329 328 326 326 326 326 327 326 326 325 324 323 322 321 321 322 321 321 321 322 323 323 321 322 323 321 320 320 319 318 318 318 318
319 324 329 330 331 332 332 330 330 330 328 326 325 326 325 324 324 325 326 325 324 324 323 321 320 320 320 322 322 323 322 323 323 322 322 321 321 320 318 318 318 318 318

GFSSE_925_thetae_105.txt.gz
Theta_e
343 343 333 333 335 342 340 337 337 339 341 340 338 335 336 337 338 339 340 341 342 342 343 344 342 342 342 339 338 337 337 338 338 338 340 340 340 337 337 338 339 339 337
343 344 333 334 336 339 338 337 337 337 340 341 339 336 337 338 339 340 341 342 342 342 342 342 342 342 343 338 336 337 339 339 339 339 339 339 338 337 337 338 338 337 336
344 345 337 336 338 338 336 336 336 338 341 342 340 337 338 339 341 341 341 340 342 343 342 340 340 341 341 338 337 338 338 339 338 338 338 339 340 338 338 337 336 335 335
339 345 344 335 337 336 335 335 336 339 343 343 340 339 338 339 341 342 341 342 342 341 340 340 339 341 340 338 338 339 338 338 337 337 339 338 339 337 335 335 335 334 335
338 342 346 335 336 335 334 334 336 339 342 343 341 340 338 340 341 339 341 341 340 339 337 337 337 340 338 338 338 338 338 336 336 338 338 337 337 336 335 335 334 333 334
337 340 345 335 336 335 334 334 336 339 342 342 342 344 339 339 338 337 336 338 338 336 335 335 335 337 337 337 337 337 336 335 336 337 336 336 336 335 332 334 333 333 331
339 341 344 336 335 335 334 334 334 336 340 343 345 344 343 339 338 336 334 335 336 335 334 333 334 336 337 337 336 336 336 335 338 335 336 336 335 334 333 332 331 328 328
342 343 347 338 335 335 335 334 334 335 337 344 345 343 340 338 336 335 334 332 334 332 332 331 332 335 335 335 334 335 334 333 336 335 334 335 333 332 331 329 328 327 325
345 347 348 344 340 336 335 334 333 333 334 335 340 339 339 338 335 334 333 331 331 331 331 330 328 331 333 333 333 333 333 332 333 332 333 333 329 330 329 327 327 326 325
347 347 347 346 344 343 341 336 334 334 333 334 335 338 339 337 336 333 331 332 331 326 330 328 331 331 331 332 332 333 332 331 332 330 330 331 327 328 327 326 325 324 323
346 346 346 346 345 345 344 342 338 336 335 334 336 338 337 338 337 336 334 333 330 327 330 329 331 330 328 328 330 330 331 330 332 329 330 327 327 327 326 325 324 323 322
343 344 344 344 344 344 343 344 342 342 341 340 339 339 339 337 338 337 336 332 330 328 330 329 327 328 326 324 326 328 329 331 330 329 328 326 326 328 327 324 323 322 321
339 341 342 344 344 344 343 343 343 342 342 342 341 338 337 336 336 336 335 334 332 330 332 328 328 327 326 325 326 329 330 330 330 328 327 325 325 327 326 323 322 321 320
337 340 341 342 344 344 341 343 341 342 343 341 341 340 338 337 336 336 334 335 333 332 332 331 329 327 326 325 327 330 330 329 327 327 325 324 325 326 325 324 324 322 320
335 338 341 342 344 343 342 341 339 339 340 340 340 339 339 338 338 336 335 334 333 333 332 331 329 327 326 325 327 330 330 330 326 326 325 324 325 325 325 323 324 323 320
333 337 341 342 343 342 341 340 339 338 337 338 338 338 338 337 336 336 335 334 332 330 330 331 330 328 327 325 329 330 329 327 327 327 326 325 324 323 323 324 325 324 320
328 333 341 343 342 342 341 340 339 337 336 335 335 337 338 337 336 335 333 330 331 332 331 330 329 329 327 330 330 329 327 325 325 326 325 325 325 322 323 323 323 323 322
326 330 337 342 342 341 340 339 338 336 335 336 334 337 335 335 335 334 333 332 332 331 331 330 329 328 327 329 329 328 326 324 323 325 324 325 324 323 322 321 322 321 320
324 328 334 341 342 341 340 339 339 336 335 333 333 334 335 334 334 333 332 332 331 331 329 328 328 328 328 328 329 327 324 324 323 321 325 324 324 322 321 320 321 320 319
324 327 332 339 342 340 339 339 338 336 335 333 333 333 333 334 333 332 331 332 331 329 327 327 326 327 326 327 327 326 324 324 322 322 321 323 322 322 322 322 321 320 319
322 327 332 336 340 340 336 337 337 337 332 332 332 333 333 333 332 331 331 329 326 327 326 325 325 326 326 327 325 324 324 323 322 322 321 320 320 321 320 322 321 321 319
322 324 331 334 337 339 336 335 336 336 331 332 332 332 332 330 331 331 330 326 325 324 322 323 323 324 325 325 324 324 324 322 322 322 322 322 322 321 321 322 321 321 320
322 323 327 332 334 338 335 335 336 335 332 331 331 331 331 331 331 331 330 326 324 323 321 322 323 323 324 323 323 324 323 324 323 323 322 322 321 321 320 320 321 319 319
323 323 324 329 332 336 336 336 336 334 333 331 332 330 331 329 330 330 328 325 324 323 321 321 322 322 323 322 322 322 321 321 323 324 322 322 322 321 319 320 319 319 319
321 323 324 326 330 334 337 336 336 334 333 332 331 330 329 329 329 329 328 327 324 323 322 322 322 323 322 322 322 322 322 322 322 323 323 322 321 320 320 319 319 319 319
321 321 324 327 329 332 336 335 336 334 333 332 331 329 328 328 328 329 327 326 325 324 323 323 323 323 323 322 322 322 322 323 323 323 324 323 323 321 320 320 319 319 319

GFSSE_925_thetae_108.txt.gz
Theta_e
344 333 334 340 342 341 339 338 339 341 341 340 338 335 334 334 336 337 337 340 340 341 343 343 341 341 341 341 340 340 339 339 340 339 339 338 338 337 338 339 338 338 338
342 330 332 333 338 341 340 338 337 338 340 340 339 335 335 335 336 338 339 341 341 342 343 342 341 341 340 339 336 336 338 338 338 339 338 338 337 338 338 339 337 337 337
344 332 332 333 335 338 339 338 337 338 340 340 339 336 335 336 337 338 340 341 341 341 341 341 341 341 339 336 336 337 338 338 338 337 337 338 338 338 338 336 337 336 336
345 335 334 334 336 337 337 336 336 338 340 341 340 337 336 337 338 338 340 340 341 340 339 339 340 340 339 336 337 338 338 338 337 337 338 338 339 337 336 336 336 336 336
344 344 335 334 335 336 335 335 336 339 341 342 341 339 337 338 337 339 340 341 341 339 338 336 336 339 338 337 337 338 338 336 336 339 336 337 338 337 336 335 335 335 334
341 345 336 334 335 335 335 335 336 339 341 343 341 340 338 338 337 338 339 341 339 338 335 335 336 336 337 337 338 338 336 335 336 337 336 335 336 336 335 334 334 333 332
341 343 340 334 335 335 334 334 336 338 341 342 342 341 340 338 338 337 338 339 338 337 335 334 335 336 336 336 337 337 336 335 337 336 335 335 334 334 334 334 332 331 330
342 345 341 335 335 334 334 334 335 336 340 343 345 343 343 339 338 336 336 336 338 336 334 333 333 334 336 336 336 336 335 335 335 335 336 334 332 333 333 332 329 328 328
343 348 342 336 335 335 334 333 333 334 336 339 344 343 342 339 338 337 335 336 337 336 333 333 334 335 332 333 333 333 335 334 334 334 334 333 332 331 331 328 327 326 325
346 348 347 342 337 336 335 334 333 333 333 335 338 341 341 340 338 337 334 333 333 333 333 332 332 329 331 329 330 331 331 331 332 332 333 331 330 331 329 326 326 325 323
348 348 349 346 344 342 340 336 335 334 333 334 336 338 340 339 338 336 334 333 332 332 331 333 331 331 329 327 327 330 329 329 331 331 331 328 328 331 327 325 325 324 323
348 348 348 347 346 345 343 342 337 336 335 334 335 336 339 338 338 337 334 332 332 330 327 331 330 332 328 327 327 326 327 329 330 330 329 327 327 330 326 324 324 323 322
345 346 346 346 346 346 342 343 342 340 340 340 339 338 336 337 337 338 337 335 333 330 330 331 331 330 328 327 326 325 325 329 329 329 327 326 327 329 325 324 323 322 321
341 343 344 345 346 344 342 345 344 343 342 341 340 340 338 337 336 337 336 336 334 333 331 331 330 328 327 326 325 325 325 328 329 328 326 325 326 327 327 324 323 322 320
339 341 342 344 344 346 344 343 342 342 343 342 340 340 338 337 336 336 336 335 335 334 332 331 330 328 327 326 326 325 326 328 328 327 325 325 324 325 326 325 324 324 320
334 339 341 342 344 345 342 344 341 340 341 338 339 338 339 338 337 336 335 334 334 333 331 331 330 329 326 326 326 325 327 329 327 326 324 324 324 325 324 324 325 324 323
328 335 342 342 344 344 344 343 340 340 338 337 337 337 337 337 337 335 335 334 334 333 332 331 329 329 327 327 327 325 327 328 327 327 324 324 325 324 323 323 324 324 323
325 327 343 343 343 344 343 343 341 340 338 336 335 336 336 336 336 335 334 333 333 331 331 330 329 330 329 328 326 324 328 327 327 326 325 323 324 323 322 323 323 322 321
322 326 344 344 344 343 343 342 341 340 338 338 334 332 334 335 334 335 334 333 332 332 331 331 330 329 328 328 326 326 327 326 326 324 325 324 323 323 322 323 323 321 320
321 323 342 344 344 343 343 342 341 339 336 336 335 334 334 334 335 335 334 333 331 331 330 330 329 328 328 327 327 328 327 325 325 325 324 324 324 323 322 321 322 321 319
320 321 336 345 345 343 342 342 341 340 338 335 335 333 332 332 333 334 332 331 331 330 329 328 327 327 328 327 328 327 324 324 322 324 325 324 324 322 322 322 320 321 320
320 322 329 343 345 343 342 341 340 340 337 335 333 333 333 332 334 333 332 331 329 328 326 325 325 326 326 327 326 324 322 322 322 322 322 323 322 321 322 322 321 320 320
323 324 325 332 344 342 341 339 338 339 334 332 333 331 332 333 332 331 331 330 328 325 324 324 325 325 325 326 325 323 323 324 322 322 320 320 321 320 320 321 322 321 320
325 325 325 327 335 341 340 337 337 336 334 333 333 331 332 330 331 331 330 329 325 324 322 323 323 325 325 324 323 322 322 322 322 323 323 322 322 322 320 320 320 321 321
323 323 326 325 331 338 340 336 336 338 335 332 333 331 331 331 329 330 329 328 325 323 322 322 323 324 324 323 323 322 321 321 321 321 322 322 322 322 322 321 320 319 319
325 324 323 327 329 333 340 337 337 338 336 334 333 331 330 330 329 329 329 327 325 324 322 322 322 323 323 323 322 321 321 319 319 319 321 322 321 321 321 321 320 321 320

GFSSE_925_thetae_111.txt.gz
Theta_e
340 340 340 340 340 341 340 340 341 340 339 339 336 333 332 331 333 335 338 340 341 341 340 340 339 340 341 341 340 339 339 339 339 339 338 338 337 338 338 338 338 337 337
337 340 341 339 339 339 339 339 339 340 340 339 337 333 333 333 334 335 337 339 340 340 340 340 340 341 340 340 339 339 338 339 338 338 337 337 338 339 338 337 337 337 337
332 336 339 336 338 339 338 337 338 339 339 339 338 334 334 334 335 335 337 339 339 340 340 340 340 340 338 337 336 337 338 338 338 337 337 338 338 339 337 337 337 336 336
331 332 332 332 335 338 338 337 337 337 339 339 338 335 335 335 335 336 339 339 340 340 340 340 339 339 336 335 336 338 338 337 337 336 337 337 339 338 336 336 336 336 336
332 332 332 332 334 336 337 336 336 337 338 340 339 336 336 336 336 336 338 339 340 339 339 338 337 338 336 335 337 338 337 336 338 337 336 337 338 338 336 336 336 335 335
336 332 332 333 334 335 335 335 336 337 339 341 340 338 337 336 336 338 338 340 340 338 337 336 335 337 336 336 337 337 336 337 337 336 336 335 337 337 336 335 334 333 333
343 333 332 332 333 334 333 334 336 337 339 342 341 339 337 337 337 337 338 340 339 337 336 336 336 336 337 336 337 337 335 336 336 335 335 334 335 335 334 333 332 331 331
343 336 332 332 333 333 333 333 335 337 339 341 341 340 339 338 337 337 338 340 339 336 335 335 335 336 336 336 336 336 335 334 334 335 334 333 333 335 333 332 331 330 329
341 339 332 333 334 333 333 333 333 335 337 339 343 343 342 339 338 337 337 339 338 336 334 334 334 335 335 334 336 336 334 333 333 333 333 332 332 334 332 330 328 327 326
343 341 334 333 334 333 333 333 332 333 334 334 338 343 342 340 338 337 336 337 338 336 334 333 332 332 331 331 332 332 333 332 331 331 332 331 333 335 330 327 325 325 324
347 346 337 334 335 334 333 333 333 333 333 335 336 340 341 340 339 337 335 335 335 336 334 333 330 330 329 328 328 331 330 330 330 330 328 331 332 333 327 325 325 324 323
349 348 345 337 335 334 334 334 333 333 333 334 335 337 339 340 339 338 336 334 333 334 333 332 331 329 329 328 327 328 329 328 329 330 331 329 331 332 328 324 324 323 322
347 349 348 345 340 339 340 338 335 334 334 333 333 334 336 339 339 338 336 334 333 332 330 330 331 330 331 327 327 327 327 328 330 330 329 327 331 332 327 324 323 323 322
348 347 348 346 345 344 342 340 340 337 336 335 334 334 336 337 338 337 337 335 333 332 330 330 331 331 330 328 327 327 326 325 328 329 328 327 328 330 328 324 323 322 321
346 347 347 346 346 345 344 341 341 340 339 339 339 339 338 337 338 337 337 336 334 333 331 330 331 330 329 327 327 326 326 325 326 328 327 327 327 327 328 326 325 324 321
344 345 345 345 345 344 343 342 343 343 343 341 340 341 340 338 337 335 336 336 335 334 332 331 331 329 327 326 326 326 326 325 327 328 327 327 326 326 326 326 325 324 322
335 342 343 344 344 345 343 344 343 341 342 343 341 339 337 337 337 336 336 335 334 334 333 332 331 330 328 327 326 326 326 325 328 327 326 326 326 324 323 324 324 323 324
318 338 342 343 344 345 343 343 343 341 338 339 338 338 335 335 337 336 335 335 334 333 333 332 331 330 329 327 326 326 326 325 328 326 325 325 325 324 322 322 323 323 322
318 323 341 343 344 344 344 342 341 341 339 338 335 335 335 335 336 336 334 334 333 333 332 332 331 329 329 328 327 327 325 325 327 326 324 324 325 323 322 322 323 322 321
319 319 339 342 344 344 344 342 341 340 340 338 335 334 334 333 335 335 334 334 333 332 331 331 330 330 329 328 327 327 324 325 327 326 324 324 324 323 322 323 323 321 320
320 318 340 342 344 343 343 342 341 340 339 337 336 333 331 333 334 334 334 333 332 332 332 329 330 330 329 327 327 327 326 327 327 325 325 323 323 322 321 322 322 321 320
320 320 338 342 343 343 342 341 340 340 338 337 336 334 332 332 332 334 334 333 332 331 330 328 328 327 327 326 327 327 323 323 325 324 325 324 323 323 321 321 320 321 320
321 319 335 343 343 342 341 341 340 340 339 335 334 334 333 332 332 332 333 332 330 329 329 328 326 325 325 326 326 323 323 323 322 323 324 324 324 323 322 321 321 319 319
322 323 333 343 343 342 341 341 340 338 336 335 334 333 333 333 332 334 333 332 330 329 327 324 324 323 325 326 325 323 322 322 322 322 322 322 323 322 321 321 321 320 319
324 325 327 328 342 341 341 340 339 337 336 334 334 333 331 331 332 332 331 331 329 328 325 323 322 323 325 325 324 322 322 322 321 321 322 322 322 322 320 321 320 321 321
316 317 320 324 327 340 340 339 337 336 335 333 332 332 331 331 330 332 331 330 328 326 324 322 321 323 324 325 323 322 321 321 320 320 320 321 321 322 322 321 320 319 320

GFSSE_925_thetae_114.txt.gz
Theta_e
342 341 341 340 340 340 340 340 339 339 338 335 332 331 331 332 336 339 340 340 340 340 339 339 339 340 340 340 340 339 339 339 339 338 339 341 341 340 338 338 338 337 337
338 340 341 341 340 340 340 340 339 339 338 336 333 332 332 334 335 338 339 340 340 340 339 339 339 340 341 340 339 339 338 338 338 337 339 340 342 340 338 337 337 337 337
338 339 340 340 340 339 339 339 339 339 339 337 334 333 333 334 334 336 338 339 339 339 339 338 339 339 339 338 338 338 338 338 338 337 339 340 339 341 337 337 337 337 336
335 339 339 338 338 338 338 338 338 338 339 338 335 334 334 334 334 335 337 338 338 339 339 339 339 338 337 335 336 337 338 337 337 337 337 338 339 340 337 337 336 337 336
334 337 338 338 338 337 337 337 337 338 338 338 336 335 335 335 335 336 337 339 339 339 340 340 338 336 335 335 337 337 337 336 336 336 336 337 340 339 336 336 336 336 334
333 333 334 336 336 336 336 336 336 336 338 338 338 335 335 336 335 337 337 339 339 338 338 338 337 337 335 336 337 337 337 337 336 336 336 337 337 338 336 336 335 333 333
331 331 333 334 334 335 334 333 333 334 338 339 338 336 336 336 336 337 338 339 339 338 337 336 336 337 335 336 337 336 336 336 336 335 336 334 334 336 335 334 333 333 332
329 332 334 335 333 333 332 332 333 334 336 340 339 338 337 337 336 338 338 340 339 337 336 335 335 336 335 336 336 335 336 335 335 334 333 334 334 336 334 333 331 330 330
329 332 334 334 333 332 331 332 333 334 336 339 340 339 337 337 337 337 338 340 339 336 335 334 334 335 335 335 336 335 335 333 334 334 333 332 330 332 333 331 330 329 329
332 331 332 333 333 333 332 332 333 333 333 334 338 340 339 337 337 337 337 339 338 336 335 334 333 334 333 334 334 334 334 332 332 332 332 331 332 334 333 330 328 327 325
337 332 332 333 333 333 333 333 333 333 332 333 336 338 341 339 338 337 336 338 338 336 334 333 332 331 330 332 330 331 333 332 330 331 332 331 331 333 332 327 325 324 324
341 338 333 333 333 333 334 334 333 333 333 333 334 337 340 340 338 338 336 336 336 336 335 333 331 330 330 331 330 330 331 330 329 329 332 330 330 333 331 325 324 323 323
344 342 336 333 334 334 334 334 333 333 333 333 333 336 338 339 339 338 337 336 335 334 335 333 332 330 329 329 328 328 329 328 329 329 329 330 329 332 330 326 324 323 322
346 344 343 336 333 334 334 334 333 333 332 332 332 334 337 339 339 338 337 335 334 333 333 332 331 330 329 329 327 327 328 326 328 330 330 329 328 331 330 327 324 322 322
346 346 345 341 336 334 335 335 334 333 333 332 332 332 333 336 338 338 337 336 334 332 331 330 328 330 329 330 327 327 326 326 326 329 329 328 327 329 329 328 324 322 322
345 346 345 345 342 339 338 337 336 335 334 333 333 333 333 334 336 337 336 336 335 333 332 331 330 329 330 330 327 327 326 325 325 325 328 328 327 327 328 327 326 325 324
345 345 346 345 344 343 342 341 339 338 336 337 337 337 337 337 336 336 337 337 337 334 333 332 330 330 330 329 326 326 325 326 325 325 326 328 327 326 328 327 326 325 324
341 344 345 345 345 344 343 342 340 340 341 341 340 339 339 339 338 337 336 335 336 335 334 333 331 331 330 328 326 326 325 326 325 327 327 328 326 326 326 326 324 322 323
317 338 343 345 344 344 343 343 341 341 342 342 341 341 340 337 335 337 336 335 335 334 334 333 331 330 328 327 327 326 325 326 326 327 327 327 326 326 325 325 323 322 321
319 317 336 343 343 344 343 342 342 342 341 341 341 340 338 335 335 336 336 335 334 334 333 333 331 331 329 328 327 327 325 326 326 326 327 326 326 325 324 323 323 322 321
319 317 327 340 342 343 343 341 340 341 340 338 338 337 335 335 333 334 336 334 334 332 332 332 332 330 329 328 328 327 326 325 325 326 326 326 326 325 323 322 323 322 322
316 315 325 337 341 342 342 341 340 339 338 337 337 336 334 334 334 333 335 333 334 333 331 332 331 329 329 328 327 326 324 325 325 326 325 325 325 324 323 322 322 322 321
323 323 334 338 341 342 342 341 340 338 337 337 337 336 335 334 332 333 334 334 333 333 331 332 330 329 328 327 326 325 323 324 324 325 324 324 324 324 322 321 322 322 321
316 319 325 338 341 342 342 340 338 337 336 337 335 335 335 332 331 333 333 334 333 332 330 330 329 328 327 325 326 324 323 322 324 323 323 323 323 323 322 321 321 320 320
310 312 316 321 331 341 340 340 338 338 337 336 334 334 334 333 332 332 332 333 333 332 329 328 328 326 325 324 324 324 324 323 323 323 324 321 322 322 322 321 321 320 319
306 307 311 315 319 323 337 339 338 338 337 334 333 332 332 333 332 331 331 333 333 331 329 328 326 324 323 323 324 324 322 322 321 322 323 321 322 321 322 322 321 321 320

GFSSE_925_thetae_117.txt.gz
Theta_e
342 342 340 339 338 338 338 337 336 334 332 332 332 334 339 341 341 339 338 338 339 341 340 340 340 340 340 340 340 339 339 340 339 339 341 341 342 340 339 339 338 338 337
340 341 340 340 339 339 338 338 337 336 333 332 332 332 334 336 338 338 338 338 339 340 339 339 340 340 339 339 338 338 339 339 338 338 340 341 341 342 339 337 337 337 337
340 340 340 340 340 339 339 339 338 337 335 333 332 333 333 335 336 338 338 338 339 339 338 338 338 339 339 338 338 338 338 338 338 339 340 340 340 341 338 337 337 337 336
340 340 340 340 340 340 339 339 338 338 337 334 333 333 334 335 336 338 338 339 339 339 338 338 338 338 337 336 337 337 337 337 338 338 339 338 339 341 337 336 336 336 336
339 340 340 340 340 339 339 338 338 338 337 335 333 334 334 335 337 338 339 339 339 339 341 340 337 337 335 335 336 337 337 337 337 337 338 338 337 340 337 336 336 336 335
338 338 338 338 339 338 337 337 337 337 337 336 335 334 335 335 336 338 338 339 340 341 343 343 336 334 335 336 336 337 337 337 336 337 337 337 338 339 337 336 335 334 334
337 337 336 337 337 337 336 336 336 336 336 336 336 335 335 336 336 337 338 338 338 338 339 339 337 335 335 336 337 337 336 336 336 336 335 335 334 338 336 335 333 332 331
334 335 336 336 336 336 335 335 335 334 334 336 336 335 335 336 336 337 338 338 338 337 336 335 336 335 335 336 337 337 336 336 335 334 334 334 333 335 335 333 332 331 331
332 334 335 335 336 335 334 333 333 333 334 336 337 336 336 336 337 338 338 339 338 336 335 334 334 335 335 336 336 336 335 335 335 334 333 334 333 328 331 332 331 330 330
333 333 334 335 335 334 333 333 332 333 335 336 337 337 336 336 337 338 338 339 338 336 334 333 333 334 335 335 335 335 335 333 333 334 333 332 331 331 331 331 330 329 329
336 335 335 335 334 333 333 333 333 334 335 336 337 338 337 337 337 337 338 339 338 336 333 333 333 334 334 333 333 334 334 332 332 332 332 332 330 330 331 331 329 328 326
337 336 336 335 333 333 333 334 335 335 336 336 338 338 338 337 337 337 337 338 338 336 334 332 331 332 331 331 331 332 333 332 330 329 331 331 331 332 330 329 326 324 324
334 335 334 334 333 333 334 334 335 336 336 336 336 335 338 338 338 338 337 338 338 337 334 333 332 331 330 330 330 330 330 331 331 329 331 331 330 330 332 329 324 323 323
337 333 333 332 332 333 333 333 333 334 335 335 336 335 338 338 338 338 337 336 337 337 335 333 332 330 330 329 330 328 329 329 329 328 329 331 330 330 331 329 327 323 322
340 338 334 333 332 331 332 333 332 333 333 333 334 335 336 337 336 337 337 336 336 336 335 334 332 331 330 329 329 327 327 328 327 328 329 330 329 329 330 330 328 326 321
342 341 338 334 332 332 332 332 331 332 332 332 332 334 335 335 335 336 337 337 335 334 333 332 331 331 329 329 329 328 327 326 326 326 328 329 329 328 329 329 328 326 324
343 343 342 339 335 331 331 331 332 332 332 332 332 332 333 334 335 335 336 337 336 334 333 331 330 329 329 330 329 328 327 326 325 325 325 328 329 328 328 328 327 326 325
342 344 344 343 341 336 333 331 332 332 332 332 332 332 332 333 333 335 336 336 335 335 333 332 331 330 330 330 329 328 326 326 325 326 325 325 328 327 327 327 326 325 324
339 342 344 344 344 342 340 337 337 337 335 334 333 333 334 335 336 336 336 335 335 336 335 333 332 330 329 329 329 327 326 325 325 326 326 326 327 327 326 326 326 325 323
323 337 341 344 344 344 342 340 340 340 338 338 336 338 338 337 337 338 337 336 335 335 335 334 332 329 328 328 328 326 325 325 325 326 326 326 327 327 327 326 326 324 321
312 323 339 341 343 343 342 340 340 340 340 339 340 340 339 339 339 337 336 336 335 334 334 333 332 330 329 328 326 327 326 326 326 326 326 326 327 327 326 325 325 323 321
320 314 318 338 340 342 342 341 340 340 338 339 341 341 340 340 338 335 335 335 335 334 332 332 332 329 328 328 327 325 325 325 325 326 326 325 325 326 326 325 323 322 321
313 317 324 334 337 340 342 340 340 339 338 336 337 340 340 338 337 335 333 334 335 334 331 330 330 330 329 328 328 326 323 325 324 325 325 325 326 326 326 324 323 322 322
308 312 317 329 337 339 341 340 338 338 337 337 337 337 337 337 334 334 333 333 334 333 332 330 330 329 329 328 327 327 324 322 325 324 324 324 325 324 325 324 322 322 322
304 307 312 317 326 335 340 341 338 337 336 335 335 335 336 336 334 334 333 332 334 333 332 331 331 328 329 327 326 326 325 324 322 322 324 322 323 323 324 323 322 321 321
302 304 308 312 316 321 327 336 338 337 336 335 334 333 333 333 334 333 333 331 333 333 332 331 330 327 328 327 325 324 324 323 323 322 323 323 322 321 322 322 322 321 320

GFSSE_925_thetae_123.txt.gz
Theta_e
342 340 340 338 336 334 336 336 337 338 339 341 342 341 340 338 337 338 337 338 339 341 340 338 340 339 339 338 337 339 339 340 340 339 340 341 341 340 339 338 339 341 337
341 339 339 338 336 334 333 333 333 333 332 334 338 340 339 337 337 338 337 338 339 340 339 339 340 340 339 338 337 338 339 339 339 339 340 340 339 340 338 338 339 339 337
341 339 338 338 336 334 333 333 333 333 333 334 338 340 338 339 338 337 337 338 341 338 340 340 339 339 338 338 338 338 338 339 339 340 340 342 342 339 338 336 336 337 337
341 339 338 337 336 335 333 333 333 333 334 335 339 340 340 339 338 338 338 339 339 339 338 339 339 338 337 337 337 337 337 338 339 340 342 342 341 339 337 336 336 336 336
343 339 338 337 337 336 335 333 333 332 334 335 337 339 338 337 338 338 337 337 338 339 339 339 339 337 337 336 337 337 337 337 338 341 341 339 341 339 337 335 336 335 337
344 341 338 338 337 337 336 335 333 332 332 332 333 334 336 336 336 337 337 337 341 341 342 341 337 336 335 335 336 337 337 337 339 341 340 339 339 337 337 336 336 336 335
343 341 338 338 338 337 337 336 335 333 332 332 332 333 334 335 335 336 337 340 342 341 343 337 336 334 334 334 336 337 337 337 340 340 340 339 338 335 334 334 334 334 334
343 340 339 338 338 338 338 337 337 335 333 333 333 334 334 335 336 336 337 341 341 340 338 334 334 333 334 335 336 336 336 337 338 339 338 337 333 334 334 333 332 332 332
341 340 340 339 339 339 338 338 337 336 334 333 333 334 334 335 336 337 338 339 340 340 337 334 333 333 334 335 335 335 335 336 338 335 335 334 333 331 327 331 330 330 330
340 340 340 340 340 339 339 338 338 337 336 334 334 334 334 335 337 337 338 338 339 337 335 334 333 334 334 335 335 335 335 335 337 336 336 335 333 328 329 328 329 330 329
340 341 341 340 340 339 339 338 337 337 336 335 334 334 335 339 339 338 339 337 337 335 334 333 333 334 334 335 335 335 334 336 336 336 334 333 332 326 326 326 325 326 328
340 339 340 340 340 339 339 338 338 338 338 337 336 336 338 339 340 341 339 338 337 335 334 333 333 334 334 335 335 335 334 333 334 335 335 333 331 328 327 326 325 328 325
338 339 339 339 339 338 339 339 339 340 339 338 337 336 336 337 337 338 339 340 339 337 336 335 334 334 334 334 334 334 334 333 333 334 332 332 332 331 328 328 330 329 329
335 337 338 338 338 338 338 338 339 338 343 340 338 337 337 337 337 339 339 339 340 339 337 337 336 333 333 332 331 332 333 333 332 332 331 331 330 330 330 329 329 329 327
336 334 337 336 337 337 337 338 339 338 339 343 340 338 337 337 337 337 338 338 339 338 336 334 334 332 332 330 330 330 330 330 329 330 330 329 329 330 329 330 330 329 325
338 335 335 336 336 336 337 336 337 338 338 343 339 338 338 337 337 337 337 337 338 338 336 335 333 333 333 331 329 329 329 329 328 328 328 328 328 329 329 329 329 326 327
333 338 334 333 336 336 336 335 335 336 337 340 338 338 338 339 337 336 337 337 337 338 337 335 334 333 332 331 330 329 328 328 328 328 328 327 328 328 328 328 329 327 326
328 340 338 334 334 336 336 335 334 335 336 336 334 335 338 340 339 339 340 337 336 336 337 336 335 334 332 332 332 330 329 328 328 328 328 327 328 328 328 328 327 327 327
327 336 340 337 334 333 335 335 335 333 334 335 334 334 335 336 337 338 339 336 336 336 336 336 335 333 332 331 331 331 328 328 328 328 328 327 327 325 326 325 328 327 327
319 333 340 340 337 334 335 335 335 334 334 333 331 331 332 335 337 339 335 334 334 336 335 334 332 331 330 329 327 328 328 327 327 328 328 328 328 327 326 327 327 328 327
314 330 339 342 340 337 335 335 335 334 333 333 333 333 332 332 335 335 334 333 334 334 334 333 332 330 329 330 328 327 327 328 327 327 327 327 327 327 327 326 326 327 327
311 313 323 335 342 340 338 336 336 335 335 334 333 333 333 332 331 332 332 332 333 334 334 332 331 329 329 329 328 328 329 327 326 327 327 327 327 328 326 324 325 327 326
307 309 313 317 336 341 341 340 338 338 337 335 334 334 333 333 332 331 332 332 332 333 334 333 332 331 330 328 330 330 329 332 327 326 326 327 327 327 325 324 325 325 325
304 306 310 316 320 331 339 340 338 339 338 337 336 335 334 335 334 333 332 333 333 334 333 334 332 332 331 329 327 328 328 327 330 330 326 325 325 326 324 324 325 324 325
302 304 308 313 315 323 331 338 339 338 339 339 337 335 335 337 335 334 334 334 334 334 334 332 332 331 330 329 328 327 327 326 326 327 329 327 325 325 324 325 324 324 325
301 303 305 308 309 312 322 329 334 338 338 336 338 337 336 336 335 335 335 334 334 334 332 331 333 331 330 328 328 327 326 326 325 326 326 326 325 325 325 324 324 324 325

GFSSE_925_thetae_129.txt.gz
Theta_e
341 351 343 340 339 338 338 340 342 343 341 336 334 334 335 336 338 338 340 340 342 343 340 337 336 338 339 339 337 337 340 340 340 341 339 340 339 338 336 337 340 342 338
342 351 344 340 338 338 339 341 342 343 340 337 336 336 337 337 338 338 340 342 344 343 341 338 338 339 340 338 337 340 339 340 340 341 342 342 337 334 337 339 340 339 337
343 351 345 342 338 338 340 341 342 342 340 339 337 338 338 337 338 339 339 340 341 341 339 340 339 339 339 338 339 338 339 340 339 339 339 342 341 337 338 340 339 336 337
344 351 348 342 337 338 340 341 342 343 342 341 340 339 339 338 337 338 339 339 339 340 338 340 340 339 339 338 338 339 340 339 339 338 341 341 341 337 338 339 336 336 335
345 349 348 340 336 337 339 340 341 342 343 343 341 339 339 338 338 338 338 338 339 339 339 341 340 339 338 338 338 338 339 339 339 339 340 342 340 338 336 336 335 335 335
346 348 349 339 336 336 337 337 337 337 339 341 341 341 339 338 338 338 338 339 339 339 340 340 339 338 337 337 337 337 338 338 338 343 341 341 341 338 335 335 336 335 334
347 347 348 340 335 335 334 334 334 334 335 338 340 340 339 339 339 338 338 339 339 339 340 339 338 337 336 336 336 336 336 336 341 340 340 340 340 335 334 335 334 333 332
347 348 352 342 336 334 334 333 334 334 335 338 340 340 339 339 338 338 338 338 339 339 339 338 337 336 335 334 335 336 336 336 340 339 339 340 337 334 334 333 332 331 330
348 350 352 346 340 335 334 333 334 335 337 338 339 340 340 339 338 337 337 338 340 340 339 338 336 336 334 334 335 336 336 336 339 339 339 338 334 334 333 332 330 329 330
351 350 350 347 345 343 339 334 334 334 336 338 339 339 338 338 337 337 338 338 340 340 339 336 335 334 334 335 335 335 335 335 340 338 338 337 333 332 331 328 327 325 324
348 350 349 349 347 345 345 340 335 334 334 335 337 338 338 342 342 341 340 341 341 340 339 334 334 334 334 335 335 335 334 337 337 337 338 335 332 332 328 327 327 329 330
332 348 349 349 348 347 346 345 342 341 339 340 341 342 342 342 343 342 341 343 339 340 339 335 334 334 335 337 336 335 336 337 335 336 338 334 332 329 331 329 329 329 328
320 337 348 348 348 348 346 345 345 343 342 342 343 343 342 342 343 342 343 342 342 341 340 336 335 337 337 337 336 336 335 336 335 336 336 332 331 327 327 328 327 327 327
318 325 344 346 347 348 345 343 343 343 343 343 343 343 343 343 342 343 342 342 341 340 339 339 338 337 337 338 337 337 336 336 334 336 335 330 332 329 328 330 326 326 325
316 318 325 344 345 347 346 343 343 342 342 342 342 343 343 342 343 344 343 341 341 341 339 339 338 337 338 338 337 336 336 335 335 334 334 332 331 331 330 330 326 327 326
316 316 319 335 344 345 345 344 342 342 341 344 344 343 343 342 342 343 341 341 341 341 340 339 338 337 338 337 336 336 336 335 335 334 335 333 331 330 331 330 329 328 328
312 315 317 326 341 344 344 343 342 340 341 343 342 343 343 343 342 341 342 341 342 341 340 338 337 337 337 336 336 335 335 335 334 334 334 334 332 330 329 330 329 328 329
310 313 316 318 335 343 343 342 342 340 340 340 340 341 342 342 342 342 342 342 341 342 341 340 339 339 338 336 336 335 335 334 334 333 334 333 333 333 331 328 329 329 329
309 310 313 316 319 340 343 342 341 341 340 339 339 340 341 340 342 343 340 341 342 341 341 341 340 339 338 337 336 335 335 334 334 333 333 333 332 332 332 332 329 329 328
310 314 319 320 321 333 341 341 341 341 340 339 338 339 340 341 340 342 340 339 340 340 341 339 339 338 337 336 336 335 335 334 334 333 333 333 332 331 331 330 330 329 328
314 316 317 319 320 323 341 341 342 340 340 339 338 337 338 340 339 340 340 338 337 339 338 337 337 336 338 337 337 335 335 335 335 334 334 333 332 332 331 330 331 330 329
312 314 315 316 317 321 335 340 341 340 339 339 337 337 337 338 339 339 339 338 336 336 337 337 336 335 337 336 336 335 335 333 334 334 333 333 332 332 331 330 331 330 330
307 308 310 313 317 319 326 338 340 340 339 339 338 337 338 338 338 337 337 338 336 336 337 336 336 335 335 335 335 334 334 333 329 333 333 332 332 332 332 331 330 331 330
303 304 304 308 314 321 324 329 340 339 340 338 338 337 337 338 339 339 337 338 337 337 337 337 335 334 334 334 335 335 334 332 332 332 333 332 331 333 331 330 330 330 329
300 301 301 305 310 314 318 321 337 338 339 337 338 338 339 339 339 339 339 337 338 339 337 338 335 334 334 334 333 333 334 335 332 333 334 332 332 330 329 330 329 330 329
297 298 300 303 305 310 314 315 327 338 338 338 338 340 341 340 339 339 339 339 339 339 339 336 337 334 334 335 335 333 334 333 333 333 334 333 331 331 330 329 330 329 329

GFSSE_925_thetae_132.txt.gz
Theta_e
349 342 343 340 339 339 337 337 339 341 342 335 333 333 333 332 333 334 336 336 338 339 339 337 336 335 336 338 337 337 338 338 339 339 338 338 338 337 336 339 342 339 338
350 342 342 340 339 338 337 337 338 341 342 336 334 334 334 334 334 336 338 339 340 340 340 337 338 339 339 338 336 339 338 339 339 339 339 338 333 336 338 341 341 337 338
352 345 343 341 339 337 337 339 340 342 342 336 335 335 336 335 336 336 339 342 343 342 340 339 339 340 339 337 339 338 339 339 338 339 340 340 337 337 339 340 338 335 337
349 350 343 341 339 337 338 340 341 342 340 337 336 337 337 337 337 337 338 341 341 341 339 340 339 339 339 338 338 338 339 339 338 338 340 339 340 336 338 339 335 335 336
345 351 349 342 339 338 339 341 342 341 340 340 338 338 339 337 337 337 338 339 340 340 340 341 340 339 339 338 338 338 338 338 338 338 338 326 340 336 337 336 335 335 334
346 351 349 345 338 338 340 342 342 342 342 342 341 338 339 338 337 337 338 338 339 340 341 342 340 338 337 337 337 336 337 337 337 340 339 338 341 336 335 336 335 335 334
349 350 348 346 338 338 339 340 341 341 342 342 342 339 340 338 338 338 337 338 338 339 341 342 339 337 336 336 336 335 335 336 340 340 339 339 340 335 335 336 334 333 331
352 351 348 345 337 337 338 338 337 336 336 338 341 340 340 338 338 338 338 338 338 339 340 340 338 337 336 334 335 335 334 335 340 338 340 339 337 334 334 334 333 331 328
349 353 352 348 337 336 336 335 335 334 334 335 338 339 339 339 339 338 338 338 339 339 339 339 337 336 335 334 334 335 334 336 338 338 339 338 336 334 333 333 331 329 328
351 351 350 348 340 336 336 335 335 335 336 337 339 339 339 340 339 338 338 338 339 340 340 338 336 335 333 333 334 334 334 334 337 338 337 337 334 333 333 332 330 327 326
346 350 348 348 346 342 339 335 335 336 337 339 340 340 340 340 339 338 338 338 339 341 340 337 335 333 333 334 333 333 332 333 338 338 336 334 332 333 332 330 327 326 325
320 331 349 348 347 346 344 343 336 336 337 340 341 341 340 340 342 341 339 341 340 340 340 336 334 333 333 334 333 332 331 337 336 336 333 333 332 330 327 327 326 328 329
317 319 346 349 346 347 345 346 343 340 337 338 340 342 339 341 343 341 342 340 342 340 340 337 334 334 333 338 336 332 331 336 336 337 333 332 331 330 329 327 329 330 328
315 317 317 349 347 348 347 348 346 343 342 342 342 343 342 343 343 341 343 342 341 340 339 339 336 334 337 336 337 336 337 336 335 334 333 331 331 327 327 328 328 327 327
311 313 316 322 348 346 347 348 347 345 345 344 343 343 345 342 343 343 343 343 342 341 339 340 338 337 337 337 338 337 336 335 336 334 333 331 330 330 327 328 328 326 326
311 311 312 314 319 345 343 345 346 345 345 344 344 345 343 343 343 344 343 343 342 341 340 339 338 339 337 337 336 335 336 335 334 335 335 332 331 330 330 330 329 326 327
311 311 311 310 315 330 345 343 343 344 342 345 344 345 344 342 344 344 343 343 343 341 340 340 336 338 337 337 337 337 335 334 335 334 334 333 332 331 330 330 330 328 329
313 314 313 314 312 317 342 343 341 343 344 342 343 343 345 344 343 344 343 341 343 341 340 340 338 337 337 337 337 335 333 334 335 334 334 333 333 332 330 330 330 329 329
311 313 315 317 318 321 322 336 341 342 343 342 345 342 341 343 344 344 343 343 341 342 342 342 340 339 339 337 336 334 334 334 334 334 333 333 333 332 332 331 329 329 329
307 310 311 313 316 317 319 320 338 342 343 343 342 342 343 342 340 343 344 342 344 342 341 342 342 341 339 337 337 336 334 334 335 333 333 333 333 332 332 332 331 329 329
304 305 307 310 311 312 315 319 323 338 340 340 341 341 341 342 339 341 344 342 340 343 341 341 342 341 339 337 337 337 336 334 334 333 333 332 331 331 330 330 330 330 329
301 301 303 305 307 308 311 318 323 325 338 339 341 340 340 343 340 339 343 341 338 337 340 340 338 337 336 336 337 336 334 335 335 333 333 334 333 331 331 331 331 330 330
297 299 300 301 303 305 308 313 318 323 330 338 340 340 340 340 343 340 340 342 338 338 336 337 336 336 336 335 336 334 332 331 331 335 334 334 334 333 333 332 331 331 331
296 296 297 299 301 304 307 311 315 319 325 336 338 340 339 339 342 341 339 338 340 336 335 336 336 335 335 334 336 336 334 336 332 332 335 334 332 332 333 332 332 331 330
293 293 295 297 301 303 304 309 313 318 326 334 338 339 339 338 339 341 338 337 339 337 335 338 338 336 335 333 334 333 333 334 335 333 331 332 333 331 331 333 332 330 328
292 292 293 295 300 301 303 308 312 318 324 334 335 338 338 340 340 340 338 336 336 339 337 335 339 337 335 333 334 332 333 333 333 333 331 330 330 332 331 329 329 328 328